[[{"header":{"parameterUnit":"m.s-1","parameterCategory":1,"la1":31.0,"la2":29.5877,"lo1":-88.7671,"lo2":-86.6584,"dy":0.0162,"dx":0.0185,"nx":115,"ny":88,"refTime":"2023-08-17T06:00:00:Z","depth":0,"parameterNumber":2,"parameterNumberName":"U-component_of_WINDS"},"data":[0.0,0.0,0.0,0.0,0.0,0.0,0.0,0.0,0.0,0.0,0.0,0.0,0.0,0.0,0.0,0.0,0.0,0.0,0.0,0.0,0.0,0.0,0.0,0.0,0.0,0.0,0.0,0.0,0.0,0.0,0.0,0.0,0.0,0.0,0.0,0.0,0.0,0.0,0.0,0.0,0.0,0.0,0.0,0.0,0.0,0.0,0.0,0.0,0.0,0.0,0.0,0.0,0.0,0.0,0.0,0.0,0.0,0.0,0.0,0.0,0.0,0.0,0.0,0.0,0.0,0.0,0.0,0.0,0.0,0.0,0.0,0.0,0.0,0.0,0.0,0.0,0.0,0.0,0.0,0.0,0.0,0.0,0.0,0.0,0.0,0.0,0.0,0.0,0.0,0.0,0.0,0.0,0.0,0.0,0.0,0.0,0.0,0.0,0.0,0.0,0.0,0.0,0.0,0.0,0.0,0.0,0.0,0.0,0.0,0.0,0.0,0.0,0.0,0.0,0.0,0.0,0.0,0.0,0.0,0.0,0.0,0.0,0.0,0.0,0.0,0.0,0.0,0.0,0.0,0.0,0.0,0.0,0.0,0.0,0.0,0.0,0.0,0.0,0.0,0.0,0.0,0.0,0.0,0.0,0.0,0.0,0.0,0.0,0.0,0.0,0.0,0.0,0.0,0.0,0.0,0.0,0.0,0.0,0.0,0.0,0.0,0.0,0.0,0.0,0.0,0.0,0.0,0.0,0.0,0.0,0.0,0.0,0.0,0.0,0.0,0.0,0.0,0.0,0.0,0.0,0.0,0.0,0.0,0.0,0.0,0.0,0.0,0.0,0.0,0.0,0.0,0.0,0.0,0.0,0.0,0.0,0.0,0.0,0.0,0.0,0.0,0.0,0.0,0.0,0.0,0.0,0.0,0.0,0.0,0.0,0.0,0.0,0.0,0.0,0.0,0.0,0.0,0.0,0.0,0.0,0.0,0.0,0.0,0.0,0.0,0.0,0.0,0.0,0.0,0.0,0.0,0.0,0.0,0.0,0.0,0.0,0.0,0.0,0.0,0.0,0.0,0.0,0.0,0.0,0.0,0.0,0.0,0.0,0.0,0.0,0.0,0.0,0.0,0.0,0.0,0.0,0.0,0.0,0.0,0.0,0.0,0.0,0.0,0.0,0.0,0.0,0.0,0.0,0.0,0.0,0.0,0.0,0.0,0.0,0.0,0.0,0.0,0.0,0.0,0.0,0.0,0.0,0.0,0.0,0.0,0.0,0.0,0.0,0.0,0.0,0.0,0.0,0.0,0.0,0.0,0.0,0.0,0.0,0.0,0.0,0.0,0.0,0.0,0.0,0.0,0.0,0.0,0.0,0.0,0.0,0.0,0.0,0.0,0.0,0.0,0.0,0.0,0.0,0.0,0.0,0.0,0.0,0.0,0.0,0.0,0.0,0.0,0.0,0.0,0.0,0.0,0.0,0.0,0.0,0.0,0.0,0.0,0.0,0.0,0.0,0.0,0.0,0.0,0.0,0.0,0.0,0.0,0.0,0.0,0.0,0.0,0.0,0.0,0.0,0.0,0.0,0.0,0.0,0.0,0.0,0.0,0.0,0.0,0.0,0.0,0.0,0.0,0.0,0.0,0.0,0.0,0.0,0.0,0.0,0.0,0.0,0.0,0.0,0.0,0.0,0.0,0.0,0.0,0.0,0.0,0.0,0.0,0.0,0.0,0.0,0.0,0.0,0.0,0.0,0.0,0.0,0.0,0.0,0.0,0.0,0.0,0.0,0.0,0.0,0.0,0.0,0.0,0.0,0.0,0.0,0.0,0.0,0.0,0.0,0.0,0.0,0.0,0.0,0.0,0.0,0.0,0.0,0.0,0.0,0.0,0.0,0.0,0.0,0.0,0.0,0.0,0.0,0.0,0.0,0.0,0.0,0.0,0.0,0.0,0.0,0.0,0.0,0.0,0.0,0.0,0.0,0.0,0.0,0.0,0.0,0.0,0.0,0.0,0.0,0.0,0.0,0.0,0.0,0.0,0.0,0.0,0.0,0.0,0.0,0.0,0.0,0.0,0.0,0.0,0.0,0.0,0.0,0.0,0.0,0.0,0.0,0.0,0.0,0.0,0.0,0.0,0.0,0.0,0.0,0.0,0.0,0.0,0.0,0.0,0.0,0.0,0.0,0.0,0.0,0.0,0.0,0.0,0.0,0.0,0.0,0.0,0.0,0.0,0.0,0.0,0.0,0.0,0.0,0.0,0.0,0.0,0.0,0.0,0.0,0.0,0.0,0.0,0.0,0.0,0.0,0.0,0.0,0.0,0.0,0.0,0.0,0.0,0.0,0.0,0.0,0.0,0.0,0.0,0.0,0.0,0.0,0.0,0.0,0.0,0.0,0.0,0.0,0.0,0.0,0.0,0.0,0.0,0.0,0.0,0.0,0.0,0.0,0.0,0.0,0.0,0.0,0.0,0.0,0.0,0.0,0.0,0.0,0.0,0.0,0.0,0.0,0.0,0.0,0.0,0.0,0.0,0.0,0.0,0.0,0.0,0.0,0.0,0.0,0.0,0.0,0.0,0.0,0.0,0.0,0.0,0.0,0.0,0.0,0.0,0.0,0.0,0.0,0.0,0.0,0.0,0.0,0.0,0.0,0.0,0.0,0.0,0.0,0.0,0.0,0.0,0.0,0.0,0.0,0.0,0.0,0.0,0.0,0.0,0.0,0.0,0.0,0.0,0.0,0.0,0.0,0.0,0.0,0.0,0.0,0.0,0.0,0.0,0.0,0.0,0.0,0.0,0.0,0.0,0.0,0.0,0.0,0.0,0.0,0.0,0.0,0.0,0.0,0.0,0.0,0.0,0.0,0.0,0.0,0.0,0.0,0.0,0.0,0.0,0.0,0.0,0.0,0.0,0.0,0.0,0.0,0.0,0.0,0.0,0.0,0.0,0.0,0.0,0.0,0.0,0.0,0.0,0.0,0.0,0.0,0.0,0.0,0.0,0.0,0.0,0.0,0.0,0.0,0.0,0.0,0.0,0.0,0.0,0.0,0.0,0.0,0.0,0.0,0.0,0.0,0.0,0.0,0.0,0.0,0.0,0.0,0.0,0.0,0.0,0.0,0.0,0.0,0.0,0.0,0.0,0.0,0.0,0.0,0.0,0.0,0.0,0.0,0.0,0.0,0.0,0.0,0.0,0.0,0.0,0.0,0.0,0.0,0.0,0.0,0.0,0.0,0.0,0.0,0.0,0.0,0.0,0.0,0.0,0.0,0.0,0.0,0.0,0.0,0.0,0.0,0.0,0.0,0.0,0.0,0.0,0.0,0.0,0.0,0.0,0.0,0.0,0.0,0.0,0.0,0.0,0.0,0.0,0.0,0.0,0.0,0.0,0.0,0.0,0.0,0.0,0.0,0.0,0.0,0.0,0.0,0.0,0.0,0.0,0.0,0.0,0.0,0.0,0.0,0.0,0.0,0.0,0.0,0.0,0.0,0.0,0.0,0.0,0.0,0.0,0.0,0.0,0.0,0.0,0.0,0.0,0.0,0.0,0.0,0.0,0.0,0.0,0.0,0.0,0.0,0.0,0.0,0.0,0.0,0.0,0.0,0.0,0.0,0.0,0.0,0.0,0.0,0.0,0.0,0.0,0.0,0.0,0.0,0.0,0.0,0.0,0.0,0.0,0.0,0.0,0.0,0.0,0.0,0.0,0.0,0.0,0.0,0.0,0.0,0.0,0.0,0.0,0.0,0.0,0.0,0.0,0.0,0.0,0.0,0.0,0.0,0.0,0.0,0.0,0.0,0.0,0.0,0.0,0.0,0.0,0.0,0.0,0.0,0.0,0.0,0.0,0.0,0.0,0.0,0.0,0.0,0.0,0.0,0.0,0.0,0.0,0.0,0.0,0.0,0.0,0.0,0.0,0.0,0.0,0.0,0.0,0.0,0.0,0.0,0.0,0.0,0.0,0.0,0.0,0.0,0.0,0.0,0.0,0.0,0.0,0.0,0.0,0.0,0.0,0.0,0.0,0.0,0.0,0.0,0.0,0.0,0.0,0.0,0.0,0.0,0.0,0.0,0.0,0.0,0.0,0.0,0.0,0.0,0.0,0.0,0.0,0.0,0.0,0.0,0.0,0.0,0.0,0.0,0.0,0.0,0.0,0.0,0.0,0.0,0.0,0.0,0.0,0.0,0.0,0.0,0.0,0.0,0.0,0.0,0.0,0.0,0.0,0.0,0.0,0.0,0.0,0.0,0.0,0.0,0.0,0.0,0.0,0.0,0.4477,0.0,0.0,0.0,0.0,0.0,0.0,0.0,0.0,0.0,0.0,0.0,0.0,0.0,0.0,0.0,0.0,0.0,0.0,0.0,0.0,0.0,0.0,0.0,0.0,0.0,0.0,0.0,0.0,0.0,0.0,0.0,0.0,0.0,0.0,0.0,0.0,0.0,0.0,0.0,0.0,0.0,0.0,0.0,0.0,0.0,0.0,0.0,0.0,0.0,0.0,0.0,0.0,0.0,0.0,0.0,0.0,0.0,0.0,0.0,0.0,0.0,0.0,0.0,0.0,0.0,0.0,0.0,0.0,0.0,0.0,0.0,0.0,0.0,0.0,0.0,0.0,0.0,0.0,0.0,0.0,0.0,0.0,0.0,0.0,0.0,0.0,0.0,0.0,0.0,0.0,0.0,0.0,0.0,0.0,0.0,0.0,0.0,0.0,0.0,0.0,0.0,0.0,0.0,0.0,0.0,0.0,0.0,0.0,0.0,0.0,0.4463,0.4463,0.4473,0.4082,0.3294,0.0,0.0,0.0,0.0,0.0,0.0,0.0,0.0,0.0,0.0,0.0,0.0,0.0,0.0,0.0,0.0,0.0,0.0,0.0,0.0,0.0,0.0,0.0,0.0,0.0,0.0,0.0,0.0,0.0,0.0,0.0,0.0,0.0,0.0,0.0,0.0,0.0,0.0,0.0,0.0,0.0,0.0,0.0,0.0,0.0,0.0,0.0,0.0,0.0,0.0,0.0,0.0,0.0,0.0,0.0,0.0,0.0,0.0,0.0,0.0,0.0,0.0,0.0,0.0,0.0,0.0,0.0,0.0,0.0,0.0,0.0,0.0,0.0,0.0,0.0,0.0,0.0,0.0,0.0,0.0,0.0,0.0,0.0,0.0,0.0,0.0,0.0,0.0,0.0,0.0,0.0,0.0,0.0,0.0,0.0,0.0,0.0,0.0,0.0,0.0,0.0,0.0,0.0,0.0,0.0,0.0,0.0,0.0,0.0,0.0,0.0,0.0,0.4477,0.3635,0.1788,0.0,0.0,0.0,0.0,0.0,0.0,0.0,0.0,0.0,0.0,0.0,0.0,0.0,0.0,0.0,0.0,0.0,0.0,0.0,0.0,0.0,0.0,0.0,0.0,0.0,0.0,0.0,0.0,0.0,0.0,0.0,0.0,0.0,0.0,0.0,0.0,0.0,0.0,0.0,0.0,0.0,0.0,0.0,0.0,0.0,0.0,0.0,0.0,0.0,0.0,0.0,0.0,0.0,0.0,0.0,0.0,0.0,0.0,0.0,0.0,0.0,0.0,0.0,0.0,0.0,0.0,0.0,0.0,0.0,0.0,0.0,0.0,0.0,0.0,0.0,0.0,0.0,0.0,0.0,0.0,0.0,0.0,0.0,0.0,0.0,0.0,0.0,0.0,0.0,0.0,0.0,0.0,0.0,0.0,0.0,0.0,0.0,0.0,0.0,0.0,0.0,0.0,0.0,0.0,0.0,0.0,0.0,0.0,0.0,0.0,0.4467,0.4477,0.449,0.0,0.0448,0.0,0.0,0.0,0.0,0.0,0.0,0.0,0.0,0.0,0.0,0.0,0.0,0.0,0.0,0.0,0.0,0.0,0.0,0.0,0.0,0.0,0.0,0.0,0.0,0.0,0.0,0.0,0.0,0.0,0.0,0.0,0.0,0.0,0.0,0.0,0.0,0.0,0.0,0.0,0.0,0.0,0.0,0.0,0.0,0.0,0.0,0.0,0.0,0.0,0.0,0.0,0.0,0.0,0.0,0.0,0.0,0.0,0.0,0.0,0.0,0.0,0.0,0.0,0.0,0.0,0.0,0.0,0.0,0.0,0.0,0.0,0.0,0.0,0.0,0.0,0.0,0.0,0.0,0.0,0.0,0.0,0.0,0.0,0.0,0.0,0.0,0.0,0.0,0.0,0.0,0.0,0.0,0.0,0.0,0.0,0.0,0.0,0.0,0.0,0.0,0.0,0.0,0.0,0.0,0.0,0.0,0.0,0.0,0.0,0.0,0.4473,0.4477,0.4497,0.3086,0.0,0.0,0.0,0.0,0.0,0.0,0.0,0.0,0.0,0.0,0.0,0.0,0.0,0.0,0.0,0.0,0.0,0.0,0.0,0.0,0.0,0.0,0.0,0.0,0.0,0.0,0.0,0.0,0.0,0.0,0.0,0.0,0.0,0.0,0.0,0.0,0.0,0.0,0.0,0.0,0.0,0.0,0.0,0.0,0.0,0.0,0.0,0.0,0.0,0.0,0.0,0.0,0.0,0.0,0.0,0.0,0.0,0.0,0.0,0.0,0.0,0.0,0.0,0.0,0.0,0.0,0.0,0.0,0.0,0.0,0.0,0.0,0.0,0.0,0.0,0.0,0.0,0.0,0.0,0.0,0.0,0.0,0.0,0.0,0.0,0.0,0.0,0.0,0.0,0.0,0.0,0.0,0.0,0.0,0.0,0.0,0.0,0.0,0.0,0.0,0.0,0.0,0.0,0.0,0.0,0.0,0.0,0.0,0.0,0.0,0.4473,0.4484,0.4432,0.3705,0.2235,-0.0,0.0,0.0,0.0,0.0,0.0,0.0,0.0,0.0,0.0,0.0,0.0,0.0,0.0,0.0,0.0,0.0,0.0,0.0,0.0,0.0,0.0,0.0,0.0,0.0,0.0,0.0,0.0,0.0,0.0,0.0,0.0,0.0,0.0,0.0,0.0,0.0,0.0,0.0,0.0,0.0,0.0,0.0,0.0,0.0,0.0,0.0,0.0,0.0,0.0,0.0,0.0,0.0,0.0,0.0,0.0,0.0,0.0,0.0,0.0,0.0,0.0,0.0,0.0,0.0,0.0,0.0,0.0,0.0,0.0,0.0,0.0,0.0,0.0,0.0,0.0,0.0,0.0,0.0,0.0,0.0,0.0,0.0,0.0,0.0,0.0,0.0,0.0,0.0,0.0,0.0,0.0,0.0,0.0,0.0,0.0,0.0,0.0,0.0,0.0,0.0,0.0,0.0,0.0,0.0,0.0,0.0,0.0,0.0,0.4463,0.4473,0.4487,0.434,0.1682,-0.0,0.0,0.0,0.0,0.0,0.0,0.0,0.0,0.0,0.0,0.0,0.0,0.0,0.0,0.0,0.0,0.0,0.0,0.0,0.0,0.0,0.0,0.0,0.0,0.0,0.0,0.0,0.0,0.0,0.0,0.0,0.0,0.0,0.0,0.0,0.0,0.0,0.0,0.0,0.0,0.0,0.0,0.0,0.0,0.0,0.0,0.0,0.0,0.0,0.0,0.0,0.0,0.0,0.0,0.0,0.0,0.0,0.0,0.0,0.0,0.0,0.0,0.0,0.0,0.0,0.0,0.0,0.0,0.0,0.0,0.0,0.0,0.0,0.0,0.0,0.0,0.0,0.0,0.0,0.0,0.0,0.0,0.0,0.0,0.0,0.0,0.0,0.0,0.0,0.0,0.0,0.0,0.0,0.0,0.0,0.0,0.0,0.0,0.0,0.0,0.0,0.0,0.0,0.0,0.0,0.0,0.0,0.0,0.0,0.0,0.446,0.3514,0.2571,0.1626,0.0561,-0.0,0.0,0.0,0.0,0.0,0.0,0.0,0.0,0.0,0.0,0.0,0.0,0.0,0.0,0.0,0.0,0.0,0.0,0.0,0.0,0.0,0.0,0.0,0.0,0.0,0.0,0.0,0.0,0.0,0.0,0.0,0.0,0.0,0.0,0.0,0.0,0.0,0.0,0.0,0.0,0.0,0.0,0.0,0.0,0.0,0.0,0.0,0.0,0.0,0.0,0.0,0.0,0.0,0.0,0.0,0.0,0.0,0.0,0.0,0.0,0.0,0.0,0.0,0.0,0.0,0.0,0.0,0.0,0.0,0.0,0.0,0.0,0.0,0.0,0.0,0.0,0.0,0.0,0.0,0.0,0.0,0.0,0.0,0.0,0.0,0.0,0.0,0.0,0.0,0.0,0.0,0.0,0.0,0.0,0.0,0.0,0.0,0.0,0.0,0.0,0.0,0.0,0.0,0.0,0.0,0.0,0.0,0.0,0.0,0.0,0.4473,0.0,0.2014,-0.0,-0.0,-0.0,0.0,0.0,0.0,0.0,0.0,0.0,0.0,0.0,0.0,0.0,0.0,0.0,0.0,0.0,0.0,0.0,0.0,0.0,0.0,0.0,0.0,0.0,0.0,0.0,0.0,0.0,0.0,0.0,0.0,0.0,0.0,0.0,0.0,0.0,0.0,0.0,0.0,0.0,0.0,0.0,0.0,0.0,0.0,0.0,0.0,0.0,0.0,0.0,0.0,0.0,0.0,0.0,0.0,0.0,0.0,0.0,0.0,0.0,0.0,0.0,0.0,0.0,0.0,0.0,0.0,0.0,0.0,0.0,0.0,0.0,0.0,0.0,0.0,0.0,0.0,0.0,0.0,0.0,0.0,0.0,0.0,0.0,0.0,0.0,0.0,0.0,0.0,0.0,0.0,0.0,0.0,0.0,0.0,0.0,0.0,0.0,0.0,0.0,0.0,0.0,0.0,0.0,0.0,0.0,0.0,0.0,0.0,0.0,0.4473,0.4497,0.4452,0.2977,-0.0,-0.0,-0.0,0.0,0.0,0.0,0.0,0.0,0.0,0.0,0.0,0.0,0.0,0.0,0.0,0.0,0.0,0.0,0.0,0.0,0.0,0.0,0.0,0.0,0.0,0.0,0.0,0.0,0.0,0.0,0.0,0.0,0.0,0.0,0.0,0.0,0.0,0.0,0.0,0.0,0.0,0.0,0.0,0.0,0.0,0.0,0.0,0.0,0.0,0.0,0.0,0.0,0.0,0.0,0.0,0.0,0.0,0.0,0.0,0.0,0.0,0.0,0.0,0.0,0.0,0.0,0.0,0.0,0.0,0.0,0.0,0.0,0.0,0.0,0.0,0.0,0.0,0.0,0.0,0.0,0.0,0.0,0.0,0.0,0.0,0.0,0.0,0.0,0.0,0.0,0.0,0.0,0.0,0.0,0.0,0.0,0.0,0.0,0.0,0.0,0.0,0.0,0.0,0.0,0.0,0.0,0.0,0.0,0.0,0.0,0.0,0.0,0.4507,0.4511,0.3091,-0.0,-0.0,-0.0,0.0,0.0,0.0,0.0,0.0,0.0,0.0,0.0,0.0,0.0,0.0,0.0,0.0,0.0,0.0,0.0,0.0,0.0,0.0,0.0,0.0,0.0,0.0,0.0,0.0,0.0,0.0,0.0,0.0,0.0,0.0,0.0,0.0,0.0,0.0,0.0,0.0,0.0,0.0,0.0,0.0,0.0,0.0,0.0,0.0,0.0,0.0,0.0,0.0,0.0,0.0,0.0,0.0,0.0,0.0,0.0,0.0,0.0,0.0,0.0,0.0,0.0,0.0,0.0,0.0,0.0,0.0,0.0,0.0,0.0,0.0,0.0,0.0,0.0,0.0,0.0,0.0,0.0,0.0,0.0,0.0,0.0,0.0,0.0,0.0,0.0,0.0,0.0,0.0,0.0,0.0,0.0,0.0,0.0,0.0,0.0,0.0,0.0,0.0,0.0,0.0,0.0,0.0,0.0,0.0,0.0,0.0,0.0,0.0,0.4462,0.3431,0.1906,0.0056,-0.0,-0.0,-0.0,0.0,0.0,0.0,0.0,0.0,0.0,0.0,0.0,0.0,0.0,0.0,0.0,0.0,0.0,0.0,0.0,0.0,0.0,0.0,0.0,0.0,0.0,0.0,0.0,0.0,0.0,0.0,0.0,0.0,0.0,0.0,0.0,0.0,0.0,0.0,0.0,0.0,0.0,0.0,0.0,0.0,0.0,0.0,0.0,0.0,0.0,0.0,0.0,0.0,0.0,0.0,0.0,0.0,0.0,0.0,0.0,0.0,0.0,0.0,0.0,0.0,0.0,0.0,0.0,0.0,0.0,0.0,0.0,0.0,0.0,0.0,0.0,0.0,0.0,0.0,0.0,0.0,0.0,0.0,0.0,0.0,0.0,0.0,0.0,0.0,0.0,0.0,0.0,0.0,0.0,0.0,0.0,0.0,0.0,0.0,0.0,0.0,0.0,0.0,0.0,0.0,0.0,0.0,0.0,0.0,0.0,0.0,0.0,0.4244,0.1459,-0.0,-0.0,-0.0,-0.0,0.0,0.0,0.0,0.0,0.0,0.0,0.0,0.0,0.0,0.0,0.0,0.0,0.0,0.0,0.0,0.0,0.0,0.0,0.0,0.0,0.0,0.0,0.0,0.0,0.0,0.0,0.0,0.0,0.0,0.0,0.0,0.0,0.0,0.0,0.0,0.0,0.0,0.0,0.0,0.0,0.0,0.0,0.0,0.0,0.0,0.0,0.0,0.0,0.0,0.0,0.0,0.0,0.0,0.0,0.0,0.0,0.0,0.0,0.0,0.0,0.0,0.0,0.0,0.0,0.0,0.0,0.0,0.0,0.0,0.0,0.0,0.0,0.0,0.0,0.0,0.0,0.0,0.0,0.0,0.0,0.0,0.0,0.0,0.0,0.0,0.0,0.0,0.0,0.0,0.0,0.0,0.0,0.0,0.0,0.0,0.0,0.0,0.0,0.0,0.0,0.0,0.0,0.0,0.0,0.0,0.0,0.0,0.0,0.0,0.1234,0.0393,-0.0,-0.0,-0.0,-0.0,0.0,0.0,0.0,0.0,0.0,0.0,0.0,0.0,0.0,0.0,0.0,0.0,0.0,0.0,0.0,0.0,0.0,0.0,0.0,0.0,0.0,0.0,0.0,0.0,0.0,0.0,0.0,0.0,0.0,0.0,0.0,0.0,0.0,0.0,0.0,0.0,0.0,0.0,0.0,0.0,0.0,0.0,0.0,0.0,0.0,0.0,0.0,0.0,0.0,0.0,0.0,0.0,0.0,0.0,0.0,0.0,0.0,0.0,0.0,0.0,0.0,0.0,0.0,0.0,0.0,0.0,0.0,0.0,0.0,0.0,0.0,0.0,0.0,0.0,0.0,0.0,0.0,0.0,0.0,0.0,0.0,0.0,0.0,0.0,0.0,0.0,0.0,0.0,0.0,0.0,0.0,0.0,0.0,0.0,0.0,0.0,0.0,0.0,0.0,0.0,0.0,0.0,0.0,0.0,0.0,0.0,0.0,0.0,0.1797,-0.0,-0.0,-0.0,-0.0,-0.0,-0.0,0.0,0.0,0.0,0.0,0.0,0.0,0.0,0.0,0.0,0.0,0.0,0.0,0.0,0.0,0.0,0.0,0.0,0.0,0.0,0.0,0.0,0.0,0.0,0.0,0.0,0.0,0.0,0.0,0.0,0.0,0.0,0.0,0.0,0.0,0.0,0.0,0.0,0.0,0.0,0.0,0.0,0.0,0.0,0.0,0.0,0.0,0.0,0.0,0.0,0.0,0.0,0.0,0.0,0.0,0.0,0.0,0.0,0.0,0.0,0.0,0.0,0.0,0.0,0.0,0.0,0.0,0.0,0.0,0.0,0.0,0.0,0.0,0.0,0.0,0.0,0.0,0.0,0.0,0.0,0.0,0.0,0.0,0.0,0.0,0.0,0.0,0.0,0.0,0.0,0.0,0.0,0.0,0.0,0.0,0.0,0.0,0.0,0.0,0.0,0.0,0.0,0.0,0.0,0.0,0.0,0.0,0.0,0.0,-0.0,-0.0,-0.0,-0.0,-0.0,-0.0,-0.0,0.0,0.0,0.0,0.0,0.0,0.0,0.0,0.0,0.0,0.0,0.0,0.0,0.0,0.0,0.0,0.0,0.0,0.0,0.0,0.0,0.0,0.0,0.0,0.0,0.0,0.0,0.0,0.0,0.0,0.0,0.0,0.0,0.0,0.0,0.0,0.0,0.0,0.0,0.0,0.0,0.0,0.0,0.0,0.0,0.0,0.0,0.0,0.0,0.0,0.0,0.0,0.0,0.0,0.0,0.0,0.0,0.0,0.0,0.0,0.0,0.0,0.0,0.0,0.0,0.0,0.0,0.0,0.0,0.0,0.0,0.0,0.0,0.0,0.0,0.0,0.0,0.0,0.0,0.0,0.0,0.0,0.0,0.0,0.0,0.0,0.0,0.0,0.0,0.0,0.0,0.0,0.0,0.0,0.0,0.0,0.0,0.0,0.0,0.0,0.0,0.0,0.0,0.0,0.0,0.0,0.0,0.0,0.0,-0.0,-0.0,-0.0,-0.0,-0.0,-0.0,-0.0,0.0,0.0,0.0,0.0,0.0,0.0,0.0,0.0,0.0,0.0,0.0,0.0,0.0,0.0,0.0,0.0,0.0,0.0,0.0,0.0,0.0,0.0,0.0,0.0,0.0,0.0,0.0,0.0,0.0,0.0,0.0,0.0,0.0,0.0,0.0,0.0,0.0,0.0,0.0,0.0,0.0,0.0,0.0,0.0,0.0,0.0,0.0,0.0,0.283,0.0,0.0,0.0,0.0,0.0,0.0,0.0,0.0,0.0,0.0,0.0,0.0,0.0,0.0,0.0,0.0,0.0,0.0,0.0,0.0,0.0,0.0,0.0,0.0,0.0,0.0,0.0,0.0,0.0,0.0,0.0,0.0,0.0,0.0,0.0,0.0,0.0,0.0,0.0,0.0,0.0,0.0,0.0,0.0,0.0,0.0,0.0,0.0,0.0,0.0,0.0,0.0,0.0,0.0,0.0,0.0,0.0,0.0,0.0,-0.0,-0.0,-0.0,-0.0,-0.0,-0.0,-0.0,0.0,0.0,0.0,0.0,0.0,0.0,0.0,0.0,0.0,0.0,0.0,0.0,0.0,0.0,0.0,0.0,0.0,0.0,0.0,0.0,0.0,0.0,0.0,0.0,0.0,0.0,0.0,0.0,0.0,0.0,0.0,0.0,0.0,0.0,0.0,0.0,0.0,0.0,0.0,0.0,0.0,0.0,0.0,0.0,0.0,0.0,0.0,0.0,0.0,0.0,0.0,0.0,0.0,0.0,0.0,0.0,0.0,0.0,0.0,0.0,0.0,0.0,0.0,0.0,0.0,0.0,0.0,0.0,0.0,0.0,0.0,0.0,0.0,0.0,0.0,0.0,0.0,0.0,0.0,0.0,0.0,0.0,0.0,0.0,0.0,0.0,0.0,0.0,0.0,0.0,0.0,0.0,0.0,0.0,0.0,0.0,0.0,0.0,0.0,0.0,0.0,0.0,0.0,0.0,0.0,0.0,0.0,-0.0,-0.0,-0.0,-0.0,0.0224,0.0673,0.0224,-0.0,-0.0,0.0,0.0,0.0,0.0,0.0,0.0,0.0,0.0,0.0,0.0,0.0,0.0,0.0,0.0,0.0,0.0,0.0,0.0,0.0,0.0,0.0,0.0,0.0,0.0,0.0,0.0,0.0,0.0,0.0,0.0,0.0,0.0,0.0,0.0,0.0,0.0,0.0,0.0,0.4463,0.4463,0.0,0.0,0.0,0.0,0.0,0.0,0.0,0.0,0.3825,0.0,0.0,0.0,0.0,0.0,0.0,0.0,0.0,0.0,0.0,0.0,0.0,0.0,0.0,0.0,0.0,0.0,0.0,0.0,0.0,0.0,0.0,0.0,0.0,0.0,0.0,0.0,0.0,0.0,0.0,0.0,0.0,0.0,0.0,0.0,0.0,0.0,0.0,0.0,0.0,0.0,0.0,0.0,0.0,0.0,0.0,0.0,0.0,0.0,0.0,0.0,0.0,0.0,0.0,0.0,0.0,-0.0,-0.0,-0.0,-0.0,-0.0,0.1233,0.3543,0.1289,-0.0,-0.0,0.0,0.0,0.0,0.0,0.0,0.0,0.0,0.0,0.0,0.0,0.0,0.0,0.0,0.0,0.0,0.0,0.0,0.0,0.0,0.0,0.0,0.0,0.0,0.0,0.0,0.0,0.0,0.0,0.0,0.0,0.0,0.0,0.0,0.0,0.0,0.0,0.0,0.0,0.0,0.4463,0.4463,0.0,0.0,0.0,0.0,0.0,0.0,0.0,0.0,0.401,0.0,0.0,0.0,0.0,0.0,0.0,0.0,0.0,0.0,0.0,0.0,0.0,0.0,0.0,0.0,0.0,0.0,0.0,0.0,0.0,0.0,0.0,0.0,0.0,0.0,0.0,0.0,0.0,0.0,0.0,0.0,0.0,0.0,0.0,0.0,0.0,0.0,0.0,0.0,0.0,0.0,0.0,0.0,0.0,0.0,0.0,0.0,0.0,0.0,0.0,0.0,0.0,0.0,0.0,0.0,0.2244,0.0784,-0.0,-0.0,0.1512,0.3035,0.4399,0.3088,0.1956,0.0,0.0,0.0,0.0,0.0,0.0,0.0,0.0,0.0,0.0,0.0,0.0,0.0,0.0,0.0,0.0,0.0,0.0,0.0,0.0,0.0,0.0,0.0,0.0,0.0,0.0,0.0,0.0,0.0,0.0,0.0,0.0,0.0,0.0,0.0,0.0,0.0,0.0,0.0,0.0,0.4463,0.4463,0.4463,0.0,0.0,0.0,0.0,0.0,0.0,0.4012,0.4082,0.0,0.0,0.0,0.0,0.0,0.0,0.0,0.0,0.0,0.0,0.0,0.0,0.0,0.0,0.0,0.0,0.0,0.0,0.0,0.0,0.0,0.0,0.0,0.0,0.0,0.0,0.0,0.0,0.0,0.0,0.0,0.0,0.0,0.0,0.0,0.0,0.0,0.0,0.0,0.0,0.0,0.0,0.0,0.0,0.0,0.0,0.0,0.0,0.0,0.0,0.0,0.0,0.0,0.0,0.0,0.4337,0.2125,0.0726,0.0558,0.28,0.4166,0.4452,0.4497,0.3922,0.0,0.0,0.0,0.0,0.0,0.0,0.0,0.0,0.0,0.0,0.0,0.0,0.0,0.0,0.0,0.0,0.0,0.0,0.0,0.0,0.0,0.0,0.0,0.0,0.0,0.0,0.0,0.0,0.0,0.0,0.0,0.0,0.0,0.0,0.0,0.0,0.0,0.0,0.0,0.0,0.0,0.4463,0.4463,0.4463,0.0,0.0,0.0,0.0,0.3996,0.4007,0.0,0.0,0.0,0.0,0.0,0.0,0.0,0.0,0.0,0.0,0.0,0.0,0.0,0.0,0.0,0.0,0.0,0.0,0.0,0.0,0.0,0.0,0.0,0.0,0.0,0.0,0.0,0.0,0.0,0.0,0.0,0.0,0.0,0.0,0.0,0.0,0.0,0.0,0.0,0.0,0.0,0.0,0.0,0.0,0.0,0.0,0.0,0.0,0.0,0.0,0.0,0.0,0.0,0.0,0.0,0.0,0.4442,0.4157,0.3302,0.2007,0.2287,0.3128,0.4428,0.449,0.4435,0.0,0.0,0.0,0.0,0.0,0.0,0.0,0.0,0.0,0.0,0.0,0.0,0.0,0.0,0.0,0.0,0.0,0.0,0.0,0.0,0.0,0.0,0.0,0.0,0.0,0.0,0.0,0.0,0.0,0.0,0.0,0.0,0.0,0.0,0.0,0.0,0.0,0.0,0.0,0.0,0.0,0.4463,0.4463,0.4463,0.4467,0.0,0.0,0.4143,0.3993,0.411,0.0,0.0,0.0,0.0,0.0,0.0,0.0,0.0,0.0,0.0,0.0,0.0,0.0,0.0,0.0,0.0,0.0,0.0,0.0,0.0,0.0,0.0,0.0,0.0,0.0,0.0,0.0,0.0,0.0,0.0,0.0,0.0,0.0,0.0,0.0,0.0,0.0,0.0,0.0,0.0,0.0,0.0,0.0,0.0,0.0,0.0,0.0,0.0,0.0,0.0,0.0,0.0,0.0,0.0,0.0,0.389,0.4609,0.4531,0.4182,0.3556,0.3498,0.3858,0.4477,0.4477,0.4477,0.0,0.0,0.0,0.0,0.0,0.0,0.0,0.0,0.0,0.0,0.0,0.0,0.0,0.0,0.0,0.0,0.0,0.0,0.0,0.0,0.0,0.0,0.0,0.0,0.0,0.0,0.0,0.0,0.0,0.0,0.0,0.0,0.0,0.0,0.0,0.0,0.0,0.0,0.0,0.0,0.0,0.0,0.4463,0.4463,0.0,0.0,0.0,0.417,0.411,0.0,0.0,0.0,0.0,0.0,0.0,0.0,0.0,0.0,0.0,0.0,0.0,0.0,0.0,0.0,0.0,0.0,0.0,0.0,0.0,0.0,0.0,0.0,0.0,0.0,0.0,0.0,0.0,0.0,0.0,0.0,0.0,0.0,0.0,0.0,0.0,0.0,0.0,0.0,0.0,0.0,0.0,0.0,0.0,0.0,0.0,0.0,0.0,0.0,0.0,0.0,0.0,0.0,0.0,0.0,0.0,0.0,0.4759,0.4649,0.4529,0.4516,0.4495,0.4473,0.4473,0.4467,0.0,0.0,0.0,0.0,0.0,0.0,0.0,0.0,0.0,0.0,0.0,0.0,0.0,0.0,0.0,0.0,0.0,0.0,0.0,0.0,0.0,0.0,0.0,0.0,0.0,0.0,0.0,0.3594,0.0,0.0,0.0,0.0,0.0,0.0,0.0,0.0,0.0,0.0,0.0,0.0,0.0,0.0,0.4463,0.4463,0.4463,0.4481,0.0,0.0,0.4251,0.4304,0.4247,0.4324,0.0,0.0,0.0,0.0,0.0,0.0,0.0,0.0,0.0,0.0,0.0,0.0,0.0,0.0,0.0,0.0,0.0,0.0,0.0,0.0,0.0,0.0,0.0,0.0,0.0,0.0,0.0,0.0,0.0,0.0,0.0,0.0,0.0,0.0,0.0,0.0,0.0,0.0,0.0,0.0,0.0,0.0,0.0,0.0,0.0,0.0,0.0,0.0,0.0,0.0,0.0,0.0,0.0,0.0,0.0,0.4694,0.468,0.468,0.4691,0.4541,0.4463,0.4463,0.4463,0.4463,0.0,0.0,0.0,0.0,0.0,0.0,0.0,0.0,0.0,0.0,0.0,0.0,0.0,0.0,0.0,0.0,0.0,0.0,0.0,0.0,0.0,0.0,0.0,0.0,0.0,0.0,0.0,0.0,0.0,0.0,0.0,0.0,0.0,0.0,0.0,0.0,0.0,0.0,0.0,0.0,0.0,0.4463,0.4463,0.4463,0.446,0.0,0.4501,0.4501,0.4446,0.4446,0.4406,0.4231,0.0,0.0,0.0,0.0,0.0,0.0,0.0,0.0,0.0,0.0,0.0,0.0,0.0,0.0,0.0,0.0,0.0,0.0,0.0,0.0,0.0,0.0,0.0,0.0,0.0,0.0,0.0,0.0,0.0,0.0,0.0,0.0,0.0,0.0,0.0,0.0,0.0,0.0,0.0,0.0,0.0,0.0,0.0,0.0,0.0,0.0,0.0,0.0,0.0,0.0,0.0,0.0,0.0,0.4735,0.483,0.4738,0.4738,0.4819,0.4589,0.4463,0.4463,0.4463,0.4463,0.0,0.0,0.0,0.0,0.0,0.0,0.0,0.0,0.0,0.0,0.0,0.0,0.0,0.0,0.0,0.0,0.0,0.0,0.0,0.0,0.0,0.0,0.0,0.0,0.0,0.0,0.0,0.0,0.381,0.408,0.4442,0.0,0.0,0.0,0.0,0.0,0.0,0.0,0.0,0.0,0.0,0.4463,0.4463,0.4463,0.0,0.0,0.4463,0.4463,0.4463,0.4463,0.4498,0.4389,0.4481,0.0,0.0,0.0,0.0,0.0,0.0,0.0,0.0,0.0,0.0,0.0,0.0,0.0,0.0,0.0,0.0,0.0,0.0,0.0,0.0,0.0,0.0,0.0,0.0,0.0,0.0,0.0,0.0,0.0,0.0,0.0,0.0,0.0,0.0,0.0,0.0,0.0,0.0,0.0,0.0,0.0,0.0,0.0,0.0,0.0,0.0,0.0,0.0,0.0,0.0,0.0,0.0,0.4809,0.4918,0.4857,0.4874,0.4979,0.4687,0.4528,0.4528,0.4539,0.4463,0.0,0.0,0.0,0.0,0.0,0.0,0.0,0.0,0.0,0.0,0.0,0.0,0.0,0.0,0.0,0.0,0.0,0.0,0.0,0.0,0.0,0.0,0.0,0.0,0.0,0.0,0.0,0.0,0.3865,0.4031,0.4443,0.0,0.0,0.0,0.0,0.0,0.0,0.0,0.0,0.0,0.0,0.4467,0.4463,0.4467,0.4467,0.4463,0.4463,0.4463,0.4463,0.4463,0.4501,0.4409,0.0,0.0,0.0,0.0,0.0,0.0,0.0,0.0,0.0,0.0,0.0,0.0,0.0,0.0,0.0,0.0,0.0,0.0,0.0,0.0,0.0,0.0,0.0,0.0,0.0,0.0,0.0,0.4463,0.0,0.0,0.4463,0.0,0.0,0.0,0.0,0.0,0.0,0.0,0.0,0.0,0.0,0.0,0.0,0.0,0.0,0.0,0.0,0.0,0.0,0.0,0.0,0.0,0.0,0.4914,0.4921,0.4981,0.5055,0.5118,0.4836,0.4684,0.468,0.4541,0.446,0.4457,0.0,0.0,0.0,0.0,0.0,0.0,0.0,0.0,0.0,0.0,0.0,0.0,0.0,0.0,0.0,0.0,0.0,0.0,0.0,0.0,0.0,0.0,0.0,0.0,0.0,0.0,0.4463,0.4467,0.4471,0.0,0.0,0.0,0.0,0.0,0.0,0.0,0.0,0.0,0.0,0.447,0.4477,0.4405,0.447,0.4473,0.4463,0.4463,0.4463,0.4463,0.4463,0.4419,0.0,0.0,0.0,0.0,0.0,0.0,0.0,0.0,0.0,0.0,0.0,0.0,0.0,0.0,0.0,0.0,0.0,0.0,0.0,0.0,0.0,0.0,0.0,0.0,0.0,0.0,0.0,0.4616,0.4613,0.0,0.0,0.0,0.0,0.0,0.0,0.0,0.0,0.0,0.0,0.0,0.4636,0.4741,0.0,0.0,0.0,0.0,0.0,0.0,0.0,0.0,0.0,0.0,0.0,0.0,0.4918,0.4925,0.5057,0.5068,0.5125,0.4843,0.4694,0.4687,0.4597,0.4416,0.4324,0.0,0.0,0.0,0.0,0.0,0.0,0.0,0.0,0.0,0.0,0.0,0.0,0.0,0.0,0.0,0.0,0.0,0.0,0.0,0.0,0.0,0.0,0.0,0.0,0.0,0.4501,0.0,0.0,0.0,0.0,0.0,0.0,0.0,0.0,0.0,0.0,0.0,0.4463,0.4463,0.4467,0.3785,0.1774,0.3229,0.448,0.0,0.0,0.0,0.0,0.0,0.0,0.0,0.0,0.0,0.0,0.0,0.0,0.0,0.0,0.2128,0.4154,0.2879,0.2136,0.4136,0.0,0.0,0.0,0.0,0.0,0.0,0.0,0.0,0.0,0.0,0.0,0.0,0.0,0.0,0.4769,0.0,0.4769,0.0,0.0,0.0,0.0,0.0,0.0,0.0,0.0,0.4769,0.4823,0.4918,0.4918,0.4918,0.0,0.4969,0.4887,0.0,0.0,0.0,0.0,0.0,0.0,0.0,0.0,0.4992,0.4999,0.5135,0.5213,0.5199,0.4969,0.4819,0.4769,0.4568,0.447,0.4324,0.4321,0.4253,0.0,0.0,0.0,0.0,0.0,0.0,0.0,0.0,0.0,0.0,0.0,0.0,0.0,0.0,0.0,0.0,0.0,0.0,0.0,0.0,0.0,0.0,0.0,0.4463,0.0,0.0,0.0,0.0,0.0,0.0,0.0,0.0,0.0,0.4529,0.4463,0.448,0.4478,0.4497,0.3802,0.1857,0.0,0.0,0.0,0.0,0.0,0.0,0.0,0.4467,0.4477,0.4485,0.4144,0.3137,0.2965,0.2294,0.0335,0.0,0.0,0.2575,0.1339,0.078,0.3246,0.3699,0.3694,0.3694,0.3691,0.3858,0.0,0.0,0.0,0.0,0.0,0.0,0.0,0.0,0.4942,0.4938,0.0,0.4938,0.0,0.0,0.0,0.0,0.4714,0.4718,0.0,0.0,0.4948,0.4884,0.4955,0.4962,0.4952,0.4958,0.5094,0.5155,0.5081,0.5016,0.0,0.0,0.0,0.0,0.0,0.0,0.5078,0.5142,0.5287,0.5432,0.5418,0.5206,0.5057,0.4914,0.4629,0.4525,0.4522,0.4519,0.4399,0.421,0.4194,0.0,0.0,0.0,0.0,0.0,0.0,0.0,0.0,0.0,0.0,0.0,0.0,0.0,0.0,0.0,0.0,0.0,0.0,0.0,0.0,0.4463,0.0,0.0,0.0,0.0,0.0,0.0,0.0,0.0,0.0,0.0,0.4524,0.4539,0.4475,0.4497,0.0,0.0,0.0,0.0,0.2222,0.0584,0.1318,0.2387,0.3188,0.4003,0.451,0.4446,0.0,0.0,0.0674,0.0223,0.0336,0.0168,-0.0,0.0167,0.0337,0.0224,0.0559,0.2127,0.2516,0.2286,0.2173,0.24,0.2847,0.543,0.0,0.0,0.0,0.0,0.5281,0.5355,0.5535,0.5325,0.5237,0.5237,0.5237,0.0,0.0,0.0,0.0,0.0,0.0,0.5254,0.5396,0.5399,0.545,0.5545,0.5549,0.5549,0.5549,0.5589,0.561,0.5606,0.5569,0.5386,0.5077,0.0,0.0,0.0,0.0,0.5406,0.5311,0.5443,0.5471,0.5428,0.5209,0.5064,0.4921,0.4728,0.4626,0.4623,0.4521,0.4498,0.4402,0.4251,0.0,0.0,0.0,0.0,0.0,0.0,0.0,0.0,0.0,0.0,0.0,0.0,0.0,0.0,0.0,0.0,0.0,0.0,0.0,0.4463,0.4463,0.4507,0.0,0.0,0.0,0.0,0.0,0.0,0.0,0.0,0.0,0.4799,0.4789,0.4743,0.0,0.0,0.469,0.455,0.4559,0.4442,0.3892,0.2013,0.0,0.2642,0.4131,0.4694,0.3449,0.392,0.4191,0.3363,0.3237,0.3237,0.3175,0.3179,0.3189,0.3071,0.1416,0.1182,0.3629,0.4169,0.3102,0.1259,0.2267,0.3347,0.5911,0.5858,0.561,0.5589,0.5664,0.5576,0.5637,0.5786,0.5613,0.5538,0.5535,0.5538,0.5454,0.5315,0.5348,0.0,0.0,0.0,0.5532,0.5671,0.5674,0.5722,0.5796,0.58,0.58,0.58,0.58,0.5833,0.5891,0.5891,0.5755,0.5498,0.0,0.0,0.5406,0.5579,0.563,0.561,0.5572,0.5545,0.5518,0.524,0.5091,0.4944,0.4857,0.4755,0.4691,0.4602,0.4524,0.4519,0.4382,0.4372,0.0,0.0,0.0,0.0,0.0,0.0,0.0,0.0,0.0,0.0,0.0,0.4463,0.4463,0.0,0.0,0.0,0.4463,0.4543,0.4604,0.4551,0.0,0.0,0.0,0.0,0.0,0.0,0.0,0.4857,0.5023,0.507,0.5013,0.5057,0.5004,0.4693,0.4826,0.488,0.4879,0.0,0.5406,0.5414,0.3542,0.2541,0.3631,0.4665,0.4968,0.3828,0.4267,0.4752,0.4697,0.4751,0.4877,0.4867,0.4863,0.4743,0.4555,0.2993,0.2361,0.4572,0.4787,0.3843,0.2066,0.3281,0.3916,0.6373,0.6454,0.6047,0.5874,0.5874,0.5871,0.5874,0.5871,0.5861,0.5857,0.585,0.5844,0.5766,0.5637,0.5494,0.0,0.5647,0.5654,0.5735,0.5857,0.5864,0.5874,0.5874,0.5878,0.5871,0.5878,0.5874,0.5945,0.6081,0.6074,0.6071,0.6078,0.5918,0.5833,0.582,0.583,0.583,0.5817,0.5691,0.562,0.5603,0.5318,0.5105,0.5165,0.5016,0.487,0.4735,0.4714,0.464,0.4549,0.4536,0.4529,0.4519,0.0,0.0,0.0,0.0,0.0,0.0,0.0,0.0,0.0,0.0,0.0,0.0,0.0,0.0,0.0,0.4536,0.0,0.4796,0.4632,0.0,0.0,0.0,0.5312,0.503,0.5077,0.5108,0.4999,0.0,0.0,0.5203,0.5308,0.5342,0.5003,0.4988,0.5064,0.5392,0.5414,0.5417,0.5428,0.5349,0.5369,0.5209,0.5359,0.5318,0.5057,0.5297,0.5248,0.5006,0.5164,0.5341,0.5355,0.5395,0.5251,0.4684,0.4491,0.454,0.4582,0.4582,0.4513,0.4349,0.4435,0.4485,0.6617,0.6637,0.6529,0.6485,0.6488,0.6488,0.6488,0.6478,0.6359,0.6312,0.6305,0.6196,0.6132,0.6173,0.6064,0.6067,0.6108,0.6213,0.6281,0.6318,0.6434,0.6485,0.6485,0.6485,0.6488,0.6488,0.6488,0.6505,0.6536,0.6424,0.6427,0.6522,0.6281,0.6095,0.5983,0.6091,0.6095,0.5976,0.5942,0.5867,0.5749,0.5576,0.5477,0.5481,0.522,0.5064,0.5023,0.4921,0.4796,0.4643,0.4636,0.4585,0.4525,0.4463,0.0,0.0,0.0,0.0,0.0,0.0,0.0,0.0,0.0,0.4463,0.4463,0.0,0.4567,0.0,0.4636,0.4711,0.4807,0.481,0.0,0.0,0.5305,0.5443,0.5593,0.5425,0.5382,0.5572,0.5727,0.5825,0.5647,0.5674,0.5681,0.5497,0.5349,0.527,0.537,0.5373,0.5373,0.5387,0.5415,0.5432,0.5372,0.5435,0.5359,0.5318,0.5377,0.5363,0.5329,0.5325,0.539,0.538,0.5417,0.535,0.521,0.521,0.5209,0.5171,0.497,0.4803,0.476,0.469,0.4689,0.6742,0.68,0.6803,0.6837,0.6885,0.6759,0.6702,0.6695,0.661,0.6576,0.6569,0.6491,0.6458,0.6454,0.6454,0.6454,0.6464,0.6539,0.6573,0.658,0.6661,0.6702,0.6702,0.6702,0.6702,0.6702,0.6702,0.6702,0.6695,0.6614,0.6617,0.6698,0.6539,0.6413,0.6332,0.6346,0.6315,0.6227,0.6095,0.5956,0.5806,0.5725,0.5657,0.5589,0.5426,0.527,0.5135,0.5057,0.4914,0.4707,0.4694,0.4619,0.4525,0.4463,0.4463,0.0,0.0,0.0,0.0,0.0,0.0,0.0,0.0,0.0,0.0,0.0,0.4626,0.4779,0.4792,0.4819,0.4941,0.4884,0.5044,0.5345,0.5488,0.5657,0.5779,0.5641,0.562,0.5783,0.5875,0.5875,0.58,0.58,0.58,0.5728,0.5661,0.5555,0.5415,0.5415,0.5415,0.5559,0.5483,0.5391,0.5403,0.5464,0.5437,0.5442,0.5428,0.5428,0.5428,0.5428,0.5428,0.5422,0.5425,0.5434,0.5431,0.5434,0.5403,0.5407,0.5244,0.5064,0.4884,0.4807,0.4765,0.6834,0.6956,0.6956,0.7037,0.7149,0.6892,0.6776,0.6756,0.6756,0.6746,0.6732,0.6732,0.6719,0.6702,0.6702,0.6702,0.6702,0.6719,0.6732,0.6729,0.6746,0.6756,0.6756,0.6759,0.6756,0.6756,0.6756,0.6759,0.6756,0.6739,0.6739,0.6756,0.6715,0.6719,0.6746,0.6607,0.6522,0.6495,0.6227,0.602,0.5888,0.585,0.5772,0.565,0.561,0.5467,0.5203,0.5169,0.5033,0.4769,0.4745,0.467,0.4556,0.4494,0.4539,0.0,0.4536,0.0,0.0,0.0,0.0,0.0,0.0,0.0,0.0,0.4738,0.4792,0.4908,0.4938,0.4996,0.5118,0.5001,0.5067,0.5372,0.5648,0.5818,0.5863,0.583,0.5837,0.5857,0.5861,0.5861,0.5871,0.5861,0.5861,0.5878,0.5874,0.5788,0.563,0.5519,0.563,0.5803,0.5653,0.5509,0.557,0.5616,0.5576,0.5454,0.5413,0.5393,0.5399,0.5376,0.5428,0.5428,0.5422,0.5422,0.5428,0.5422,0.5425,0.5408,0.5404,0.5254,0.5023,0.4901,0.4876,0.7071,0.7014,0.7099,0.719,0.7322,0.7268,0.7173,0.7058,0.7058,0.699,0.6888,0.6885,0.6817,0.6702,0.6702,0.6702,0.6709,0.6831,0.6888,0.6888,0.7004,0.7058,0.7054,0.7058,0.7054,0.7058,0.7054,0.7058,0.7054,0.6939,0.6943,0.7048,0.6817,0.682,0.7037,0.0,0.0,0.0,0.6478,0.6373,0.6339,0.6112,0.5973,0.5942,0.5711,0.0,0.5504,0.5382,0.5233,0.506,0.5047,0.0,0.0,0.0,0.0,0.0,0.0,0.0,0.0,0.0,0.0,0.0,0.485,0.4847,0.4877,0.4982,0.5013,0.4931,0.5023,0.5101,0.5065,0.5001,0.5042,0.5368,0.5645,0.5899,0.6138,0.6046,0.603,0.6159,0.6173,0.6173,0.6159,0.6173,0.6166,0.6156,0.6169,0.6173,0.6086,0.6113,0.6111,0.6172,0.5899,0.5803,0.6061,0.5912,0.5752,0.5708,0.5544,0.5411,0.5391,0.543,0.5432,0.5428,0.5428,0.5432,0.5428,0.5428,0.5369,0.5428,0.5428,0.5308,0.5131,0.5169,0.5172,0.7366,0.7366,0.7366,0.7414,0.0,0.7485,0.7441,0.737,0.7366,0.7326,0.7261,0.7261,0.7217,0.7143,0.7146,0.7102,0.7034,0.7115,0.7105,0.7041,0.7105,0.7139,0.7139,0.7139,0.7139,0.7139,0.7139,0.7139,0.7136,0.6981,0.6984,0.7139,0.699,0.6993,0.7132,0.7068,0.6959,0.6814,0.6664,0.6549,0.6471,0.6325,0.6179,0.6034,0.5884,0.0,0.0,0.0,0.0,0.0,0.0,0.0,0.0,0.521,0.0,0.4752,0.5163,0.5266,0.4865,0.4877,0.4952,0.4957,0.5094,0.5104,0.503,0.5159,0.5216,0.5148,0.5203,0.5274,0.5348,0.5223,0.5171,0.5377,0.5762,0.6099,0.6236,0.6177,0.6173,0.624,0.6261,0.6261,0.6261,0.6261,0.6261,0.6261,0.6261,0.6261,0.6251,0.6291,0.6261,0.6257,0.6179,0.6074,0.6236,0.6065,0.5881,0.5806,0.5684,0.553,0.5448,0.5393,0.5428,0.5432,0.5487,0.5592,0.5449,0.5416,0.5383,0.5382,0.5428,0.5536,0.5762,0.5632,0.5301,0.7597,0.7597,0.7597,0.7611,0.7638,0.7638,0.7655,0.7672,0.0,0.0,0.0,0.7597,0.7597,0.7597,0.7597,0.7529,0.7414,0.7411,0.7343,0.7221,0.7221,0.7131,0.7221,0.7224,0.7207,0.718,0.718,0.7166,0.7139,0.7139,0.7139,0.7139,0.7139,0.7139,0.7139,0.7316,0.7341,0.7221,0.6901,0.6761,0.6877,0.6841,0.677,0.6636,0.6603,0.6581,0.6345,0.6257,0.6101,0.5933,0.56,0.5385,0.5211,0.5856,0.59,0.5218,0.584,0.5917,0.5197,0.5044,0.5047,0.5165,0.5287,0.5308,0.5179,0.5291,0.5428,0.5428,0.5428,0.549,0.5572,0.5517,0.551,0.5453,0.5956,0.6268,0.6303,0.6259,0.6254,0.6261,0.6261,0.6261,0.6261,0.6261,0.6261,0.6261,0.6261,0.6261,0.6261,0.6325,0.6307,0.6307,0.6294,0.6276,0.6266,0.6149,0.602,0.5922,0.5926,0.5814,0.557,0.545,0.5413,0.5413,0.5583,0.573,0.5582,0.5525,0.5434,0.5464,0.578,0.61,0.6511,0.6294,0.5799,0.76,0.7597,0.7597,0.7672,0.778,0.7784,0.7855,0.7953,0.7709,0.76,0.7597,0.7597,0.7597,0.7597,0.7597,0.7587,0.7567,0.7567,0.7553,0.7536,0.7533,0.7536,0.7533,0.7533,0.7465,0.7346,0.7339,0.7268,0.7153,0.7139,0.7139,0.7143,0.7139,0.7143,0.7228,0.8101,0.8615,0.8591,0.7483,0.7388,0.8359,0.8205,0.8506,0.9145,0.9032,0.8911,0.8626,0.8411,0.826,0.7986,0.7216,0.6647,0.6249,0.6291,0.6273,0.6069,0.6256,0.6283,0.6166,0.5671,0.5308,0.5328,0.5415,0.5418,0.5335,0.5415,0.5428,0.5428,0.5428,0.5423,0.5566,0.5669,0.5708,0.5728,0.6094,0.6314,0.628,0.6321,0.6261,0.6261,0.6261,0.6261,0.6261,0.6261,0.6261,0.6261,0.6261,0.6261,0.6261,0.6261,0.6261,0.6261,0.6261,0.6251,0.6297,0.6304,0.62,0.6203,0.6204,0.6086,0.5782,0.558,0.5497,0.5415,0.5596,0.5876,0.6062,0.5744,0.5661,0.5927,0.7057,0.7873,0.7282,0.7359,0.7201,0.7834,0.7838,0.7838,0.7875,0.7936,0.7933,0.7974,0.8028,0.7899,0.7841,0.7838,0.7838,0.7838,0.7838,0.7838,0.779,0.7716,0.7716,0.7672,0.76,0.7597,0.7597,0.7597,0.7597,0.7567,0.7492,0.7411,0.7336,0.7265,0.7183,0.7183,0.7348,0.7882,0.8147,0.8228,0.9279,0.984,0.9836,0.9229,0.9132,0.9606,0.9511,0.9557,0.9713,0.9674,0.9519,0.9224,0.9067,0.8898,0.8795,0.7771,0.7353,0.7645,0.71,0.6994,0.7564,0.7579,0.7373,0.6899,0.6104,0.5599,0.5599,0.5599,0.5599,0.5599,0.5454,0.5428,0.5428,0.5428,0.5525,0.5677,0.5775,0.5827,0.6046,0.6232,0.6263,0.6321,0.6261,0.6261,0.6261,0.6261,0.6261,0.6261,0.6261,0.6261,0.6261,0.6261,0.6261,0.6261,0.6261,0.6261,0.6261,0.6261,0.6261,0.6261,0.6261,0.6261,0.6261,0.6287,0.6275,0.6098,0.5916,0.5728,0.5493,0.5616,0.5933,0.6242,0.605,0.639,0.7633,0.8279,0.8785,0.8741,0.9386,0.9485,0.8038,0.8038,0.8038,0.8038,0.8038,0.8038,0.8038,0.8038,0.8038,0.8038,0.8038,0.8038,0.8038,0.8038,0.8038,0.7974,0.7872,0.7862,0.7804,0.7706,0.7699,0.7699,0.7699,0.7699,0.7682,0.7641,0.7526,0.7458,0.7411,0.7299,0.7302,0.7499,0.8284,0.8886,0.9152,1.0157,1.0753,1.0961,1.1214,1.1209,1.0858,1.0852,1.0712,1.0532,1.0494,1.0357,0.9986,0.9865,0.9818,0.9685,0.8643,0.8387,0.8974,0.8272,0.8131,0.8969,0.8974,0.8413,0.7349,0.6358,0.5789,0.58,0.58,0.58,0.5783,0.5596,0.5528,0.546,0.5474,0.5576,0.58,0.5778,0.5889,0.622,0.6261,0.6254,0.6261,0.6261,0.6261,0.6261,0.6261,0.6261,0.6261,0.6261,0.6261,0.6261,0.6261,0.6261,0.6261,0.6261,0.6261,0.6261,0.6261,0.6261,0.6261,0.6261,0.6261,0.6261,0.6325,0.6266,0.6225,0.6257,0.6147,0.5844,0.6288,0.6526,0.6451,0.6247,0.7044,0.8544,0.9574,1.0194,1.0544,1.095,1.1325,0.8038,0.8038,0.8038,0.8038,0.8038,0.8038,0.8038,0.8038,0.8038,0.8038,0.8038,0.8038,0.8038,0.8038,0.8038,0.8028,0.8011,0.8018,0.8001,0.7991,0.7997,0.8001,0.7984,0.7991,0.7926,0.7804,0.7763,0.7685,0.7584,0.756,0.756,0.7563,0.7622,0.8185,0.9062,1.0211,1.1252,1.2163,1.3209,1.3281,1.2207,1.2122,1.2391,1.2863,1.2844,1.2576,1.1968,1.205,1.1913,1.1605,1.0761,1.0136,1.0003,0.9829,0.9829,0.9974,0.9974,0.9179,0.7495,0.647,0.5919,0.5796,0.5817,0.582,0.5817,0.5783,0.5759,0.5755,0.5759,0.5813,0.5983,0.5851,0.5914,0.6227,0.6261,0.6261,0.6261,0.6261,0.6261,0.6261,0.6261,0.6261,0.6261,0.6261,0.6261,0.6261,0.6261,0.6261,0.6338,0.657,0.6732,0.6574,0.6416,0.6335,0.6338,0.6338,0.6412,0.6412,0.6325,0.6371,0.6398,0.6296,0.6327,0.7396,0.7915,0.8373,0.7237,0.6381,0.7187,0.9244,1.0713,1.1916,1.2025,1.1766,1.1335,0.8038,0.8038,0.8038,0.8038,0.8038,0.8038,0.8038,0.8038,0.8038,0.8038,0.8038,0.8038,0.8038,0.8038,0.8038,0.8038,0.8038,0.8038,0.8038,0.8038,0.8038,0.8038,0.8038,0.8038,0.8004,0.794,0.7858,0.7784,0.7736,0.7723,0.7723,0.7815,0.8317,0.8881,0.9325,1.101,1.1975,1.2339,1.3464,1.3822,1.3464,1.3385,1.3374,1.3419,1.33,1.3019,1.2599,1.2398,1.2251,1.2058,1.123,1.0961,1.1369,1.0266,1.0199,1.1213,1.0611,0.9947,0.9369,0.7421,0.6396,0.6954,0.6442,0.6074,0.6074,0.6071,0.6071,0.6051,0.5908,0.5864,0.5932,0.5878,0.5937,0.6224,0.6261,0.6261,0.6261,0.6261,0.6261,0.6261,0.6261,0.6335,0.6261,0.6261,0.6261,0.6261,0.6257,0.6257,0.6335,0.7277,0.8548,0.9366,0.8923,0.7561,0.6721,0.6872,0.7096,0.7246,0.7383,0.7367,0.6558,0.6287,0.6911,0.9275,1.0278,1.0662,1.0215,0.8801,0.8718,1.0455,1.1353,1.2264,1.2311,1.2118,1.1807,0.8038,0.8038,0.8038,0.8038,0.8038,0.8038,0.8038,0.8038,0.8038,0.8038,0.8038,0.8038,0.8038,0.8038,0.8038,0.8038,0.8038,0.8038,0.8038,0.8038,0.8038,0.8038,0.8038,0.8038,0.8038,0.8021,0.7929,0.7875,0.7868,0.7824,0.7831,0.7955,0.8694,0.9271,0.9974,1.1556,1.2497,1.2991,1.3756,1.4168,1.4102,1.4088,1.3941,1.3661,1.344,1.3186,1.2886,1.2665,1.2552,1.2552,1.1847,1.1771,1.2395,1.1105,1.0871,1.2003,1.1063,1.0461,1.0708,0.833,0.7275,0.8003,0.7249,0.6721,0.6641,0.649,0.6261,0.6237,0.6057,0.5986,0.6067,0.6016,0.6069,0.6244,0.6261,0.6261,0.6261,0.6261,0.6261,0.6338,0.6563,0.6718,0.6644,0.649,0.6254,0.6318,0.6318,0.6311,0.6538,0.7944,0.9948,1.1796,1.0562,0.8937,0.7642,0.7791,0.8241,0.8313,0.8523,0.8424,0.753,0.7522,0.8138,1.098,1.1947,1.2185,1.1521,1.0726,1.0196,1.1596,1.2271,1.2305,1.2305,1.2291,1.2291,0.8038,0.8038,0.8038,0.8038,0.8038,0.8038,0.8038,0.8038,0.8038,0.8038,0.8038,0.8038,0.8038,0.8038,0.8038,0.8038,0.8038,0.8038,0.8038,0.8038,0.8038,0.8038,0.8038,0.8038,0.8041,0.8233,0.8315,0.8305,0.8206,0.7885,0.7889,0.811,0.8279,0.9236,1.0995,1.1536,1.2545,1.3993,1.4376,1.4362,1.4128,1.4088,1.3948,1.3612,1.3546,1.3467,1.3227,1.3173,1.3153,1.316,1.3048,1.3061,1.3126,1.2789,1.2434,1.2203,1.1069,1.0456,1.0628,0.9326,0.8576,0.8988,0.8313,0.7706,0.7706,0.7026,0.6567,0.6338,0.6377,0.6371,0.6244,0.623,0.6234,0.6254,0.6261,0.6261,0.6261,0.6261,0.6261,0.6412,0.6945,0.7326,0.7557,0.6872,0.6398,0.6294,0.6357,0.6583,0.7179,0.8353,1.0209,1.1356,1.0848,0.9533,0.9878,0.9473,0.9226,0.9372,0.9685,1.0008,1.024,1.0547,1.1496,1.2114,1.2243,1.2291,1.2251,1.2164,1.1929,1.2325,1.2325,1.2305,1.2305,1.2305,1.2305,0.8038,0.8038,0.8038,0.8038,0.8038,0.8038,0.8038,0.8038,0.8038,0.8038,0.8038,0.8038,0.8038,0.8038,0.8038,0.8038,0.8038,0.8038,0.8038,0.8038,0.8038,0.8038,0.8038,0.8825,0.9312,0.9414,1.0096,1.0485,1.0382,0.9637,0.9637,1.0364,1.0418,1.0894,1.1632,1.235,1.2957,1.341,1.4067,1.4376,1.4128,1.4088,1.4035,1.3921,1.3734,1.3601,1.3487,1.3313,1.3206,1.3206,1.3206,1.3206,1.318,1.2919,1.2782,1.2585,1.1938,1.1607,1.1694,1.1204,1.0674,1.019,0.9367,0.877,0.8689,0.8389,0.7936,0.7399,0.7249,0.7057,0.6513,0.6318,0.6261,0.6261,0.6261,0.6271,0.6261,0.6261,0.6261,0.6335,0.6644,0.6795,0.6883,0.649,0.6331,0.6398,0.7354,0.8453,0.9866,1.0808,1.1495,1.1934,1.1708,1.126,1.1496,1.0812,1.0346,1.0496,1.0807,1.1267,1.1571,1.1521,1.2168,1.2216,1.2318,1.2311,1.2311,1.2311,1.2305,1.2305,1.2305,1.2305,1.2305,1.2305,1.2305,0.8038,0.8038,0.8038,0.8038,0.8038,0.8038,0.8038,0.8038,0.8038,0.8038,0.8038,0.8038,0.8038,0.8038,0.8038,0.8038,0.8038,0.8038,0.8237,0.863,0.8627,0.8821,0.941,1.019,1.0583,1.0681,1.1458,1.1945,1.1848,1.1072,1.1072,1.1848,1.1945,1.2068,1.2501,1.3231,1.3477,1.3777,1.4435,1.4629,1.4289,1.4229,1.4175,1.4075,1.3888,1.3788,1.3781,1.3594,1.3494,1.3494,1.3494,1.3447,1.334,1.3153,1.2993,1.2886,1.2222,1.2112,1.2421,1.2011,1.157,1.1446,1.0455,0.982,0.9744,0.9523,0.8993,0.8466,0.8241,0.8005,0.7501,0.6905,0.6397,0.6297,0.6317,0.6321,0.64,0.6407,0.6565,0.6889,0.6658,0.6627,0.6727,0.6567,0.6369,0.6314,0.7569,0.8913,1.0046,1.164,1.2329,1.2324,1.2271,1.2083,1.209,1.1558,1.126,1.149,1.1615,1.2188,1.2338,1.2365,1.2291,1.2325,1.2305,1.2305,1.2305,1.2305,1.2305,1.2305,1.2305,1.2305,1.2305,1.2305,1.2305,0.8038,0.8038,0.8038,0.8038,0.8038,0.8038,0.8038,0.8038,0.8038,0.8038,0.8233,0.8137,0.8333,0.8233,0.8333,0.8137,0.8333,0.8333,0.8726,0.9509,0.9706,1.0288,1.1165,1.1361,1.175,1.1945,1.1945,1.2042,1.2237,1.2047,1.2042,1.2042,1.2237,1.2898,1.3866,1.4023,1.4395,1.5002,1.5304,1.5064,1.4603,1.4522,1.4416,1.4182,1.4135,1.4115,1.4088,1.4055,1.4008,1.4028,1.4028,1.3935,1.3681,1.3587,1.3487,1.3081,1.1848,1.1842,1.2805,1.1684,1.1634,1.2113,1.1476,1.083,1.0767,1.0165,0.9559,0.9418,0.9362,0.9351,0.9198,0.8007,0.6849,0.6384,0.6378,0.6542,0.6908,0.6767,0.7098,0.7885,0.7542,0.7186,0.7545,0.7391,0.6913,0.6506,0.676,0.7374,0.8337,1.072,1.2109,1.2371,1.2465,1.2538,1.2425,1.2318,1.2264,1.2304,1.2401,1.2701,1.254,1.2425,1.235,1.2317,1.2311,1.2305,1.2305,1.2305,1.2305,1.2305,1.2305,1.2305,1.2305,1.2305,1.2305,0.8038,0.8038,0.8038,0.8038,0.8038,0.8038,0.8038,0.8038,0.8038,0.8531,0.9213,0.941,0.9801,1.0288,0.9805,0.9805,1.0583,0.9805,0.9118,0.8825,0.8726,0.9019,0.9509,1.019,1.1556,1.3006,1.3295,1.3782,1.4274,1.3686,1.3686,1.437,1.4567,1.4765,1.514,1.5235,1.5396,1.5338,1.5398,1.5204,1.4863,1.4823,1.4776,1.471,1.4689,1.4603,1.4396,1.4195,1.4095,1.4088,1.4088,1.4041,1.3935,1.3748,1.3526,1.3419,1.2888,1.2619,1.3041,1.3061,1.2746,1.2716,1.217,1.1974,1.2132,1.1834,1.13,1.0787,1.0757,1.0745,0.9917,0.9461,0.8483,0.676,0.676,0.7718,0.9023,0.9087,0.9222,0.9466,0.9308,0.9214,0.9063,0.8695,0.8047,0.6812,0.7475,0.8505,1.0264,1.1593,1.2882,1.2899,1.2906,1.2832,1.2779,1.2795,1.2775,1.2712,1.2819,1.2916,1.2741,1.2632,1.2454,1.2309,1.2304,1.2318,1.2318,1.2305,1.2305,1.2305,1.2305,1.2305,1.2305,1.2305,1.2305,0.8038,0.8038,0.8038,0.8333,0.8726,0.8726,0.9019,0.9406,0.9406,0.9895,1.0583,1.0681,1.1165,1.1658,1.1072,1.117,1.175,1.1068,1.0288,0.9702,1.0092,1.0186,1.028,1.0965,1.2522,1.4268,1.4657,1.5045,1.573,1.5045,1.5045,1.5635,1.5825,1.573,1.5825,1.5825,1.5725,1.5578,1.5558,1.5418,1.5184,1.5124,1.5077,1.497,1.4856,1.471,1.4509,1.4242,1.4088,1.4088,1.4088,1.4088,1.4068,1.3908,1.3808,1.3774,1.3654,1.3547,1.3615,1.3817,1.3839,1.3192,1.2804,1.266,1.2913,1.2919,1.2602,1.2167,1.2116,1.2024,1.1462,1.1243,1.0677,0.9679,0.9737,1.0362,1.1538,1.0912,1.0383,1.031,1.0216,1.0249,1.0014,0.9938,0.9329,0.7991,0.8508,0.9993,1.1793,1.2928,1.3304,1.3403,1.3155,1.3084,1.3146,1.3205,1.3243,1.3178,1.3133,1.3138,1.3074,1.2876,1.2752,1.2387,1.2287,1.233,1.2311,1.2325,1.2305,1.2305,1.2305,1.2305,1.2305,1.2305,1.2305,0.8038,0.8038,0.8038,0.8726,0.9805,0.9903,1.0485,1.1653,1.175,1.175,1.1945,1.2042,1.2139,1.2139,1.2139,1.2237,1.2139,1.2134,1.2139,1.2431,1.3102,1.3392,1.3006,1.3193,1.407,1.514,1.554,1.573,1.5832,1.5635,1.5825,1.5825,1.5825,1.5825,1.5825,1.5825,1.5818,1.5792,1.5798,1.5658,1.5431,1.5418,1.5291,1.503,1.4796,1.4629,1.4496,1.4249,1.4088,1.4088,1.4088,1.4088,1.4088,1.4088,1.4062,1.4048,1.4075,1.4028,1.4092,1.4083,1.3913,1.3554,1.3347,1.3233,1.3233,1.3227,1.3154,1.3074,1.314,1.3233,1.3241,1.3168,1.3176,1.3853,1.3281,1.3487,1.378,1.2129,1.1321,1.107,1.0844,1.0766,1.0829,1.0792,1.0392,0.9857,0.9841,1.0937,1.2111,1.336,1.3891,1.3863,1.3512,1.3486,1.3514,1.3568,1.3615,1.3581,1.348,1.3413,1.3338,1.3187,1.3167,1.2804,1.24,1.2352,1.2315,1.2282,1.2277,1.2305,1.2305,1.2305,1.2305,1.2305,1.2305,0.8038,0.8038,0.8038,0.8825,0.9899,1.0002,1.0779,1.1848,1.1945,1.2624,1.3199,1.3392,1.3878,1.4561,1.3782,1.3884,1.4274,1.3782,1.398,1.4758,1.5045,1.4076,1.3011,1.3488,1.407,1.4561,1.5439,1.5825,1.5825,1.5825,1.5825,1.5825,1.5825,1.5825,1.5825,1.5825,1.5825,1.5825,1.5825,1.5798,1.5725,1.5698,1.5571,1.5311,1.519,1.493,1.4556,1.4242,1.4088,1.4088,1.4088,1.4088,1.4088,1.4088,1.4088,1.4088,1.4088,1.4088,1.4075,1.4105,1.3964,1.3674,1.3506,1.3453,1.3534,1.3527,1.3527,1.3567,1.3707,1.3781,1.3639,1.3745,1.3904,1.4062,1.4064,1.4097,1.3992,1.36,1.3215,1.3215,1.3039,1.2903,1.2652,1.2529,1.2437,1.2111,1.2049,1.2265,1.3246,1.3635,1.4102,1.4138,1.3917,1.3917,1.3854,1.3911,1.3924,1.3978,1.3821,1.3647,1.3615,1.3566,1.3725,1.3724,1.2909,1.2713,1.2439,1.2316,1.2348,1.2291,1.2311,1.2311,1.2305,1.2305,1.2305,0.8038,0.8038,0.8038,0.8726,0.9998,1.0583,1.1556,1.2716,1.3301,1.398,1.4561,1.4752,1.5146,1.5635,1.5051,1.5045,1.5635,1.5045,1.5146,1.5629,1.573,1.4949,1.398,1.3974,1.4166,1.4752,1.5439,1.573,1.5825,1.5825,1.5825,1.5825,1.5825,1.5825,1.5825,1.5825,1.5825,1.5825,1.5825,1.5825,1.5825,1.5825,1.5752,1.5571,1.5471,1.5124,1.4576,1.4235,1.4088,1.4088,1.4088,1.4088,1.4088,1.4088,1.4088,1.4088,1.4088,1.4088,1.4088,1.4088,1.4015,1.3874,1.3745,1.3828,1.3828,1.3828,1.3828,1.3854,1.4008,1.3981,1.3908,1.3995,1.4075,1.4088,1.4088,1.4088,1.4088,1.4088,1.4088,1.4088,1.4075,1.4041,1.3834,1.3734,1.3587,1.3541,1.3346,1.3595,1.3967,1.4097,1.4117,1.4065,1.4115,1.4069,1.398,1.398,1.389,1.3985,1.4038,1.3897,1.3823,1.3844,1.3925,1.3911,1.3333,1.2968,1.2909,1.2685,1.2322,1.228,1.2324,1.2325,1.2325,1.2519,1.2452,0.8038,0.8233,0.8233,0.9015,1.0583,1.1653,1.2915,1.4166,1.514,1.5635,1.573,1.573,1.573,1.5825,1.5635,1.573,1.5825,1.5629,1.573,1.5825,1.5825,1.5534,1.5343,1.4561,1.4848,1.5534,1.573,1.5825,1.5825,1.5825,1.5825,1.5825,1.5825,1.5825,1.5825,1.5825,1.5825,1.5825,1.5825,1.5825,1.5825,1.5825,1.5772,1.5645,1.5331,1.497,1.4522,1.4222,1.4088,1.4088,1.4088,1.4088,1.4088,1.4088,1.4088,1.4088,1.4088,1.4088,1.4088,1.4088,1.4088,1.4048,1.4055,1.4088,1.4048,1.4035,1.4035,1.4028,1.4082,1.4068,1.4062,1.4088,1.4088,1.4088,1.4088,1.4088,1.4088,1.4088,1.4088,1.4088,1.4088,1.4088,1.4021,1.3881,1.3687,1.3473,1.3628,1.3797,1.3831,1.3852,1.4008,1.4108,1.4076,1.413,1.4097,1.4084,1.3912,1.387,1.4047,1.4041,1.3981,1.4047,1.4027,1.3897,1.3639,1.3649,1.3694,1.3284,1.2815,1.247,1.2556,1.241,1.2358,1.2753,1.2879,0.8627,0.9604,0.9604,1.097,1.2904,1.3392,1.4172,1.5242,1.5635,1.5825,1.5825,1.5825,1.5825,1.5825,1.5825,1.5825,1.5825,1.5825,1.5825,1.5825,1.5825,1.5825,1.573,1.5337,1.5534,1.5825,1.5825,1.5825,1.5825,1.5825,1.5825,1.5825,1.5825,1.5825,1.5825,1.5825,1.5825,1.5825,1.5825,1.5825,1.5825,1.5818,1.5725,1.5504,1.503,1.4583,1.4269,1.4115,1.4088,1.4088,1.4088,1.4088,1.4088,1.4088,1.4088,1.4088,1.4088,1.4088,1.4088,1.4088,1.4088,1.4088,1.4088,1.4088,1.4088,1.4088,1.4088,1.4088,1.4088,1.4088,1.4088,1.4088,1.4088,1.4088,1.4088,1.4088,1.4088,1.4088,1.4088,1.4088,1.4088,1.4088,1.4082,1.4015,1.3771,1.3523,1.3499,1.3622,1.3669,1.3635,1.3756,1.3888,1.4131,1.4083,1.4056,1.4096,1.3966,1.3768,1.3904,1.4088,1.4112,1.4082,1.4092,1.4085,1.4015,1.4083,1.4089,1.4363,1.3985,1.3427,1.2903,1.2743,1.2783,1.3015,1.3717,1.0288,1.0779,1.0288,1.0774,1.2032,1.2716,1.3301,1.4178,1.5343,1.5825,1.5825,1.5825,1.5825,1.5825,1.5825,1.5825,1.5825,1.5825,1.5825,1.5825,1.5825,1.5825,1.5825,1.5825,1.5825,1.5825,1.5825,1.5825,1.5825,1.5825,1.5825,1.5825,1.5825,1.5825,1.5825,1.5825,1.5825,1.5825,1.5825,1.5825,1.5825,1.5818,1.5691,1.5398,1.4963,1.4589,1.4335,1.4155,1.4102,1.4088,1.4088,1.4088,1.4088,1.4088,1.4088,1.4088,1.4088,1.4088,1.4088,1.4088,1.4088,1.4088,1.4088,1.4088,1.4088,1.4088,1.4088,1.4088,1.4088,1.4088,1.4088,1.4088,1.4088,1.4088,1.4088,1.4088,1.4088,1.4088,1.4088,1.4088,1.4088,1.4088,1.4075,1.3988,1.3926,1.3729,1.2853,1.2981,1.3059,1.3072,1.3395,1.3629,1.3919,1.4097,1.4018,1.3968,1.3971,1.3758,1.3738,1.3921,1.4035,1.4068,1.4082,1.4075,1.4062,1.4142,1.42,1.4597,1.524,1.494,1.4403,1.3611,1.3241,1.3738,1.4816,1.2042,1.2139,1.1068,1.0681,1.1068,1.2134,1.2818,1.3011,1.4765,1.5825,1.5825,1.5825,1.5825,1.5825,1.5825,1.5825,1.5825,1.5825,1.5825,1.5825,1.5825,1.5825,1.5825,1.5825,1.5825,1.5825,1.5825,1.5825,1.5825,1.5825,1.5825,1.5825,1.5825,1.5825,1.5825,1.5825,1.5825,1.5825,1.5825,1.5825,1.5825,1.5812,1.5665,1.5291,1.5077,1.473,1.4416,1.4202,1.4088,1.4088,1.4088,1.4088,1.4088,1.4088,1.4088,1.4088,1.4088,1.4088,1.4088,1.4088,1.4088,1.4088,1.4088,1.4088,1.4088,1.4088,1.4088,1.4088,1.4088,1.4088,1.4088,1.4088,1.4088,1.4088,1.4088,1.4088,1.4088,1.4088,1.4088,1.4088,1.4075,1.4068,1.3941,1.3821,1.3878,1.3784,1.2923,1.2384,1.2539,1.2901,1.3352,1.3289,1.351,1.3884,1.3975,1.4048,1.3975,1.3851,1.3715,1.3864,1.4048,1.4068,1.4082,1.4068,1.4119,1.4192,1.4875,1.6056,1.642,1.6343,1.5664,1.4677,1.4413,1.4522,1.5664,1.2528,1.3584,1.3392,1.3878,1.4758,1.5051,1.4956,1.5153,1.554,1.5825,1.5825,1.5825,1.5825,1.5825,1.5825,1.5825,1.5825,1.5825,1.5825,1.5825,1.5825,1.5825,1.5825,1.5825,1.5825,1.5825,1.5825,1.5825,1.5825,1.5825,1.5825,1.5825,1.5825,1.5825,1.5825,1.5825,1.5825,1.5825,1.5825,1.5825,1.5825,1.5798,1.5571,1.5157,1.4997,1.4696,1.4295,1.4128,1.4088,1.4088,1.4088,1.4088,1.4088,1.4088,1.4088,1.4088,1.4088,1.4088,1.4088,1.4088,1.4088,1.4088,1.4088,1.4088,1.4088,1.4088,1.4088,1.4088,1.4088,1.4088,1.4088,1.4088,1.4088,1.4088,1.4088,1.4088,1.4088,1.4088,1.4088,1.4088,1.4062,1.3995,1.3848,1.3667,1.3675,1.3581,1.3142,1.2551,1.2361,1.3034,1.3843,1.3541,1.3104,1.3546,1.384,1.4055,1.4048,1.4041,1.3924,1.3924,1.4075,1.4082,1.4075,1.4105,1.4219,1.4393,1.5509,1.7321,1.7735,1.7643,1.673,1.5667,1.5707,1.5824,1.6385,1.4274,1.4752,1.4166,1.4262,1.4752,1.4848,1.4854,1.4956,1.5534,1.5825,1.5825,1.5825,1.5825,1.5825,1.5825,1.5825,1.5825,1.5825,1.5825,1.5825,1.5825,1.5825,1.5825,1.5825,1.5825,1.5825,1.5825,1.5825,1.5825,1.5825,1.5825,1.5825,1.5825,1.5825,1.5825,1.5825,1.5825,1.5825,1.5825,1.5825,1.5825,1.5825,1.5518,1.513,1.4937,1.4649,1.4215,1.4088,1.4088,1.4088,1.4088,1.4088,1.4088,1.4088,1.4088,1.4088,1.4088,1.4088,1.4088,1.4088,1.4088,1.4088,1.4088,1.4088,1.4088,1.4088,1.4088,1.4088,1.4088,1.4088,1.4088,1.4088,1.4088,1.4088,1.4088,1.4088,1.4088,1.4088,1.4088,1.4088,1.4075,1.3968,1.3734,1.354,1.348,1.3321,1.323,1.2832,1.2324,1.3151,1.4087,1.3892,1.3444,1.3612,1.3951,1.3977,1.4088,1.4088,1.4139,1.4139,1.4085,1.4122,1.4108,1.4074,1.4358,1.496,1.7024,1.9025,1.8994,1.8787,1.7834,1.7072,1.7113,1.7265,1.7565,1.5825,1.573,1.4651,1.4268,1.4268,1.4262,1.4364,1.4459,1.5343,1.5825,1.5825,1.5825,1.5825,1.5825,1.5825,1.5825,1.5825,1.5825,1.5825,1.5825,1.5825,1.5825,1.5825,1.5825,1.5825,1.5825,1.5825,1.5825,1.5825,1.5825,1.5825,1.5825,1.5825,1.5825,1.5825,1.5825,1.5825,1.5825,1.5825,1.5825,1.5825,1.5798,1.5558,1.5057,1.5017,1.479,1.4282,1.4208,1.4208,1.4182,1.4135,1.4088,1.4088,1.4088,1.4088,1.4088,1.4088,1.4088,1.4088,1.4088,1.4088,1.4088,1.4088,1.4088,1.4088,1.4088,1.4088,1.4088,1.4088,1.4088,1.4088,1.4088,1.4088,1.4088,1.4088,1.4088,1.4088,1.4088,1.4088,1.4088,1.4088,1.3955,1.3734,1.3574,1.346,1.308,1.2923,1.2719,1.2472,1.3353,1.4093,1.409,1.3937,1.3937,1.4075,1.4068,1.4088,1.4088,1.4099,1.4135,1.4124,1.4104,1.4365,1.5063,1.5367,1.6397,1.8592,1.9783,1.8939,1.8429,1.8437,1.8228,1.7789,1.7615,1.7783,1.5825,1.5832,1.5635,1.554,1.5534,1.5534,1.5534,1.5534,1.573,1.5825,1.5825,1.5825,1.5825,1.5825,1.5825,1.5825,1.5825,1.5825,1.5825,1.5825,1.5825,1.5825,1.5825,1.5825,1.5812,1.5798,1.5805,1.5825,1.5825,1.5825,1.5825,1.5825,1.5825,1.5825,1.5825,1.5825,1.5825,1.5825,1.5825,1.5825,1.5825,1.5825,1.5504,1.5184,1.511,1.499,1.4456,1.4349,1.4376,1.4376,1.4195,1.4095,1.4088,1.4088,1.4088,1.4088,1.4088,1.4088,1.4088,1.4088,1.4088,1.4088,1.4088,1.4088,1.4088,1.4088,1.4088,1.4088,1.4088,1.4088,1.4088,1.4088,1.4088,1.4088,1.4088,1.4088,1.4088,1.4088,1.4088,1.4088,1.4088,1.3935,1.3748,1.3607,1.3447,1.2969,1.2602,1.2484,1.2651,1.3554,1.4083,1.4129,1.4587,1.4671,1.4853,1.4685,1.4657,1.4496,1.4156,1.4317,1.4936,1.5353,1.6124,1.6701,1.6959,1.7346,1.8794,1.919,1.8385,1.8151,1.8228,1.8114,1.7988,1.8008,1.8008,1.5825,1.5825,1.5825,1.5825,1.5825,1.5825,1.5825,1.5825,1.5825,1.5825,1.5825,1.5825,1.5825,1.5825,1.5825,1.5825,1.5825,1.5825,1.5825,1.5825,1.5825,1.5825,1.5778,1.5685,1.5638,1.5732,1.5691,1.5691,1.5752,1.5812,1.5825,1.5825,1.5825,1.5825,1.5825,1.5825,1.5825,1.5825,1.5825,1.5825,1.5825,1.5785,1.5551,1.4997,1.5097,1.4823,1.4449,1.4275,1.4275,1.4255,1.4128,1.4088,1.4088,1.4088,1.4088,1.4088,1.4088,1.4088,1.4088,1.4088,1.4088,1.4088,1.4088,1.4088,1.4088,1.4088,1.4088,1.4088,1.4088,1.4088,1.4088,1.4088,1.4088,1.4088,1.4088,1.4088,1.4088,1.4088,1.4088,1.4088,1.4075,1.3955,1.3841,1.3721,1.3479,1.32,1.2903,1.275,1.2956,1.3639,1.3971,1.4119,1.4755,1.5416,1.5612,1.5801,1.5884,1.5606,1.4428,1.4868,1.6223,1.7008,1.7766,1.827,1.8497,1.8974,1.937,1.8793,1.8161,1.804,1.8035,1.7978,1.8008,1.8008,1.8008,1.5825,1.5825,1.5825,1.5825,1.5825,1.5825,1.5825,1.5825,1.5825,1.5825,1.5825,1.5825,1.5825,1.5825,1.5825,1.5825,1.5825,1.5825,1.5825,1.5825,1.5818,1.5778,1.5671,1.5511,1.5478,1.5618,1.5378,1.5384,1.5531,1.5665,1.5725,1.5818,1.5825,1.5825,1.5825,1.5825,1.5825,1.5825,1.5825,1.5785,1.5718,1.5698,1.5357,1.5044,1.4863,1.4723,1.4289,1.4222,1.4229,1.4229,1.4135,1.4088,1.4088,1.4088,1.4088,1.4088,1.4088,1.4088,1.4088,1.4088,1.4088,1.4088,1.4088,1.4088,1.4088,1.4088,1.4088,1.4088,1.4088,1.4088,1.4088,1.4088,1.4088,1.4088,1.4088,1.4088,1.4088,1.4088,1.4088,1.4088,1.4088,1.4088,1.3968,1.3861,1.3585,1.3333,1.3133,1.2956,1.3484,1.4164,1.4539,1.4782,1.5545,1.6507,1.7401,1.7466,1.736,1.6716,1.5539,1.5487,1.6911,1.8426,1.9565,1.9934,1.9776,1.9073,1.8578,1.8252,1.8011,1.8025,1.7988,1.7998,1.8008,1.8008,1.8008,1.5825,1.5825,1.5825,1.5825,1.5825,1.5825,1.5825,1.5825,1.5825,1.5825,1.5825,1.5825,1.5825,1.5825,1.5825,1.5825,1.5825,1.5825,1.5825,1.5825,1.5805,1.5658,1.5504,1.5364,1.5244,1.5117,1.5017,1.5017,1.511,1.5364,1.5565,1.5778,1.5732,1.5792,1.5772,1.5698,1.5691,1.5691,1.5691,1.5598,1.5484,1.5378,1.5144,1.4776,1.4783,1.481,1.4502,1.4416,1.4382,1.4362,1.4195,1.4095,1.4088,1.4088,1.4088,1.4088,1.4088,1.4088,1.4088,1.4088,1.4088,1.4088,1.4088,1.4088,1.4088,1.4088,1.4088,1.4088,1.4088,1.4088,1.4088,1.4088,1.4088,1.4088,1.4088,1.4088,1.4088,1.4088,1.4088,1.4088,1.4088,1.4088,1.4082,1.3968,1.3895,1.3579,1.3687,1.3513,1.4632,1.5253,1.5524,1.5957,1.6553,1.7767,1.9489,1.9336,1.8146,1.759,1.6911,1.6934,1.7573,1.9091,2.0574,2.0193,1.9683,1.88,1.8049,1.7995,1.8006,1.8027,1.8018,1.8008,1.8008,1.8008,1.8008,1.5825,1.5825,1.5825,1.5825,1.5825,1.5825,1.5825,1.5825,1.5825,1.5825,1.5825,1.5825,1.5825,1.5825,1.5825,1.5825,1.5825,1.5825,1.5818,1.5752,1.5651,1.5504,1.5317,1.5084,1.4877,1.4877,1.4803,1.4816,1.499,1.5077,1.5144,1.5311,1.5458,1.5545,1.5531,1.5424,1.5351,1.5324,1.5317,1.5224,1.5184,1.5117,1.4937,1.4596,1.4589,1.4536,1.4295,1.4255,1.4249,1.4229,1.4142,1.4108,1.4088,1.4088,1.4088,1.4088,1.4088,1.4088,1.4088,1.4088,1.4088,1.4088,1.4088,1.4088,1.4088,1.4088,1.4088,1.4088,1.4088,1.4088,1.4088,1.4088,1.4088,1.4088,1.4088,1.4088,1.4088,1.4088,1.4088,1.4088,1.4088,1.4088,1.4088,1.4075,1.4015,1.3941,1.4008,1.4294,1.5162,1.668,1.7229,1.7463,1.8052,1.8505,2.0132,1.9503,1.8638,1.8391,1.8215,1.8355,1.8644,1.9448,2.0546,2.0157,1.9619,1.8865,1.828,1.8074,1.8027,1.8037,1.8008,1.8008,1.8008,1.8008,1.8008,1.5778,1.5712,1.5792,1.5825,1.5825,1.5825,1.5825,1.5825,1.5825,1.5825,1.5825,1.5825,1.5825,1.5825,1.5825,1.5825,1.5825,1.5818,1.5758,1.5691,1.5591,1.5371,1.5104,1.4883,1.4736,1.4703,1.4549,1.4509,1.4629,1.4776,1.4843,1.4917,1.5023,1.513,1.5224,1.509,1.5053,1.506,1.497,1.4897,1.4959,1.4823,1.4689,1.4416,1.4382,1.4322,1.4168,1.4128,1.4122,1.4115,1.4095,1.4088,1.4088,1.4088,1.4088,1.4088,1.4088,1.4088,1.4088,1.4088,1.4088,1.4088,1.4088,1.4088,1.4088,1.4088,1.4088,1.4088,1.4088,1.4088,1.4088,1.4088,1.4088,1.4088,1.4088,1.4088,1.4088,1.4088,1.4088,1.4088,1.4088,1.4166,1.4412,1.4405,1.449,1.4351,1.4095,1.4289,1.4813,1.6806,1.9533,1.9565,1.9604,1.9976,2.0368,1.9929,1.952,1.958,1.9427,1.9506,1.9839,2.0444,2.0112,1.9343,1.8905,1.8757,1.8496,1.8104,1.8037,1.8018,1.8008,1.8008,1.8008,1.8008,1.8008,1.5651,1.5451,1.5705,1.5812,1.5798,1.5825,1.5825,1.5825,1.5825,1.5825,1.5825,1.5825,1.5825,1.5825,1.5825,1.5825,1.5825,1.5818,1.5712,1.5531,1.5511,1.5231,1.491,1.4669,1.4529,1.4195,1.4155,1.4195,1.4188,1.4422,1.4516,1.4529,1.4603,1.4703,1.4943,1.4957,1.504,1.504,1.4993,1.4825,1.4683,1.4529,1.4369,1.4235,1.4168,1.4135,1.4108,1.4088,1.4088,1.4088,1.4088,1.4088,1.4088,1.4088,1.4088,1.4088,1.4088,1.4088,1.4088,1.4088,1.4088,1.4088,1.4088,1.4088,1.4088,1.4088,1.4088,1.4088,1.4088,1.4088,1.4088,1.4088,1.4088,1.4088,1.4088,1.4088,1.4088,1.4082,1.4082,1.4489,1.4328,1.425,1.4573,1.488,1.4954,1.4807,1.4269,1.4582,1.5446,1.7166,2.0174,2.0524,2.0332,2.042,2.0508,2.0537,2.0411,2.0557,2.0469,2.0294,2.0313,2.048,1.9883,1.8676,1.842,1.8494,1.8319,1.8035,1.7978,1.8008,1.8008,1.8008,1.8008,1.8008,1.8008,1.5311,1.5404,1.5504,1.5538,1.5571,1.5752,1.5825,1.5825,1.5825,1.5825,1.5825,1.5825,1.5825,1.5825,1.5805,1.5798,1.5825,1.5818,1.5671,1.5411,1.5384,1.4977,1.4649,1.4456,1.4322,1.4148,1.4088,1.4088,1.4108,1.4235,1.4235,1.4235,1.4275,1.4289,1.4362,1.4382,1.4376,1.4376,1.4362,1.4322,1.4341,1.4242,1.4195,1.4088,1.4088,1.4088,1.4088,1.4088,1.4088,1.4088,1.4088,1.4088,1.4088,1.4088,1.4088,1.4088,1.4088,1.4088,1.4088,1.4088,1.4088,1.4088,1.4088,1.4088,1.4088,1.4088,1.4088,1.4088,1.4088,1.4088,1.4088,1.4088,1.4088,1.4088,1.4088,1.4088,1.4088,1.4082,1.4243,1.497,1.513,1.5628,1.5959,1.6101,1.618,1.6296,1.6006,1.7187,1.8205,1.8762,2.0582,2.0575,2.0518,2.0586,2.0576,2.0576,2.0576,2.0566,2.0566,2.0557,2.0535,2.0601,1.9647,1.8544,1.8442,1.834,1.8139,1.8008,1.8007,1.8008,1.8027,1.8018,1.8008,1.8008,1.8008,1.5017,1.511,1.5311,1.5337,1.5324,1.5665,1.5825,1.5812,1.5738,1.5725,1.5792,1.5738,1.5745,1.5745,1.5631,1.5725,1.5785,1.5705,1.5518,1.5291,1.5317,1.491,1.4529,1.4355,1.4342,1.4182,1.4088,1.4088,1.4088,1.4088,1.4108,1.4115,1.4088,1.4128,1.4135,1.4135,1.4135,1.4155,1.4162,1.4142,1.4115,1.4108,1.4102,1.4088,1.4088,1.4088,1.4088,1.4088,1.4088,1.4088,1.4088,1.4088,1.4088,1.4088,1.4088,1.4088,1.4088,1.4088,1.4088,1.4088,1.4088,1.4088,1.4088,1.4088,1.4088,1.4088,1.4088,1.4088,1.4088,1.4088,1.4088,1.4088,1.4088,1.4088,1.4257,1.4257,1.5132,1.5216,1.5144,1.5861,1.6429,1.6927,1.7334,1.7543,1.7582,1.7789,1.7923,1.924,2.0299,2.0466,2.0634,2.0596,2.0576,2.0576,2.0576,2.0576,2.0576,2.0576,2.0576,2.0576,2.0592,2.0581,1.9487,1.8704,1.9029,1.9023,1.8304,1.7996,1.811,1.8115,1.8008,1.7988,1.8018,1.8008,1.8008,1.4776,1.4636,1.5144,1.5224,1.511,1.5578,1.5798,1.5805,1.5551,1.5591,1.5812,1.5565,1.5618,1.5698,1.5291,1.5384,1.5725,1.5578,1.5351,1.5224,1.5371,1.4877,1.4596,1.4522,1.4362,1.4182,1.4088,1.4088,1.4088,1.4088,1.4088,1.4088,1.4088,1.4088,1.4088,1.4142,1.4128,1.4115,1.4088,1.4088,1.4088,1.4088,1.4088,1.4088,1.4088,1.4088,1.4088,1.4088,1.4088,1.4088,1.4088,1.4088,1.4088,1.4088,1.4088,1.4088,1.4088,1.4088,1.4088,1.4088,1.4088,1.4088,1.4088,1.4088,1.4088,1.4088,1.4088,1.4088,1.4088,1.4088,1.4088,1.4088,1.4088,1.4257,1.4439,1.5216,1.6443,1.666,1.6558,1.6927,1.7488,1.79,1.8141,1.8435,1.8735,1.8867,1.9006,1.964,2.0498,2.0488,2.0576,2.0566,2.0576,2.0576,2.0576,2.0576,2.0576,2.0576,2.0576,2.0624,2.0639,2.043,1.9496,1.9163,1.9845,1.9778,1.8807,1.8438,1.8389,1.8286,1.8377,1.8086,1.8135,1.8027,1.8008,1.4529,1.485,1.5017,1.5157,1.5291,1.5451,1.5631,1.5792,1.5725,1.5765,1.5825,1.5745,1.5718,1.5798,1.5658,1.5678,1.5732,1.5718,1.5538,1.5438,1.5337,1.4883,1.4583,1.4416,1.4262,1.4155,1.4088,1.4088,1.4088,1.4088,1.4088,1.4088,1.4088,1.4088,1.4155,1.4282,1.4215,1.4175,1.4148,1.4148,1.4128,1.4122,1.4115,1.4095,1.4088,1.4088,1.4088,1.4088,1.4088,1.4088,1.4088,1.4088,1.4088,1.4088,1.4088,1.4088,1.4088,1.4088,1.4088,1.4088,1.4088,1.4082,1.4166,1.4088,1.4088,1.4166,1.425,1.4328,1.4496,1.4657,1.4461,1.4371,1.4273,1.426,1.4782,1.602,1.7064,1.7449,1.7432,1.8221,1.8709,1.9027,1.9265,1.9432,1.9728,1.9856,2.0022,2.0391,2.0576,2.0576,2.0576,2.0576,2.0576,2.0576,2.0576,2.0576,2.0576,2.0576,2.0576,2.0634,2.0594,2.0301,1.9535,1.9577,2.0052,1.9862,1.9228,1.9058,1.9193,1.9,1.8994,1.8574,1.8242,1.8174,1.8047,1.4295,1.4616,1.4743,1.5017,1.5364,1.5398,1.5565,1.5778,1.5712,1.5705,1.5812,1.5698,1.5718,1.5772,1.5585,1.5558,1.5798,1.5658,1.5504,1.5404,1.5291,1.4957,1.4643,1.4429,1.4335,1.4202,1.4088,1.4088,1.4088,1.4088,1.4088,1.4088,1.4088,1.4088,1.4128,1.4215,1.4302,1.4329,1.4355,1.4342,1.4302,1.4242,1.4202,1.4115,1.4102,1.4088,1.4088,1.4088,1.4088,1.4088,1.4088,1.4088,1.4088,1.4088,1.4088,1.4088,1.4088,1.4088,1.4088,1.4088,1.4088,1.425,1.4489,1.4734,1.4817,1.4901,1.4894,1.4894,1.522,1.5379,1.5004,1.4719,1.4428,1.4137,1.5374,1.6706,1.7375,1.787,1.8656,1.9441,1.9923,2.0245,2.0489,2.0576,2.0566,2.0382,2.0294,2.0469,2.0576,2.0576,2.0576,2.0576,2.0576,2.0576,2.0576,2.0576,2.0576,2.0576,2.0576,2.0624,2.0575,2.0485,2.0039,1.998,2.0075,1.9834,1.9707,2.0078,2.0216,1.9925,1.9497,1.9066,1.8703,1.8497,1.834,1.4108,1.4182,1.4436,1.491,1.5357,1.5398,1.5558,1.5785,1.5585,1.5585,1.5752,1.5565,1.5625,1.5732,1.5484,1.5511,1.5678,1.5645,1.5585,1.5418,1.5431,1.5157,1.483,1.471,1.4376,1.4175,1.4088,1.4088,1.4088,1.4088,1.4088,1.4088,1.4088,1.4088,1.4102,1.4295,1.4416,1.4482,1.4743,1.4903,1.4623,1.4502,1.4402,1.4188,1.4122,1.4088,1.4088,1.4088,1.4088,1.4088,1.4088,1.4088,1.4088,1.4088,1.4088,1.4088,1.4088,1.4328,1.451,1.4776,1.4762,1.4915,1.522,1.5711,1.5869,1.5794,1.5786,1.5869,1.6198,1.6363,1.6167,1.5771,1.5383,1.5628,1.6522,1.7878,1.8968,1.9234,1.9362,2.0079,2.0323,2.0576,2.0576,2.0576,2.0576,2.0576,2.0576,2.0576,2.0576,2.0576,2.0576,2.0576,2.0576,2.0576,2.0576,2.0576,2.0576,2.0576,2.0576,2.0566,2.0615,2.0602,2.0621,2.0414,2.0321,2.0409,2.0436,2.0586,2.0562,2.0426,2.0019,1.9594,1.9216,1.901,1.8517,1.4215,1.4442,1.4736,1.507,1.5378,1.5398,1.5565,1.5818,1.5758,1.5758,1.5798,1.5758,1.5745,1.5752,1.5658,1.5691,1.5732,1.5732,1.5725,1.5524,1.5444,1.519,1.4783,1.4536,1.4282,1.4155,1.4088,1.4088,1.4088,1.4088,1.4088,1.4088,1.4088,1.4088,1.4115,1.4362,1.4589,1.4623,1.5003,1.5164,1.491,1.4636,1.4456,1.4329,1.4255,1.4102,1.4088,1.4088,1.4088,1.4088,1.4088,1.4088,1.4088,1.4088,1.4173,1.4088,1.423,1.4538,1.5423,1.5967,1.6412,1.6402,1.669,1.6846,1.6927,1.6927,1.6927,1.709,1.7172,1.7415,1.7398,1.6904,1.6613,1.7218,1.7751,1.9145,2.0483,2.0409,2.0235,2.0391,2.0566,2.0576,2.0576,2.0576,2.0576,2.0576,2.0576,2.0576,2.0576,2.0576,2.0576,2.0576,2.0576,2.0576,2.0576,2.0576,2.0576,2.0576,2.0576,2.0576,2.0576,2.0623,2.0582,2.0574,2.0566,2.0585,2.0585,2.0575,2.0574,2.0505,2.0473,2.0013,1.992,1.9742,1.8958,1.4182,1.4376,1.479,1.505,1.5231,1.5478,1.5685,1.5805,1.5825,1.5825,1.5825,1.5825,1.5825,1.5825,1.5825,1.5825,1.5825,1.5825,1.5691,1.5511,1.5324,1.5037,1.4716,1.4416,1.4262,1.4135,1.4095,1.4088,1.4088,1.4088,1.4088,1.4088,1.4088,1.4102,1.4135,1.4436,1.4669,1.4743,1.5255,1.5261,1.5113,1.4952,1.4529,1.4396,1.4202,1.4088,1.4088,1.4088,1.4088,1.4088,1.4088,1.4573,1.4734,1.4887,1.5144,1.5177,1.5036,1.4828,1.6288,1.7507,1.8164,1.7848,1.798,1.806,1.8221,1.823,1.847,1.855,1.8948,1.9186,1.9195,1.8797,1.8788,1.914,1.9325,2.0077,2.0546,2.0479,2.0401,2.0479,2.0576,2.0576,2.0576,2.0576,2.0576,2.0576,2.0576,2.0576,2.0576,2.0576,2.0576,2.0576,2.0576,2.0576,2.0576,2.0576,2.0576,2.0576,2.0576,2.0576,2.0576,2.0576,2.0566,2.0634,2.0624,2.0634,2.0566,2.0576,2.0576,2.0566,2.0613,2.0525,2.0463,2.0266,1.9723,1.4088,1.4168,1.4629,1.4903,1.5023,1.5478,1.5745,1.5818,1.5825,1.5825,1.5825,1.5825,1.5825,1.5825,1.5825,1.5825,1.5825,1.5825,1.5671,1.5471,1.5337,1.4977,1.4676,1.4436,1.4249,1.4135,1.4095,1.4088,1.4088,1.4088,1.4088,1.4088,1.4088,1.4088,1.4095,1.4195,1.4475,1.5088,1.5424,1.537,1.5335,1.5237,1.4717,1.4309,1.4108,1.4095,1.4088,1.4088,1.4088,1.4496,1.4741,1.5304,1.5628,1.5951,1.6273,1.639,1.5703,1.6036,1.7407,1.9102,1.895,1.8673,1.8993,1.9195,1.9362,1.952,1.9687,1.9844,2.0245,2.0401,2.0401,2.0401,2.0401,2.0401,2.0498,2.0586,2.0576,2.0576,2.0576,2.0576,2.0576,2.0576,2.0576,2.0576,2.0576,2.0576,2.0576,2.0576,2.0576,2.0576,2.0576,2.0576,2.0576,2.0576,2.0576,2.0576,2.0576,2.0576,2.0576,2.0576,2.0576,2.0576,2.0576,2.0566,2.0566,2.0576,2.0576,2.0576,2.0576,2.0576,2.0624,2.0575,2.0544,2.0424,2.0416,1.4088,1.4095,1.4215,1.4522,1.4937,1.5104,1.5384,1.5785,1.5825,1.5825,1.5825,1.5825,1.5825,1.5825,1.5825,1.5825,1.5825,1.5818,1.5645,1.5431,1.5197,1.4856,1.4549,1.4309,1.4162,1.4186,1.425,1.4173,1.4412,1.425,1.4166,1.4166,1.4166,1.4179,1.4213,1.4498,1.5105,1.5727,1.6169,1.6337,1.6425,1.6016,1.4683,1.4376,1.4208,1.4135,1.4088,1.4088,1.465,1.5304,1.6124,1.6527,1.6846,1.7009,1.7334,1.7641,1.6936,1.746,1.8878,1.9869,1.9608,1.9752,2.0001,2.0079,2.0167,2.0167,2.0255,2.0255,2.0489,2.0489,2.0566,2.0566,2.0566,2.0566,2.0576,2.0576,2.0576,2.0576,2.0576,2.0576,2.0576,2.0576,2.0576,2.0576,2.0576,2.0576,2.0576,2.0576,2.0576,2.0576,2.0576,2.0576,2.0576,2.0576,2.0576,2.0576,2.0576,2.0576,2.0576,2.0576,2.0576,2.0576,2.0576,2.0576,2.0576,2.0576,2.0576,2.0576,2.0576,2.0576,2.0576,2.0615,2.0526,2.0525,2.0453]},{"header":{"parameterUnit":"m.s-1","parameterCategory":1,"la1":31.0,"la2":29.5877,"lo1":-88.7671,"lo2":-86.6584,"dy":0.0162,"dx":0.0185,"nx":115,"ny":88,"refTime":"2023-08-17T06:00:00:Z","depth":0,"parameterNumber":3,"parameterNumberName":"V-component_of_WINDS"},"data":[0.0,0.0,0.0,0.0,0.0,0.0,0.0,0.0,0.0,0.0,0.0,0.0,0.0,0.0,0.0,0.0,0.0,0.0,0.0,0.0,0.0,0.0,0.0,0.0,0.0,0.0,0.0,0.0,0.0,0.0,0.0,0.0,0.0,0.0,0.0,0.0,0.0,0.0,0.0,0.0,0.0,0.0,0.0,0.0,0.0,0.0,0.0,0.0,0.0,0.0,0.0,0.0,0.0,0.0,0.0,0.0,0.0,0.0,0.0,0.0,0.0,0.0,0.0,0.0,0.0,0.0,0.0,0.0,0.0,0.0,0.0,0.0,0.0,0.0,0.0,0.0,0.0,0.0,0.0,0.0,0.0,0.0,0.0,0.0,0.0,0.0,0.0,0.0,0.0,0.0,0.0,0.0,0.0,0.0,0.0,0.0,0.0,0.0,0.0,0.0,0.0,0.0,0.0,0.0,0.0,0.0,0.0,0.0,0.0,0.0,0.0,0.0,0.0,0.0,0.0,0.0,0.0,0.0,0.0,0.0,0.0,0.0,0.0,0.0,0.0,0.0,0.0,0.0,0.0,0.0,0.0,0.0,0.0,0.0,0.0,0.0,0.0,0.0,0.0,0.0,0.0,0.0,0.0,0.0,0.0,0.0,0.0,0.0,0.0,0.0,0.0,0.0,0.0,0.0,0.0,0.0,0.0,0.0,0.0,0.0,0.0,0.0,0.0,0.0,0.0,0.0,0.0,0.0,0.0,0.0,0.0,0.0,0.0,0.0,0.0,0.0,0.0,0.0,0.0,0.0,0.0,0.0,0.0,0.0,0.0,0.0,0.0,0.0,0.0,0.0,0.0,0.0,0.0,0.0,0.0,0.0,0.0,0.0,0.0,0.0,0.0,0.0,0.0,0.0,0.0,0.0,0.0,0.0,0.0,0.0,0.0,0.0,0.0,0.0,0.0,0.0,0.0,0.0,0.0,0.0,0.0,0.0,0.0,0.0,0.0,0.0,0.0,0.0,0.0,0.0,0.0,0.0,0.0,0.0,0.0,0.0,0.0,0.0,0.0,0.0,0.0,0.0,0.0,0.0,0.0,0.0,0.0,0.0,0.0,0.0,0.0,0.0,0.0,0.0,0.0,0.0,0.0,0.0,0.0,0.0,0.0,0.0,0.0,0.0,0.0,0.0,0.0,0.0,0.0,0.0,0.0,0.0,0.0,0.0,0.0,0.0,0.0,0.0,0.0,0.0,0.0,0.0,0.0,0.0,0.0,0.0,0.0,0.0,0.0,0.0,0.0,0.0,0.0,0.0,0.0,0.0,0.0,0.0,0.0,0.0,0.0,0.0,0.0,0.0,0.0,0.0,0.0,0.0,0.0,0.0,0.0,0.0,0.0,0.0,0.0,0.0,0.0,0.0,0.0,0.0,0.0,0.0,0.0,0.0,0.0,0.0,0.0,0.0,0.0,0.0,0.0,0.0,0.0,0.0,0.0,0.0,0.0,0.0,0.0,0.0,0.0,0.0,0.0,0.0,0.0,0.0,0.0,0.0,0.0,0.0,0.0,0.0,0.0,0.0,0.0,0.0,0.0,0.0,0.0,0.0,0.0,0.0,0.0,0.0,0.0,0.0,0.0,0.0,0.0,0.0,0.0,0.0,0.0,0.0,0.0,0.0,0.0,0.0,0.0,0.0,0.0,0.0,0.0,0.0,0.0,0.0,0.0,0.0,0.0,0.0,0.0,0.0,0.0,0.0,0.0,0.0,0.0,0.0,0.0,0.0,0.0,0.0,0.0,0.0,0.0,0.0,0.0,0.0,0.0,0.0,0.0,0.0,0.0,0.0,0.0,0.0,0.0,0.0,0.0,0.0,0.0,0.0,0.0,0.0,0.0,0.0,0.0,0.0,0.0,0.0,0.0,0.0,0.0,0.0,0.0,0.0,0.0,0.0,0.0,0.0,0.0,0.0,0.0,0.0,0.0,0.0,0.0,0.0,0.0,0.0,0.0,0.0,0.0,0.0,0.0,0.0,0.0,0.0,0.0,0.0,0.0,0.0,0.0,0.0,0.0,0.0,0.0,0.0,0.0,0.0,0.0,0.0,0.0,0.0,0.0,0.0,0.0,0.0,0.0,0.0,0.0,0.0,0.0,0.0,0.0,0.0,0.0,0.0,0.0,0.0,0.0,0.0,0.0,0.0,0.0,0.0,0.0,0.0,0.0,0.0,0.0,0.0,0.0,0.0,0.0,0.0,0.0,0.0,0.0,0.0,0.0,0.0,0.0,0.0,0.0,0.0,0.0,0.0,0.0,0.0,0.0,0.0,0.0,0.0,0.0,0.0,0.0,0.0,0.0,0.0,0.0,0.0,0.0,0.0,0.0,0.0,0.0,0.0,0.0,0.0,0.0,0.0,0.0,0.0,0.0,0.0,0.0,0.0,0.0,0.0,0.0,0.0,0.0,0.0,0.0,0.0,0.0,0.0,0.0,0.0,0.0,0.0,0.0,0.0,0.0,0.0,0.0,0.0,0.0,0.0,0.0,0.0,0.0,0.0,0.0,0.0,0.0,0.0,0.0,0.0,0.0,0.0,0.0,0.0,0.0,0.0,0.0,0.0,0.0,0.0,0.0,0.0,0.0,0.0,0.0,0.0,0.0,0.0,0.0,0.0,0.0,0.0,0.0,0.0,0.0,0.0,0.0,0.0,0.0,0.0,0.0,0.0,0.0,0.0,0.0,0.0,0.0,0.0,0.0,0.0,0.0,0.0,0.0,0.0,0.0,0.0,0.0,0.0,0.0,0.0,0.0,0.0,0.0,0.0,0.0,0.0,0.0,0.0,0.0,0.0,0.0,0.0,0.0,0.0,0.0,0.0,0.0,0.0,0.0,0.0,0.0,0.0,0.0,0.0,0.0,0.0,0.0,0.0,0.0,0.0,0.0,0.0,0.0,0.0,0.0,0.0,0.0,0.0,0.0,0.0,0.0,0.0,0.0,0.0,0.0,0.0,0.0,0.0,0.0,0.0,0.0,0.0,0.0,0.0,0.0,0.0,0.0,0.0,0.0,0.0,0.0,0.0,0.0,0.0,0.0,0.0,0.0,0.0,0.0,0.0,0.0,0.0,0.0,0.0,0.0,0.0,0.0,0.0,0.0,0.0,0.0,0.0,0.0,0.0,0.0,0.0,0.0,0.0,0.0,0.0,0.0,0.0,0.0,0.0,0.0,0.0,0.0,0.0,0.0,0.0,0.0,0.0,0.0,0.0,0.0,0.0,0.0,0.0,0.0,0.0,0.0,0.0,0.0,0.0,0.0,0.0,0.0,0.0,0.0,0.0,0.0,0.0,0.0,0.0,0.0,0.0,0.0,0.0,0.0,0.0,0.0,0.0,0.0,0.0,0.0,0.0,0.0,0.0,0.0,0.0,0.0,0.0,0.0,0.0,0.0,0.0,0.0,0.0,0.0,0.0,0.0,0.0,0.0,0.0,0.0,0.0,0.0,0.0,0.0,0.0,0.0,0.0,0.0,0.0,0.0,0.0,0.0,0.0,0.0,0.0,0.0,0.0,0.0,0.0,0.0,0.0,0.0,0.0,0.0,0.0,0.0,0.0,0.0,0.0,0.0,0.0,0.0,0.0,0.0,0.0,0.0,0.0,0.0,0.0,0.0,0.0,0.0,0.0,0.0,0.0,0.0,0.0,0.0,0.0,0.0,0.0,0.0,0.0,0.0,0.0,0.0,0.0,0.0,0.0,0.0,0.0,0.0,0.0,0.0,0.0,0.0,0.0,0.0,0.0,0.0,0.0,0.0,0.0,0.0,0.0,0.0,0.0,0.0,0.0,0.0,0.0,0.0,0.0,0.0,0.0,0.0,0.0,0.0,0.0,0.0,0.0,0.0,0.0,0.0,0.0,0.0,0.0,0.0,0.0,0.0,0.0,0.0,0.0,0.0,0.0,0.0,0.0,0.0,0.0,0.0,0.0,0.0,0.0,0.0,0.0,0.0,0.0,0.0,0.0,0.0,0.0,0.0,0.0,0.0,0.0,0.0,0.0,0.0,0.0,0.0,0.0,0.0,0.0,0.0,0.0,0.0,0.0,0.0,0.0,0.0,0.0,0.0,0.0,0.0,0.0,0.0,0.0,0.0,0.0,0.0,0.0,0.0,0.0,0.0,0.0,0.0,0.0,0.0,0.0,0.0,0.0,0.0,0.0,0.0,0.0,0.0,0.0,0.0,0.0,0.0,0.0,0.0,0.0,0.0,0.0,0.0,0.0,0.0,0.0,0.0,0.0,-2.539,0.0,0.0,0.0,0.0,0.0,0.0,0.0,0.0,0.0,0.0,0.0,0.0,0.0,0.0,0.0,0.0,0.0,0.0,0.0,0.0,0.0,0.0,0.0,0.0,0.0,0.0,0.0,0.0,0.0,0.0,0.0,0.0,0.0,0.0,0.0,0.0,0.0,0.0,0.0,0.0,0.0,0.0,0.0,0.0,0.0,0.0,0.0,0.0,0.0,0.0,0.0,0.0,0.0,0.0,0.0,0.0,0.0,0.0,0.0,0.0,0.0,0.0,0.0,0.0,0.0,0.0,0.0,0.0,0.0,0.0,0.0,0.0,0.0,0.0,0.0,0.0,0.0,0.0,0.0,0.0,0.0,0.0,0.0,0.0,0.0,0.0,0.0,0.0,0.0,0.0,0.0,0.0,0.0,0.0,0.0,0.0,0.0,0.0,0.0,0.0,0.0,0.0,0.0,0.0,0.0,0.0,0.0,0.0,0.0,0.0,-2.5313,-2.5313,-2.537,-2.5416,-2.5452,0.0,0.0,0.0,0.0,0.0,0.0,0.0,0.0,0.0,0.0,0.0,0.0,0.0,0.0,0.0,0.0,0.0,0.0,0.0,0.0,0.0,0.0,0.0,0.0,0.0,0.0,0.0,0.0,0.0,0.0,0.0,0.0,0.0,0.0,0.0,0.0,0.0,0.0,0.0,0.0,0.0,0.0,0.0,0.0,0.0,0.0,0.0,0.0,0.0,0.0,0.0,0.0,0.0,0.0,0.0,0.0,0.0,0.0,0.0,0.0,0.0,0.0,0.0,0.0,0.0,0.0,0.0,0.0,0.0,0.0,0.0,0.0,0.0,0.0,0.0,0.0,0.0,0.0,0.0,0.0,0.0,0.0,0.0,0.0,0.0,0.0,0.0,0.0,0.0,0.0,0.0,0.0,0.0,0.0,0.0,0.0,0.0,0.0,0.0,0.0,0.0,0.0,0.0,0.0,0.0,0.0,0.0,0.0,0.0,0.0,0.0,0.0,-2.539,-2.5464,-2.5563,0.0,0.0,0.0,0.0,0.0,0.0,0.0,0.0,0.0,0.0,0.0,0.0,0.0,0.0,0.0,0.0,0.0,0.0,0.0,0.0,0.0,0.0,0.0,0.0,0.0,0.0,0.0,0.0,0.0,0.0,0.0,0.0,0.0,0.0,0.0,0.0,0.0,0.0,0.0,0.0,0.0,0.0,0.0,0.0,0.0,0.0,0.0,0.0,0.0,0.0,0.0,0.0,0.0,0.0,0.0,0.0,0.0,0.0,0.0,0.0,0.0,0.0,0.0,0.0,0.0,0.0,0.0,0.0,0.0,0.0,0.0,0.0,0.0,0.0,0.0,0.0,0.0,0.0,0.0,0.0,0.0,0.0,0.0,0.0,0.0,0.0,0.0,0.0,0.0,0.0,0.0,0.0,0.0,0.0,0.0,0.0,0.0,0.0,0.0,0.0,0.0,0.0,0.0,0.0,0.0,0.0,0.0,0.0,0.0,0.0,-2.5332,-2.539,-2.5466,0.0,-2.566,0.0,0.0,0.0,0.0,0.0,0.0,0.0,0.0,0.0,0.0,0.0,0.0,0.0,0.0,0.0,0.0,0.0,0.0,0.0,0.0,0.0,0.0,0.0,0.0,0.0,0.0,0.0,0.0,0.0,0.0,0.0,0.0,0.0,0.0,0.0,0.0,0.0,0.0,0.0,0.0,0.0,0.0,0.0,0.0,0.0,0.0,0.0,0.0,0.0,0.0,0.0,0.0,0.0,0.0,0.0,0.0,0.0,0.0,0.0,0.0,0.0,0.0,0.0,0.0,0.0,0.0,0.0,0.0,0.0,0.0,0.0,0.0,0.0,0.0,0.0,0.0,0.0,0.0,0.0,0.0,0.0,0.0,0.0,0.0,0.0,0.0,0.0,0.0,0.0,0.0,0.0,0.0,0.0,0.0,0.0,0.0,0.0,0.0,0.0,0.0,0.0,0.0,0.0,0.0,0.0,0.0,0.0,0.0,0.0,0.0,-2.537,-2.539,-2.5505,-2.5596,0.0,0.0,0.0,0.0,0.0,0.0,0.0,0.0,0.0,0.0,0.0,0.0,0.0,0.0,0.0,0.0,0.0,0.0,0.0,0.0,0.0,0.0,0.0,0.0,0.0,0.0,0.0,0.0,0.0,0.0,0.0,0.0,0.0,0.0,0.0,0.0,0.0,0.0,0.0,0.0,0.0,0.0,0.0,0.0,0.0,0.0,0.0,0.0,0.0,0.0,0.0,0.0,0.0,0.0,0.0,0.0,0.0,0.0,0.0,0.0,0.0,0.0,0.0,0.0,0.0,0.0,0.0,0.0,0.0,0.0,0.0,0.0,0.0,0.0,0.0,0.0,0.0,0.0,0.0,0.0,0.0,0.0,0.0,0.0,0.0,0.0,0.0,0.0,0.0,0.0,0.0,0.0,0.0,0.0,0.0,0.0,0.0,0.0,0.0,0.0,0.0,0.0,0.0,0.0,0.0,0.0,0.0,0.0,0.0,0.0,-2.537,-2.5428,-2.5457,-2.5553,-2.5547,-2.5352,0.0,0.0,0.0,0.0,0.0,0.0,0.0,0.0,0.0,0.0,0.0,0.0,0.0,0.0,0.0,0.0,0.0,0.0,0.0,0.0,0.0,0.0,0.0,0.0,0.0,0.0,0.0,0.0,0.0,0.0,0.0,0.0,0.0,0.0,0.0,0.0,0.0,0.0,0.0,0.0,0.0,0.0,0.0,0.0,0.0,0.0,0.0,0.0,0.0,0.0,0.0,0.0,0.0,0.0,0.0,0.0,0.0,0.0,0.0,0.0,0.0,0.0,0.0,0.0,0.0,0.0,0.0,0.0,0.0,0.0,0.0,0.0,0.0,0.0,0.0,0.0,0.0,0.0,0.0,0.0,0.0,0.0,0.0,0.0,0.0,0.0,0.0,0.0,0.0,0.0,0.0,0.0,0.0,0.0,0.0,0.0,0.0,0.0,0.0,0.0,0.0,0.0,0.0,0.0,0.0,0.0,0.0,0.0,-2.5313,-2.537,-2.5447,-2.5592,-2.5668,-2.5312,0.0,0.0,0.0,0.0,0.0,0.0,0.0,0.0,0.0,0.0,0.0,0.0,0.0,0.0,0.0,0.0,0.0,0.0,0.0,0.0,0.0,0.0,0.0,0.0,0.0,0.0,0.0,0.0,0.0,0.0,0.0,0.0,0.0,0.0,0.0,0.0,0.0,0.0,0.0,0.0,0.0,0.0,0.0,0.0,0.0,0.0,0.0,0.0,0.0,0.0,0.0,0.0,0.0,0.0,0.0,0.0,0.0,0.0,0.0,0.0,0.0,0.0,0.0,0.0,0.0,0.0,0.0,0.0,0.0,0.0,0.0,0.0,0.0,0.0,0.0,0.0,0.0,0.0,0.0,0.0,0.0,0.0,0.0,0.0,0.0,0.0,0.0,0.0,0.0,0.0,0.0,0.0,0.0,0.0,0.0,0.0,0.0,0.0,0.0,0.0,0.0,0.0,0.0,0.0,0.0,0.0,0.0,0.0,0.0,-2.5293,-2.5403,-2.5535,-2.5671,-2.5697,-2.5273,0.0,0.0,0.0,0.0,0.0,0.0,0.0,0.0,0.0,0.0,0.0,0.0,0.0,0.0,0.0,0.0,0.0,0.0,0.0,0.0,0.0,0.0,0.0,0.0,0.0,0.0,0.0,0.0,0.0,0.0,0.0,0.0,0.0,0.0,0.0,0.0,0.0,0.0,0.0,0.0,0.0,0.0,0.0,0.0,0.0,0.0,0.0,0.0,0.0,0.0,0.0,0.0,0.0,0.0,0.0,0.0,0.0,0.0,0.0,0.0,0.0,0.0,0.0,0.0,0.0,0.0,0.0,0.0,0.0,0.0,0.0,0.0,0.0,0.0,0.0,0.0,0.0,0.0,0.0,0.0,0.0,0.0,0.0,0.0,0.0,0.0,0.0,0.0,0.0,0.0,0.0,0.0,0.0,0.0,0.0,0.0,0.0,0.0,0.0,0.0,0.0,0.0,0.0,0.0,0.0,0.0,0.0,0.0,0.0,-2.537,0.0,-2.5585,-2.5684,-2.5703,-2.5156,0.0,0.0,0.0,0.0,0.0,0.0,0.0,0.0,0.0,0.0,0.0,0.0,0.0,0.0,0.0,0.0,0.0,0.0,0.0,0.0,0.0,0.0,0.0,0.0,0.0,0.0,0.0,0.0,0.0,0.0,0.0,0.0,0.0,0.0,0.0,0.0,0.0,0.0,0.0,0.0,0.0,0.0,0.0,0.0,0.0,0.0,0.0,0.0,0.0,0.0,0.0,0.0,0.0,0.0,0.0,0.0,0.0,0.0,0.0,0.0,0.0,0.0,0.0,0.0,0.0,0.0,0.0,0.0,0.0,0.0,0.0,0.0,0.0,0.0,0.0,0.0,0.0,0.0,0.0,0.0,0.0,0.0,0.0,0.0,0.0,0.0,0.0,0.0,0.0,0.0,0.0,0.0,0.0,0.0,0.0,0.0,0.0,0.0,0.0,0.0,0.0,0.0,0.0,0.0,0.0,0.0,0.0,0.0,-2.537,-2.5505,-2.5572,-2.5628,-2.5703,-2.5703,-2.4922,0.0,0.0,0.0,0.0,0.0,0.0,0.0,0.0,0.0,0.0,0.0,0.0,0.0,0.0,0.0,0.0,0.0,0.0,0.0,0.0,0.0,0.0,0.0,0.0,0.0,0.0,0.0,0.0,0.0,0.0,0.0,0.0,0.0,0.0,0.0,0.0,0.0,0.0,0.0,0.0,0.0,0.0,0.0,0.0,0.0,0.0,0.0,0.0,0.0,0.0,0.0,0.0,0.0,0.0,0.0,0.0,0.0,0.0,0.0,0.0,0.0,0.0,0.0,0.0,0.0,0.0,0.0,0.0,0.0,0.0,0.0,0.0,0.0,0.0,0.0,0.0,0.0,0.0,0.0,0.0,0.0,0.0,0.0,0.0,0.0,0.0,0.0,0.0,0.0,0.0,0.0,0.0,0.0,0.0,0.0,0.0,0.0,0.0,0.0,0.0,0.0,0.0,0.0,0.0,0.0,0.0,0.0,0.0,0.0,-2.5563,-2.5582,-2.5635,-2.5703,-2.5703,-2.5176,0.0,0.0,0.0,0.0,0.0,0.0,0.0,0.0,0.0,0.0,0.0,0.0,0.0,0.0,0.0,0.0,0.0,0.0,0.0,0.0,0.0,0.0,0.0,0.0,0.0,0.0,0.0,0.0,0.0,0.0,0.0,0.0,0.0,0.0,0.0,0.0,0.0,0.0,0.0,0.0,0.0,0.0,0.0,0.0,0.0,0.0,0.0,0.0,0.0,0.0,0.0,0.0,0.0,0.0,0.0,0.0,0.0,0.0,0.0,0.0,0.0,0.0,0.0,0.0,0.0,0.0,0.0,0.0,0.0,0.0,0.0,0.0,0.0,0.0,0.0,0.0,0.0,0.0,0.0,0.0,0.0,0.0,0.0,0.0,0.0,0.0,0.0,0.0,0.0,0.0,0.0,0.0,0.0,0.0,0.0,0.0,0.0,0.0,0.0,0.0,0.0,0.0,0.0,0.0,0.0,0.0,0.0,0.0,0.0,-2.563,-2.5631,-2.5652,-2.5703,-2.5703,-2.5293,-2.4453,0.0,0.0,0.0,0.0,0.0,0.0,0.0,0.0,0.0,0.0,0.0,0.0,0.0,0.0,0.0,0.0,0.0,0.0,0.0,0.0,0.0,0.0,0.0,0.0,0.0,0.0,0.0,0.0,0.0,0.0,0.0,0.0,0.0,0.0,0.0,0.0,0.0,0.0,0.0,0.0,0.0,0.0,0.0,0.0,0.0,0.0,0.0,0.0,0.0,0.0,0.0,0.0,0.0,0.0,0.0,0.0,0.0,0.0,0.0,0.0,0.0,0.0,0.0,0.0,0.0,0.0,0.0,0.0,0.0,0.0,0.0,0.0,0.0,0.0,0.0,0.0,0.0,0.0,0.0,0.0,0.0,0.0,0.0,0.0,0.0,0.0,0.0,0.0,0.0,0.0,0.0,0.0,0.0,0.0,0.0,0.0,0.0,0.0,0.0,0.0,0.0,0.0,0.0,0.0,0.0,0.0,0.0,0.0,-2.5707,-2.5701,-2.5703,-2.5703,-2.5703,-2.5312,0.0,0.0,0.0,0.0,0.0,0.0,0.0,0.0,0.0,0.0,0.0,0.0,0.0,0.0,0.0,0.0,0.0,0.0,0.0,0.0,0.0,0.0,0.0,0.0,0.0,0.0,0.0,0.0,0.0,0.0,0.0,0.0,0.0,0.0,0.0,0.0,0.0,0.0,0.0,0.0,0.0,0.0,0.0,0.0,0.0,0.0,0.0,0.0,0.0,0.0,0.0,0.0,0.0,0.0,0.0,0.0,0.0,0.0,0.0,0.0,0.0,0.0,0.0,0.0,0.0,0.0,0.0,0.0,0.0,0.0,0.0,0.0,0.0,0.0,0.0,0.0,0.0,0.0,0.0,0.0,0.0,0.0,0.0,0.0,0.0,0.0,0.0,0.0,0.0,0.0,0.0,0.0,0.0,0.0,0.0,0.0,0.0,0.0,0.0,0.0,0.0,0.0,0.0,0.0,0.0,0.0,0.0,0.0,0.0,-2.5693,-2.57,-2.5703,-2.5703,-2.5703,-2.5586,0.0,0.0,0.0,0.0,0.0,0.0,0.0,0.0,0.0,0.0,0.0,0.0,0.0,0.0,0.0,0.0,0.0,0.0,0.0,0.0,0.0,0.0,0.0,0.0,0.0,0.0,0.0,0.0,0.0,0.0,0.0,0.0,0.0,0.0,0.0,0.0,0.0,0.0,0.0,0.0,0.0,0.0,0.0,0.0,0.0,0.0,0.0,0.0,0.0,0.0,0.0,0.0,0.0,0.0,0.0,0.0,0.0,0.0,0.0,0.0,0.0,0.0,0.0,0.0,0.0,0.0,0.0,0.0,0.0,0.0,0.0,0.0,0.0,0.0,0.0,0.0,0.0,0.0,0.0,0.0,0.0,0.0,0.0,0.0,0.0,0.0,0.0,0.0,0.0,0.0,0.0,0.0,0.0,0.0,0.0,0.0,0.0,0.0,0.0,0.0,0.0,0.0,0.0,0.0,0.0,0.0,0.0,0.0,-2.5699,-2.5703,-2.5703,-2.5703,-2.5703,-2.5703,-2.5703,0.0,0.0,0.0,0.0,0.0,0.0,0.0,0.0,0.0,0.0,0.0,0.0,0.0,0.0,0.0,0.0,0.0,0.0,0.0,0.0,0.0,0.0,0.0,0.0,0.0,0.0,0.0,0.0,0.0,0.0,0.0,0.0,0.0,0.0,0.0,0.0,0.0,0.0,0.0,0.0,0.0,0.0,0.0,0.0,0.0,0.0,0.0,0.0,0.0,0.0,0.0,0.0,0.0,0.0,0.0,0.0,0.0,0.0,0.0,0.0,0.0,0.0,0.0,0.0,0.0,0.0,0.0,0.0,0.0,0.0,0.0,0.0,0.0,0.0,0.0,0.0,0.0,0.0,0.0,0.0,0.0,0.0,0.0,0.0,0.0,0.0,0.0,0.0,0.0,0.0,0.0,0.0,0.0,0.0,0.0,0.0,0.0,0.0,0.0,0.0,0.0,0.0,0.0,0.0,0.0,0.0,0.0,0.0,-2.5703,-2.5703,-2.5703,-2.5703,-2.5703,-2.5703,-2.5703,0.0,0.0,0.0,0.0,0.0,0.0,0.0,0.0,0.0,0.0,0.0,0.0,0.0,0.0,0.0,0.0,0.0,0.0,0.0,0.0,0.0,0.0,0.0,0.0,0.0,0.0,0.0,0.0,0.0,0.0,0.0,0.0,0.0,0.0,0.0,0.0,0.0,0.0,0.0,0.0,0.0,0.0,0.0,0.0,0.0,0.0,0.0,0.0,0.0,0.0,0.0,0.0,0.0,0.0,0.0,0.0,0.0,0.0,0.0,0.0,0.0,0.0,0.0,0.0,0.0,0.0,0.0,0.0,0.0,0.0,0.0,0.0,0.0,0.0,0.0,0.0,0.0,0.0,0.0,0.0,0.0,0.0,0.0,0.0,0.0,0.0,0.0,0.0,0.0,0.0,0.0,0.0,0.0,0.0,0.0,0.0,0.0,0.0,0.0,0.0,0.0,0.0,0.0,0.0,0.0,0.0,0.0,0.0,-2.5703,-2.5703,-2.5703,-2.5703,-2.5703,-2.5703,-2.5703,0.0,0.0,0.0,0.0,0.0,0.0,0.0,0.0,0.0,0.0,0.0,0.0,0.0,0.0,0.0,0.0,0.0,0.0,0.0,0.0,0.0,0.0,0.0,0.0,0.0,0.0,0.0,0.0,0.0,0.0,0.0,0.0,0.0,0.0,0.0,0.0,0.0,0.0,0.0,0.0,0.0,0.0,0.0,0.0,0.0,0.0,0.0,0.0,-2.4367,0.0,0.0,0.0,0.0,0.0,0.0,0.0,0.0,0.0,0.0,0.0,0.0,0.0,0.0,0.0,0.0,0.0,0.0,0.0,0.0,0.0,0.0,0.0,0.0,0.0,0.0,0.0,0.0,0.0,0.0,0.0,0.0,0.0,0.0,0.0,0.0,0.0,0.0,0.0,0.0,0.0,0.0,0.0,0.0,0.0,0.0,0.0,0.0,0.0,0.0,0.0,0.0,0.0,0.0,0.0,0.0,0.0,0.0,0.0,-2.5703,-2.5703,-2.5703,-2.5703,-2.5703,-2.5703,-2.5703,0.0,0.0,0.0,0.0,0.0,0.0,0.0,0.0,0.0,0.0,0.0,0.0,0.0,0.0,0.0,0.0,0.0,0.0,0.0,0.0,0.0,0.0,0.0,0.0,0.0,0.0,0.0,0.0,0.0,0.0,0.0,0.0,0.0,0.0,0.0,0.0,0.0,0.0,0.0,0.0,0.0,0.0,0.0,0.0,0.0,0.0,0.0,0.0,0.0,0.0,0.0,0.0,0.0,0.0,0.0,0.0,0.0,0.0,0.0,0.0,0.0,0.0,0.0,0.0,0.0,0.0,0.0,0.0,0.0,0.0,0.0,0.0,0.0,0.0,0.0,0.0,0.0,0.0,0.0,0.0,0.0,0.0,0.0,0.0,0.0,0.0,0.0,0.0,0.0,0.0,0.0,0.0,0.0,0.0,0.0,0.0,0.0,0.0,0.0,0.0,0.0,0.0,0.0,0.0,0.0,0.0,0.0,-2.5703,-2.5703,-2.5703,-2.5703,-2.5702,-2.5694,-2.5702,-2.5703,-2.5684,0.0,0.0,0.0,0.0,0.0,0.0,0.0,0.0,0.0,0.0,0.0,0.0,0.0,0.0,0.0,0.0,0.0,0.0,0.0,0.0,0.0,0.0,0.0,0.0,0.0,0.0,0.0,0.0,0.0,0.0,0.0,0.0,0.0,0.0,0.0,0.0,0.0,0.0,-2.5313,-2.5313,0.0,0.0,0.0,0.0,0.0,0.0,0.0,0.0,-2.4152,0.0,0.0,0.0,0.0,0.0,0.0,0.0,0.0,0.0,0.0,0.0,0.0,0.0,0.0,0.0,0.0,0.0,0.0,0.0,0.0,0.0,0.0,0.0,0.0,0.0,0.0,0.0,0.0,0.0,0.0,0.0,0.0,0.0,0.0,0.0,0.0,0.0,0.0,0.0,0.0,0.0,0.0,0.0,0.0,0.0,0.0,0.0,0.0,0.0,0.0,0.0,0.0,0.0,0.0,0.0,0.0,-2.5703,-2.5703,-2.5703,-2.5703,-2.5703,-2.5673,-2.5615,-2.5671,-2.5664,-2.5625,0.0,0.0,0.0,0.0,0.0,0.0,0.0,0.0,0.0,0.0,0.0,0.0,0.0,0.0,0.0,0.0,0.0,0.0,0.0,0.0,0.0,0.0,0.0,0.0,0.0,0.0,0.0,0.0,0.0,0.0,0.0,0.0,0.0,0.0,0.0,0.0,0.0,0.0,0.0,-2.5313,-2.5313,0.0,0.0,0.0,0.0,0.0,0.0,0.0,0.0,-2.3964,0.0,0.0,0.0,0.0,0.0,0.0,0.0,0.0,0.0,0.0,0.0,0.0,0.0,0.0,0.0,0.0,0.0,0.0,0.0,0.0,0.0,0.0,0.0,0.0,0.0,0.0,0.0,0.0,0.0,0.0,0.0,0.0,0.0,0.0,0.0,0.0,0.0,0.0,0.0,0.0,0.0,0.0,0.0,0.0,0.0,0.0,0.0,0.0,0.0,0.0,0.0,0.0,0.0,0.0,0.0,-2.5644,-2.5652,-2.5644,-2.5644,-2.5639,-2.5641,-2.5601,-2.5615,-2.557,0.0,0.0,0.0,0.0,0.0,0.0,0.0,0.0,0.0,0.0,0.0,0.0,0.0,0.0,0.0,0.0,0.0,0.0,0.0,0.0,0.0,0.0,0.0,0.0,0.0,0.0,0.0,0.0,0.0,0.0,0.0,0.0,0.0,0.0,0.0,0.0,0.0,0.0,0.0,0.0,-2.5313,-2.5313,-2.5313,0.0,0.0,0.0,0.0,0.0,0.0,-2.3349,-2.407,0.0,0.0,0.0,0.0,0.0,0.0,0.0,0.0,0.0,0.0,0.0,0.0,0.0,0.0,0.0,0.0,0.0,0.0,0.0,0.0,0.0,0.0,0.0,0.0,0.0,0.0,0.0,0.0,0.0,0.0,0.0,0.0,0.0,0.0,0.0,0.0,0.0,0.0,0.0,0.0,0.0,0.0,0.0,0.0,0.0,0.0,0.0,0.0,0.0,0.0,0.0,0.0,0.0,0.0,0.0,-2.5572,-2.5576,-2.5576,-2.558,-2.557,-2.5581,-2.5572,-2.5505,-2.5481,0.0,0.0,0.0,0.0,0.0,0.0,0.0,0.0,0.0,0.0,0.0,0.0,0.0,0.0,0.0,0.0,0.0,0.0,0.0,0.0,0.0,0.0,0.0,0.0,0.0,0.0,0.0,0.0,0.0,0.0,0.0,0.0,0.0,0.0,0.0,0.0,0.0,0.0,0.0,0.0,0.0,-2.5313,-2.5313,-2.5313,0.0,0.0,0.0,0.0,-2.2956,-2.3627,0.0,0.0,0.0,0.0,0.0,0.0,0.0,0.0,0.0,0.0,0.0,0.0,0.0,0.0,0.0,0.0,0.0,0.0,0.0,0.0,0.0,0.0,0.0,0.0,0.0,0.0,0.0,0.0,0.0,0.0,0.0,0.0,0.0,0.0,0.0,0.0,0.0,0.0,0.0,0.0,0.0,0.0,0.0,0.0,0.0,0.0,0.0,0.0,0.0,0.0,0.0,0.0,0.0,0.0,0.0,0.0,-2.5515,-2.5523,-2.551,-2.5507,-2.5503,-2.5473,-2.5438,-2.5466,-2.5476,0.0,0.0,0.0,0.0,0.0,0.0,0.0,0.0,0.0,0.0,0.0,0.0,0.0,0.0,0.0,0.0,0.0,0.0,0.0,0.0,0.0,0.0,0.0,0.0,0.0,0.0,0.0,0.0,0.0,0.0,0.0,0.0,0.0,0.0,0.0,0.0,0.0,0.0,0.0,0.0,0.0,-2.5313,-2.5313,-2.5313,-2.5014,0.0,0.0,-2.3802,-2.2936,-2.361,0.0,0.0,0.0,0.0,0.0,0.0,0.0,0.0,0.0,0.0,0.0,0.0,0.0,0.0,0.0,0.0,0.0,0.0,0.0,0.0,0.0,0.0,0.0,0.0,0.0,0.0,0.0,0.0,0.0,0.0,0.0,0.0,0.0,0.0,0.0,0.0,0.0,0.0,0.0,0.0,0.0,0.0,0.0,0.0,0.0,0.0,0.0,0.0,0.0,0.0,0.0,0.0,0.0,0.0,0.0,-2.5644,-2.614,-2.5697,-2.5677,-2.6126,-2.5701,-2.5432,-2.539,-2.539,-2.539,0.0,0.0,0.0,0.0,0.0,0.0,0.0,0.0,0.0,0.0,0.0,0.0,0.0,0.0,0.0,0.0,0.0,0.0,0.0,0.0,0.0,0.0,0.0,0.0,0.0,0.0,0.0,0.0,0.0,0.0,0.0,0.0,0.0,0.0,0.0,0.0,0.0,0.0,0.0,0.0,0.0,0.0,-2.5313,-2.5313,0.0,0.0,0.0,-2.3956,-2.361,0.0,0.0,0.0,0.0,0.0,0.0,0.0,0.0,0.0,0.0,0.0,0.0,0.0,0.0,0.0,0.0,0.0,0.0,0.0,0.0,0.0,0.0,0.0,0.0,0.0,0.0,0.0,0.0,0.0,0.0,0.0,0.0,0.0,0.0,0.0,0.0,0.0,0.0,0.0,0.0,0.0,0.0,0.0,0.0,0.0,0.0,0.0,0.0,0.0,0.0,0.0,0.0,0.0,0.0,0.0,0.0,0.0,-2.6649,-2.6033,-2.6015,-2.6631,-2.5823,-2.537,-2.537,-2.5332,0.0,0.0,0.0,0.0,0.0,0.0,0.0,0.0,0.0,0.0,0.0,0.0,0.0,0.0,0.0,0.0,0.0,0.0,0.0,0.0,0.0,0.0,0.0,0.0,0.0,0.0,0.0,-2.1479,0.0,0.0,0.0,0.0,0.0,0.0,0.0,0.0,0.0,0.0,0.0,0.0,0.0,0.0,-2.5313,-2.5313,-2.5313,-2.5091,0.0,0.0,-2.4418,-2.4409,-2.4399,-2.4524,0.0,0.0,0.0,0.0,0.0,0.0,0.0,0.0,0.0,0.0,0.0,0.0,0.0,0.0,0.0,0.0,0.0,0.0,0.0,0.0,0.0,0.0,0.0,0.0,0.0,0.0,0.0,0.0,0.0,0.0,0.0,0.0,0.0,0.0,0.0,0.0,0.0,0.0,0.0,0.0,0.0,0.0,0.0,0.0,0.0,0.0,0.0,0.0,0.0,0.0,0.0,0.0,0.0,0.0,0.0,-2.6621,-2.6544,-2.6544,-2.6601,-2.5755,-2.5313,-2.5313,-2.5313,-2.5313,0.0,0.0,0.0,0.0,0.0,0.0,0.0,0.0,0.0,0.0,0.0,0.0,0.0,0.0,0.0,0.0,0.0,0.0,0.0,0.0,0.0,0.0,0.0,0.0,0.0,0.0,0.0,0.0,0.0,0.0,0.0,0.0,0.0,0.0,0.0,0.0,0.0,0.0,0.0,0.0,0.0,-2.5313,-2.5313,-2.5313,-2.5293,0.0,-2.5207,-2.5207,-2.5216,-2.5216,-2.4986,-2.4302,0.0,0.0,0.0,0.0,0.0,0.0,0.0,0.0,0.0,0.0,0.0,0.0,0.0,0.0,0.0,0.0,0.0,0.0,0.0,0.0,0.0,0.0,0.0,0.0,0.0,0.0,0.0,0.0,0.0,0.0,0.0,0.0,0.0,0.0,0.0,0.0,0.0,0.0,0.0,0.0,0.0,0.0,0.0,0.0,0.0,0.0,0.0,0.0,0.0,0.0,0.0,0.0,0.0,-2.6851,-2.739,-2.6871,-2.6871,-2.7332,-2.6024,-2.5313,-2.5313,-2.5313,-2.5313,0.0,0.0,0.0,0.0,0.0,0.0,0.0,0.0,0.0,0.0,0.0,0.0,0.0,0.0,0.0,0.0,0.0,0.0,0.0,0.0,0.0,0.0,0.0,0.0,0.0,0.0,0.0,0.0,-2.2769,-2.3437,-2.4265,0.0,0.0,0.0,0.0,0.0,0.0,0.0,0.0,0.0,0.0,-2.5313,-2.5313,-2.5313,0.0,0.0,-2.5313,-2.5313,-2.5313,-2.5313,-2.5187,-2.4889,-2.5091,0.0,0.0,0.0,0.0,0.0,0.0,0.0,0.0,0.0,0.0,0.0,0.0,0.0,0.0,0.0,0.0,0.0,0.0,0.0,0.0,0.0,0.0,0.0,0.0,0.0,0.0,0.0,0.0,0.0,0.0,0.0,0.0,0.0,0.0,0.0,0.0,0.0,0.0,0.0,0.0,0.0,0.0,0.0,0.0,0.0,0.0,0.0,0.0,0.0,0.0,0.0,0.0,-2.7274,-2.789,-2.7544,-2.764,-2.8236,-2.6582,-2.5678,-2.5678,-2.5418,-2.5313,0.0,0.0,0.0,0.0,0.0,0.0,0.0,0.0,0.0,0.0,0.0,0.0,0.0,0.0,0.0,0.0,0.0,0.0,0.0,0.0,0.0,0.0,0.0,0.0,0.0,0.0,0.0,0.0,-2.373,-2.4416,-2.5197,0.0,0.0,0.0,0.0,0.0,0.0,0.0,0.0,0.0,0.0,-2.5332,-2.5313,-2.5332,-2.5332,-2.5313,-2.5313,-2.5313,-2.5313,-2.5313,-2.5207,-2.5005,0.0,0.0,0.0,0.0,0.0,0.0,0.0,0.0,0.0,0.0,0.0,0.0,0.0,0.0,0.0,0.0,0.0,0.0,0.0,0.0,0.0,0.0,0.0,0.0,0.0,0.0,0.0,-2.5313,0.0,0.0,-2.5313,0.0,0.0,0.0,0.0,0.0,0.0,0.0,0.0,0.0,0.0,0.0,0.0,0.0,0.0,0.0,0.0,0.0,0.0,0.0,0.0,0.0,0.0,-2.7871,-2.7909,-2.8613,-2.9036,-2.9025,-2.7428,-2.6563,-2.6544,-2.5755,-2.5293,-2.5274,0.0,0.0,0.0,0.0,0.0,0.0,0.0,0.0,0.0,0.0,0.0,0.0,0.0,0.0,0.0,0.0,0.0,0.0,0.0,0.0,0.0,0.0,0.0,0.0,0.0,0.0,-2.4082,-2.4101,-2.4418,0.0,0.0,0.0,0.0,0.0,0.0,0.0,0.0,0.0,0.0,-2.5351,-2.539,-2.5303,-2.5351,-2.537,-2.5313,-2.5313,-2.5313,-2.5313,-2.5313,-2.5063,0.0,0.0,0.0,0.0,0.0,0.0,0.0,0.0,0.0,0.0,0.0,0.0,0.0,0.0,0.0,0.0,0.0,0.0,0.0,0.0,0.0,0.0,0.0,0.0,0.0,0.0,0.0,-2.6178,-2.6159,0.0,0.0,0.0,0.0,0.0,0.0,0.0,0.0,0.0,0.0,0.0,-2.6631,-2.689,0.0,0.0,0.0,0.0,0.0,0.0,0.0,0.0,0.0,0.0,0.0,0.0,-2.789,-2.7928,-2.8679,-2.9113,-2.9063,-2.7467,-2.6621,-2.6582,-2.5745,-2.5043,-2.4524,0.0,0.0,0.0,0.0,0.0,0.0,0.0,0.0,0.0,0.0,0.0,0.0,0.0,0.0,0.0,0.0,0.0,0.0,0.0,0.0,0.0,0.0,0.0,0.0,0.0,-2.4889,0.0,0.0,0.0,0.0,0.0,0.0,0.0,0.0,0.0,0.0,0.0,-2.5313,-2.5313,-2.5332,-2.5324,-2.5368,-2.5381,-2.5409,0.0,0.0,0.0,0.0,0.0,0.0,0.0,0.0,0.0,0.0,0.0,0.0,0.0,0.0,-2.5615,-2.5504,-2.5266,-2.5046,-2.5051,0.0,0.0,0.0,0.0,0.0,0.0,0.0,0.0,0.0,0.0,0.0,0.0,0.0,0.0,-2.7044,0.0,-2.7044,0.0,0.0,0.0,0.0,0.0,0.0,0.0,0.0,-2.7044,-2.7351,-2.789,-2.789,-2.789,0.0,-2.8179,-2.7717,0.0,0.0,0.0,0.0,0.0,0.0,0.0,0.0,-2.8313,-2.8352,-2.9121,-2.9563,-2.9486,-2.8179,-2.7332,-2.7044,-2.5909,-2.5034,-2.4524,-2.4505,-2.412,0.0,0.0,0.0,0.0,0.0,0.0,0.0,0.0,0.0,0.0,0.0,0.0,0.0,0.0,0.0,0.0,0.0,0.0,0.0,0.0,0.0,0.0,0.0,-2.5313,0.0,0.0,0.0,0.0,0.0,0.0,0.0,0.0,0.0,-2.536,-2.5313,-2.5409,-2.5726,-2.5505,-2.544,-2.5753,0.0,0.0,0.0,0.0,0.0,0.0,0.0,-2.6343,-2.64,-2.6102,-2.5802,-2.555,-2.5531,-2.5581,-2.5584,0.0,0.0,-2.5574,-2.5551,-2.5515,-2.5517,-2.5514,-2.5476,-2.5476,-2.5456,-2.5432,0.0,0.0,0.0,0.0,0.0,0.0,0.0,0.0,-2.8025,-2.8005,0.0,-2.8005,0.0,0.0,0.0,0.0,-2.6736,-2.6755,0.0,0.0,-2.8063,-2.8055,-2.8102,-2.814,-2.8082,-2.8121,-2.889,-2.9236,-2.919,-2.8448,0.0,0.0,0.0,0.0,0.0,0.0,-2.9171,-2.9159,-2.9987,-3.0417,-3.034,-2.9525,-2.8679,-2.7871,-2.6255,-2.5341,-2.5322,-2.5303,-2.4947,-2.4187,-2.4091,0.0,0.0,0.0,0.0,0.0,0.0,0.0,0.0,0.0,0.0,0.0,0.0,0.0,0.0,0.0,0.0,0.0,0.0,0.0,0.0,-2.5313,0.0,0.0,0.0,0.0,0.0,0.0,0.0,0.0,0.0,0.0,-2.5659,-2.5418,-2.5707,-2.6516,0.0,0.0,0.0,0.0,-2.6744,-2.6751,-2.7449,-2.7984,-2.7983,-2.8036,-2.8078,-2.8068,0.0,0.0,-2.5753,-2.5604,-2.5642,-2.5605,-2.5625,-2.5585,-2.574,-2.5663,-2.5599,-2.5595,-2.554,-2.5484,-2.5474,-2.5512,-2.5486,-3.0794,0.0,0.0,0.0,0.0,-2.9948,-3.0371,-3.1391,-3.0198,-2.9698,-2.9698,-2.9698,0.0,0.0,0.0,0.0,0.0,0.0,-2.9794,-3.0602,-3.0621,-3.091,-3.1448,-3.1468,-3.1468,-3.1468,-3.1698,-3.1814,-3.1795,-3.1583,-3.0544,-2.8794,0.0,0.0,0.0,0.0,-3.066,-3.0121,-3.0871,-3.1025,-3.0398,-2.9544,-2.8717,-2.7909,-2.6813,-2.6236,-2.6217,-2.564,-2.5187,-2.4966,-2.4418,0.0,0.0,0.0,0.0,0.0,0.0,0.0,0.0,0.0,0.0,0.0,0.0,0.0,0.0,0.0,0.0,0.0,0.0,0.0,-2.5313,-2.5313,-2.5563,0.0,0.0,0.0,0.0,0.0,0.0,0.0,0.0,0.0,-2.7217,-2.7159,-2.7246,0.0,0.0,-2.7295,-2.7557,-2.7614,-2.7653,-2.7696,-2.7916,0.0,-2.8079,-2.8057,-2.8047,-2.809,-2.789,-2.7633,-2.7392,-2.7348,-2.7348,-2.7336,-2.6863,-2.6449,-2.6443,-2.5938,-2.5774,-2.6235,-2.5956,-2.5732,-2.622,-2.5917,-2.5425,-3.3526,-3.2801,-3.1814,-3.1698,-3.2122,-3.1621,-3.1968,-3.2814,-3.1833,-3.141,-3.1391,-3.141,-3.0929,-3.014,-3.0333,0.0,0.0,0.0,-3.1371,-3.216,-3.2179,-3.2449,-3.2872,-3.2891,-3.2891,-3.2891,-3.2891,-3.3083,-3.341,-3.341,-3.2641,-3.1179,0.0,0.0,-3.066,-3.1641,-3.1929,-3.1417,-3.1602,-3.1448,-3.0898,-2.9717,-2.8871,-2.8401,-2.7544,-2.6967,-2.6601,-2.6101,-2.5659,-2.5303,-2.4851,-2.4793,0.0,0.0,0.0,0.0,0.0,0.0,0.0,0.0,0.0,0.0,0.0,-2.5313,-2.5313,0.0,0.0,0.0,-2.5313,-2.5437,-2.5783,-2.5813,0.0,0.0,0.0,0.0,0.0,0.0,0.0,-2.7901,-2.8486,-2.8756,-2.8429,-2.8679,-2.8747,-2.8424,-2.8084,-2.8035,-2.8392,0.0,-2.8476,-2.8514,-2.8846,-2.9049,-2.9051,-2.9042,-2.8912,-2.8593,-2.855,-2.8394,-2.8067,-2.8018,-2.8016,-2.7958,-2.7582,-2.7246,-2.7219,-2.6786,-2.632,-2.6265,-2.6147,-2.6105,-2.6247,-2.5788,-2.5443,-3.6142,-3.6603,-3.4295,-3.3314,-3.3314,-3.3295,-3.3314,-3.3295,-3.3237,-3.3218,-3.3179,-3.3141,-3.2699,-3.1968,-3.116,0.0,-3.2025,-3.2064,-3.2526,-3.3218,-3.3256,-3.3314,-3.3314,-3.3333,-3.3295,-3.3333,-3.3314,-3.3718,-3.4487,-3.4449,-3.443,-3.4468,-3.3564,-3.3083,-3.3006,-3.3064,-3.3064,-3.2987,-3.2275,-3.1872,-3.1775,-3.016,-2.9325,-2.9294,-2.8448,-2.7621,-2.6851,-2.6736,-2.6313,-2.5476,-2.5399,-2.536,-2.5303,0.0,0.0,0.0,0.0,0.0,0.0,0.0,0.0,0.0,0.0,0.0,0.0,0.0,0.0,0.0,-2.5399,0.0,-2.6523,-2.6611,0.0,0.0,0.0,-2.7977,-2.8168,-2.8794,-2.8967,-2.8352,0.0,0.0,-2.9506,-3.0102,-3.0294,-2.9501,-2.8651,-2.836,-2.9094,-2.921,-2.9229,-2.9286,-2.9956,-3.0448,-3.0317,-3.039,-3.016,-2.9432,-2.9291,-2.9021,-2.839,-2.8203,-2.813,-2.8207,-2.808,-2.7988,-2.799,-2.7962,-2.7499,-2.5986,-2.6323,-2.6612,-2.5986,-2.5813,-2.5765,-3.7526,-3.7642,-3.7026,-3.6776,-3.6796,-3.6796,-3.6796,-3.6738,-3.6065,-3.5795,-3.5757,-3.5141,-3.4776,-3.457,-3.4391,-3.441,-3.4641,-3.5238,-3.5622,-3.5834,-3.6488,-3.6776,-3.6776,-3.6776,-3.6796,-3.6796,-3.6796,-3.6892,-3.7065,-3.643,-3.6449,-3.6988,-3.5622,-3.4564,-3.393,-3.4545,-3.4564,-3.3891,-3.3699,-3.3276,-3.2602,-3.1621,-3.1064,-3.1083,-2.9602,-2.8717,-2.8486,-2.7909,-2.7198,-2.6332,-2.6294,-2.6005,-2.5341,-2.5313,0.0,0.0,0.0,0.0,0.0,0.0,0.0,0.0,0.0,-2.5313,-2.5313,0.0,-2.5572,0.0,-2.6294,-2.6379,-2.6581,-2.66,0.0,0.0,-2.8276,-2.8668,-3.0547,-3.0379,-3.0525,-3.1602,-3.2071,-3.2212,-3.2025,-3.2179,-3.2218,-3.1992,-3.0729,-2.989,-3.0071,-3.009,-3.009,-3.0167,-3.0321,-3.0417,-3.0467,-3.0436,-3.039,-3.016,-3.011,-3.0033,-2.984,-2.9821,-2.9809,-2.9752,-2.9229,-2.8864,-2.881,-2.881,-2.8453,-2.7566,-2.7484,-2.7593,-2.7343,-2.7295,-2.6939,-3.8238,-3.8565,-3.8584,-3.8777,-3.9046,-3.8334,-3.8007,-3.7969,-3.7488,-3.7296,-3.7257,-3.6815,-3.6622,-3.6603,-3.6603,-3.6603,-3.6661,-3.7084,-3.7276,-3.7315,-3.7777,-3.8007,-3.8007,-3.8007,-3.8007,-3.8007,-3.8007,-3.8007,-3.7969,-3.7507,-3.7526,-3.7988,-3.7084,-3.6372,-3.5911,-3.5988,-3.5815,-3.5315,-3.4564,-3.3776,-3.2929,-3.2468,-3.2083,-3.1698,-3.0775,-2.989,-2.9121,-2.8679,-2.7871,-2.6697,-2.6621,-2.6197,-2.5341,-2.5313,-2.5313,0.0,0.0,0.0,0.0,0.0,0.0,0.0,0.0,0.0,0.0,0.0,-2.6236,-2.7101,-2.7178,-2.7332,-2.7668,-2.7698,-2.8245,-2.956,-2.9613,-3.0157,-3.1565,-3.159,-3.1872,-3.2795,-3.2897,-3.2897,-3.2891,-3.2891,-3.2891,-3.2904,-3.2102,-3.1506,-3.1511,-3.1511,-3.1511,-3.1525,-3.1499,-3.1376,-3.1037,-3.0987,-3.0833,-3.0475,-3.0398,-3.0398,-3.0398,-3.0398,-3.0398,-3.0359,-3.0002,-2.9682,-2.9663,-2.9682,-2.9509,-2.9171,-2.9002,-2.8717,-2.8055,-2.7612,-2.7024,-3.8757,-3.945,-3.945,-3.9912,-4.0546,-3.9084,-3.843,-3.8315,-3.8315,-3.8257,-3.818,-3.818,-3.8104,-3.8007,-3.8007,-3.8007,-3.8007,-3.8104,-3.818,-3.8161,-3.8257,-3.8315,-3.8315,-3.8334,-3.8315,-3.8315,-3.8315,-3.8334,-3.8315,-3.8219,-3.8219,-3.8315,-3.8084,-3.8104,-3.8257,-3.7469,-3.6988,-3.6834,-3.5315,-3.4141,-3.3391,-3.3179,-3.2737,-3.2045,-3.1814,-3.1006,-2.9506,-2.9313,-2.8544,-2.7044,-2.6909,-2.6486,-2.5514,-2.5486,-2.5418,0.0,-2.5399,0.0,0.0,0.0,0.0,0.0,0.0,0.0,0.0,-2.6871,-2.7178,-2.7832,-2.8005,-2.8332,-2.9025,-2.9105,-2.949,-3.0467,-3.1232,-3.1776,-3.2026,-3.2648,-3.3103,-3.3218,-3.3237,-3.3237,-3.3295,-3.3237,-3.3237,-3.3333,-3.3314,-3.325,-3.3198,-3.2979,-3.2762,-3.291,-3.2897,-3.2485,-3.1999,-3.1852,-3.1621,-3.0929,-3.0698,-3.0583,-3.0621,-3.0487,-3.0398,-3.0398,-3.0359,-3.0359,-3.0398,-3.0359,-3.0379,-3.0283,-3.0263,-2.9794,-2.8486,-2.7794,-2.7302,-4.0104,-4.0292,-4.0258,-4.0777,-4.1527,-4.1219,-4.0681,-4.0027,-4.0027,-3.9642,-3.9065,-3.9046,-3.8661,-3.8007,-3.8007,-3.8007,-3.8046,-3.8738,-3.9065,-3.9065,-3.9719,-4.0027,-4.0008,-4.0027,-4.0008,-4.0027,-4.0008,-4.0027,-4.0008,-3.9354,-3.9373,-3.9969,-3.8661,-3.8681,-3.9912,0.0,0.0,0.0,-3.6738,-3.6142,-3.5949,-3.4661,-3.3872,-3.3699,-3.2391,0.0,-3.1218,-3.0525,-2.9679,-2.8698,-2.8621,0.0,0.0,0.0,0.0,0.0,0.0,0.0,0.0,0.0,0.0,0.0,-2.7505,-2.7486,-2.7659,-2.8255,-2.8429,-2.7967,-2.8486,-2.8929,-2.9094,-2.9105,-2.9732,-3.1241,-3.1609,-3.2218,-3.3525,-3.3859,-3.4199,-3.493,-3.5007,-3.5007,-3.493,-3.5007,-3.4968,-3.4911,-3.4988,-3.5007,-3.4962,-3.3807,-3.2974,-3.2903,-3.3032,-3.291,-3.2705,-3.2692,-3.2622,-3.2372,-3.1845,-3.1492,-3.1376,-3.0794,-3.0417,-3.0398,-3.0398,-3.0417,-3.0398,-3.0398,-3.0448,-3.0398,-3.0398,-3.0102,-2.9102,-2.9313,-2.9333,-4.1777,-4.1777,-4.1777,-4.2047,0.0,-4.245,-4.22,-4.1797,-4.1777,-4.1546,-4.1181,-4.1181,-4.0931,-4.0508,-4.0527,-4.0277,-3.9892,-4.0354,-4.0296,-3.9931,-4.0296,-4.0489,-4.0489,-4.0489,-4.0489,-4.0489,-4.0489,-4.0489,-4.0469,-4.01,-4.0119,-4.0489,-3.9642,-3.9662,-4.045,-4.0085,-3.9469,-3.8642,-3.7796,-3.7142,-3.6699,-3.5872,-3.5045,-3.4218,-3.3372,0.0,0.0,0.0,0.0,0.0,0.0,0.0,0.0,-2.7121,0.0,-2.661,-2.6872,-2.7091,-2.7245,-2.7659,-2.8082,-2.8478,-2.889,-2.8948,-2.8525,-2.9256,-2.9583,-2.9198,-2.9506,-2.991,-3.0333,-3.0394,-3.0898,-3.2131,-3.2679,-3.3313,-3.4063,-3.4589,-3.5007,-3.5391,-3.5507,-3.5507,-3.5507,-3.5507,-3.5507,-3.5507,-3.5507,-3.5507,-3.5449,-3.4787,-3.4197,-3.4178,-3.4172,-3.4013,-3.3646,-3.3538,-3.3353,-3.2929,-3.2237,-3.1768,-3.1703,-3.0979,-3.0398,-3.0417,-3.0725,-3.0924,-3.0513,-3.0717,-3.0922,-3.0525,-3.0398,-3.0239,-2.964,-2.9665,-2.9687,-4.3085,-4.3085,-4.3085,-4.3162,-4.3316,-4.3316,-4.3412,-4.3508,0.0,0.0,0.0,-4.3085,-4.3085,-4.3085,-4.3085,-4.2701,-4.2047,-4.2027,-4.1643,-4.095,-4.095,-4.0966,-4.095,-4.0969,-4.0873,-4.0719,-4.0719,-4.0642,-4.0489,-4.0489,-4.0489,-4.0489,-4.0489,-4.0489,-4.0489,-4.0457,-4.0095,-3.9442,-3.8646,-3.7858,-3.7102,-3.691,-3.6089,-3.4544,-3.4371,-3.3858,-3.3029,-3.219,-3.1385,-3.0522,-2.985,-2.9056,-2.8115,-2.7848,-2.7759,-2.7816,-2.7772,-2.7835,-2.8038,-2.8245,-2.8621,-2.9294,-2.9987,-3.0102,-2.9371,-3.0006,-3.0398,-3.0398,-3.0398,-3.0744,-3.1602,-3.1691,-3.2069,-3.3029,-3.3776,-3.4236,-3.4428,-3.5051,-3.5468,-3.5507,-3.5507,-3.5507,-3.5507,-3.5507,-3.5507,-3.5507,-3.5507,-3.5507,-3.5507,-3.5416,-3.532,-3.532,-3.5243,-3.5147,-3.4653,-3.4436,-3.4141,-3.3583,-3.2769,-3.2154,-3.1999,-3.1306,-3.0698,-3.0698,-3.1263,-3.1296,-3.0867,-3.1333,-3.1626,-3.0987,-3.081,-3.0669,-3.0305,-2.9931,-2.9832,-4.3104,-4.3085,-4.3085,-4.3508,-4.4124,-4.4143,-4.4547,-4.5105,-4.372,-4.3104,-4.3085,-4.3085,-4.3085,-4.3085,-4.3085,-4.3028,-4.2912,-4.2912,-4.2835,-4.2739,-4.272,-4.2739,-4.272,-4.272,-4.2335,-4.1662,-4.1623,-4.1219,-4.0566,-4.0489,-4.0489,-4.0508,-4.0489,-4.0508,-4.0473,-4.0267,-4.0101,-3.9986,-3.9413,-3.8914,-3.8497,-3.7791,-3.6843,-3.5683,-3.4925,-3.4149,-3.3356,-3.2524,-3.1655,-3.0879,-3.0947,-3.0295,-2.8782,-2.8673,-2.8297,-2.7662,-2.8221,-2.8635,-2.8701,-2.9519,-3.0102,-3.0217,-3.0321,-3.034,-3.0256,-3.0321,-3.0398,-3.0398,-3.0398,-3.0756,-3.1564,-3.1744,-3.2372,-3.3775,-3.4128,-3.4485,-3.5166,-3.5397,-3.5507,-3.5507,-3.5507,-3.5507,-3.5507,-3.5507,-3.5507,-3.5507,-3.5507,-3.5507,-3.5507,-3.5507,-3.5507,-3.5507,-3.5507,-3.5449,-3.5262,-3.5301,-3.5161,-3.518,-3.4307,-3.3653,-3.3647,-3.2473,-3.1576,-3.1511,-3.1737,-3.1706,-3.1552,-3.2167,-3.2519,-3.2372,-3.2165,-3.1874,-3.1232,-3.1255,-3.1191,-4.4432,-4.4451,-4.4451,-4.4662,-4.5009,-4.4989,-4.522,-4.5528,-4.4797,-4.447,-4.4451,-4.4451,-4.4451,-4.4451,-4.4451,-4.4182,-4.3758,-4.3758,-4.3508,-4.3104,-4.3085,-4.3085,-4.3085,-4.3085,-4.2912,-4.2489,-4.2027,-4.1604,-4.12,-4.0739,-4.0739,-4.1146,-4.1027,-4.0955,-4.0899,-4.0193,-3.9838,-3.9819,-3.9583,-3.9164,-3.8527,-3.8148,-3.7291,-3.5937,-3.5482,-3.4917,-3.4127,-3.3259,-3.2637,-3.226,-3.206,-3.1537,-3.0663,-3.0753,-3.0598,-3.0059,-3.0397,-3.0709,-3.0799,-3.1404,-3.1756,-3.1756,-3.1756,-3.1756,-3.1756,-3.0929,-3.0398,-3.0398,-3.0398,-3.0936,-3.2199,-3.234,-3.3045,-3.4732,-3.4897,-3.507,-3.5397,-3.5507,-3.5507,-3.5507,-3.5507,-3.5507,-3.5507,-3.5507,-3.5507,-3.5507,-3.5507,-3.5507,-3.5507,-3.5507,-3.5507,-3.5507,-3.5507,-3.5507,-3.5507,-3.5507,-3.5507,-3.5507,-3.4768,-3.4274,-3.4147,-3.3128,-3.2487,-3.2389,-3.2685,-3.2808,-3.2492,-3.3044,-3.3259,-3.2735,-3.2598,-3.2222,-3.1789,-3.1686,-3.1514,-4.5586,-4.5586,-4.5586,-4.5586,-4.5586,-4.5586,-4.5586,-4.5586,-4.5586,-4.5586,-4.5586,-4.5586,-4.5586,-4.5586,-4.5586,-4.522,-4.4643,-4.4586,-4.4259,-4.3701,-4.3662,-4.3662,-4.3662,-4.3662,-4.3566,-4.3335,-4.2681,-4.2297,-4.2027,-4.1393,-4.1412,-4.1992,-4.1645,-4.1361,-4.1283,-4.0363,-3.9783,-3.9524,-3.9432,-3.9089,-3.8498,-3.8479,-3.7667,-3.6133,-3.6002,-3.5533,-3.4542,-3.3845,-3.3412,-3.3227,-3.2827,-3.2429,-3.2089,-3.2277,-3.2313,-3.207,-3.2089,-3.2241,-3.248,-3.2708,-3.2833,-3.2891,-3.2891,-3.2891,-3.2795,-3.1737,-3.0956,-3.0968,-3.1044,-3.1621,-3.2891,-3.3192,-3.3827,-3.5276,-3.5507,-3.5468,-3.5507,-3.5507,-3.5507,-3.5507,-3.5507,-3.5507,-3.5507,-3.5507,-3.5507,-3.5507,-3.5507,-3.5507,-3.5507,-3.5507,-3.5507,-3.5507,-3.5507,-3.5507,-3.5507,-3.5507,-3.5507,-3.5507,-3.4979,-3.4653,-3.4422,-3.3761,-3.3166,-3.3141,-3.3517,-3.3571,-3.3187,-3.3703,-3.3865,-3.3337,-3.3116,-3.2829,-3.2451,-3.18,-3.1544,-4.5586,-4.5586,-4.5586,-4.5586,-4.5586,-4.5586,-4.5586,-4.5586,-4.5586,-4.5586,-4.5586,-4.5586,-4.5586,-4.5586,-4.5586,-4.5528,-4.5432,-4.547,-4.5374,-4.5316,-4.5355,-4.5374,-4.5278,-4.5316,-4.4951,-4.4259,-4.4028,-4.3585,-4.3008,-4.2874,-4.2874,-4.2893,-4.2148,-4.1625,-4.1303,-4.0953,-4.0233,-3.9171,-3.8913,-3.8847,-3.9014,-3.904,-3.8135,-3.6325,-3.627,-3.5515,-3.4031,-3.3795,-3.3408,-3.2771,-3.2873,-3.2642,-3.1968,-3.1899,-3.1899,-3.1874,-3.1874,-3.2011,-3.2466,-3.2527,-3.2731,-3.2872,-3.2987,-3.3006,-3.2987,-3.2795,-3.266,-3.2641,-3.266,-3.2968,-3.393,-3.4052,-3.4417,-3.5315,-3.5507,-3.5507,-3.5507,-3.5507,-3.5507,-3.5507,-3.5507,-3.5507,-3.5507,-3.5507,-3.5507,-3.5507,-3.5507,-3.5507,-3.5493,-3.5451,-3.546,-3.547,-3.5479,-3.5474,-3.5493,-3.5493,-3.546,-3.546,-3.5416,-3.5229,-3.4946,-3.4389,-3.3728,-3.371,-3.3612,-3.3581,-3.3684,-3.4016,-3.4553,-3.4202,-3.3976,-3.3884,-3.3493,-3.2548,-3.1789,-4.5586,-4.5586,-4.5586,-4.5586,-4.5586,-4.5586,-4.5586,-4.5586,-4.5586,-4.5586,-4.5586,-4.5586,-4.5586,-4.5586,-4.5586,-4.5586,-4.5586,-4.5586,-4.5586,-4.5586,-4.5586,-4.5586,-4.5586,-4.5586,-4.5393,-4.5028,-4.4566,-4.4143,-4.3874,-4.3797,-4.3797,-4.3761,-4.329,-4.2699,-4.2065,-4.1089,-4.0106,-3.9136,-3.8826,-3.8762,-3.8826,-3.8873,-3.8298,-3.7121,-3.6541,-3.5771,-3.4614,-3.4064,-3.366,-3.3356,-3.3562,-3.3486,-3.3019,-3.3318,-3.3359,-3.3032,-3.3148,-3.3312,-3.35,-3.3824,-3.4093,-3.4182,-3.4342,-3.4449,-3.4449,-3.443,-3.443,-3.4314,-3.3506,-3.3256,-3.4077,-3.4206,-3.4552,-3.5295,-3.5507,-3.5507,-3.5507,-3.5507,-3.5507,-3.5507,-3.5507,-3.5474,-3.5507,-3.5507,-3.5507,-3.5507,-3.5488,-3.5488,-3.5474,-3.5372,-3.5268,-3.5262,-3.5135,-3.5193,-3.5403,-3.5354,-3.527,-3.5219,-3.5111,-3.5035,-3.4957,-3.4768,-3.4351,-3.4315,-3.4151,-3.4074,-3.4211,-3.4339,-3.4643,-3.4465,-3.4179,-3.3925,-3.3825,-3.3293,-3.2886,-4.5586,-4.5586,-4.5586,-4.5586,-4.5586,-4.5586,-4.5586,-4.5586,-4.5586,-4.5586,-4.5586,-4.5586,-4.5586,-4.5586,-4.5586,-4.5586,-4.5586,-4.5586,-4.5586,-4.5586,-4.5586,-4.5586,-4.5586,-4.5586,-4.5586,-4.549,-4.497,-4.4662,-4.4624,-4.4374,-4.4412,-4.4549,-4.4212,-4.3615,-4.2778,-4.1669,-4.056,-3.9398,-3.9116,-3.8927,-3.8744,-3.8707,-3.8303,-3.7533,-3.6927,-3.6229,-3.5404,-3.4798,-3.4486,-3.4486,-3.4652,-3.4678,-3.4522,-3.4692,-3.4479,-3.3895,-3.4048,-3.4218,-3.4223,-3.4698,-3.4974,-3.5015,-3.5239,-3.5403,-3.5398,-3.5446,-3.5507,-3.5372,-3.4353,-3.3949,-3.441,-3.4558,-3.4866,-3.5411,-3.5507,-3.5507,-3.5507,-3.5507,-3.5507,-3.5493,-3.5412,-3.5383,-3.5417,-3.5446,-3.5468,-3.5378,-3.5378,-3.5339,-3.5278,-3.5108,-3.498,-3.4999,-3.482,-3.4869,-3.5196,-3.5143,-3.5,-3.4963,-3.4832,-3.4755,-3.468,-3.4642,-3.4562,-3.4301,-3.4452,-3.441,-3.4185,-3.4279,-3.442,-3.416,-3.3944,-3.3807,-3.3807,-3.377,-3.377,-4.5586,-4.5586,-4.5586,-4.5586,-4.5586,-4.5586,-4.5586,-4.5586,-4.5586,-4.5586,-4.5586,-4.5586,-4.5586,-4.5586,-4.5586,-4.5586,-4.5586,-4.5586,-4.5586,-4.5586,-4.5586,-4.5586,-4.5586,-4.5586,-4.5605,-4.5531,-4.5417,-4.5359,-4.5377,-4.472,-4.4739,-4.5414,-4.4669,-4.3922,-4.3293,-4.3052,-4.2015,-4.0068,-3.9766,-3.946,-3.8817,-3.8707,-3.8322,-3.7654,-3.747,-3.7,-3.634,-3.6193,-3.6138,-3.6156,-3.6093,-3.613,-3.6064,-3.5376,-3.4632,-3.3989,-3.4067,-3.4199,-3.4228,-3.4504,-3.4718,-3.4755,-3.4963,-3.5122,-3.5122,-3.5324,-3.5432,-3.5493,-3.5268,-3.5229,-3.5411,-3.5334,-3.5353,-3.5468,-3.5507,-3.5507,-3.5507,-3.5507,-3.5507,-3.546,-3.532,-3.5223,-3.5174,-3.5354,-3.5383,-3.5243,-3.5152,-3.5091,-3.4894,-3.4793,-3.4742,-3.4693,-3.467,-3.467,-3.4736,-3.4747,-3.4733,-3.4674,-3.4628,-3.4617,-3.457,-3.4498,-3.4358,-3.4207,-3.4099,-3.3999,-3.3889,-3.3879,-3.3921,-3.3862,-3.3862,-3.3807,-3.3807,-3.3807,-3.3807,-4.5586,-4.5586,-4.5586,-4.5586,-4.5586,-4.5586,-4.5586,-4.5586,-4.5586,-4.5586,-4.5586,-4.5586,-4.5586,-4.5586,-4.5586,-4.5586,-4.5586,-4.5586,-4.5586,-4.5586,-4.5586,-4.5586,-4.5586,-4.54,-4.5263,-4.5262,-4.5074,-4.4966,-4.4969,-4.4855,-4.4855,-4.4893,-4.468,-4.4104,-4.341,-4.3069,-4.2053,-4.037,-4.0001,-3.9496,-3.8817,-3.8707,-3.856,-3.8248,-3.7734,-3.7367,-3.7055,-3.6578,-3.6285,-3.6285,-3.6285,-3.6285,-3.6211,-3.5495,-3.488,-3.4578,-3.4186,-3.3949,-3.3961,-3.4228,-3.4377,-3.4401,-3.4655,-3.4851,-3.4851,-3.4944,-3.507,-3.5187,-3.5239,-3.5477,-3.6017,-3.5834,-3.5507,-3.5507,-3.5507,-3.5565,-3.5507,-3.5507,-3.5507,-3.5474,-3.5417,-3.5369,-3.5411,-3.5446,-3.5455,-3.5383,-3.5356,-3.521,-3.4983,-3.4806,-3.4606,-3.4415,-3.4245,-3.4148,-3.4111,-3.4293,-3.4375,-3.433,-3.4274,-3.4167,-3.4086,-3.4185,-3.4126,-3.4026,-3.3844,-3.3825,-3.3825,-3.3825,-3.3807,-3.3807,-3.3807,-3.3807,-3.3807,-3.3807,-3.3807,-4.5586,-4.5586,-4.5586,-4.5586,-4.5586,-4.5586,-4.5586,-4.5586,-4.5586,-4.5586,-4.5586,-4.5586,-4.5586,-4.5586,-4.5586,-4.5586,-4.5586,-4.5586,-4.555,-4.5457,-4.5438,-4.5381,-4.5243,-4.5033,-4.4943,-4.4919,-4.4707,-4.458,-4.4606,-4.4825,-4.4825,-4.4606,-4.458,-4.4263,-4.3595,-4.3276,-4.2422,-4.1174,-4.0762,-4.0194,-3.9258,-3.9093,-3.8946,-3.867,-3.8157,-3.7881,-3.7863,-3.7349,-3.7074,-3.7074,-3.7074,-3.6945,-3.6652,-3.6138,-3.5697,-3.5404,-3.4998,-3.4684,-3.4595,-3.4637,-3.458,-3.4457,-3.4465,-3.4529,-3.4551,-3.4632,-3.4774,-3.4926,-3.5,-3.5375,-3.6064,-3.5944,-3.582,-3.6175,-3.629,-3.6309,-3.6295,-3.6334,-3.6306,-3.6285,-3.6368,-3.6195,-3.5859,-3.5869,-3.5666,-3.5359,-3.5231,-3.5097,-3.4749,-3.4537,-3.4338,-3.4091,-3.3944,-3.3887,-3.3905,-3.4049,-3.4148,-3.4092,-3.4463,-3.4181,-3.3899,-3.3972,-3.3999,-3.3862,-3.3807,-3.3807,-3.3807,-3.3807,-3.3807,-3.3807,-3.3807,-3.3807,-3.3807,-3.3807,-3.3807,-4.5586,-4.5586,-4.5586,-4.5586,-4.5586,-4.5586,-4.5586,-4.5586,-4.5586,-4.5586,-4.5531,-4.5568,-4.5513,-4.5531,-4.5513,-4.5568,-4.5513,-4.5513,-4.5419,-4.5222,-4.518,-4.5011,-4.4781,-4.4732,-4.4631,-4.458,-4.458,-4.4553,-4.4501,-4.4572,-4.4553,-4.4553,-4.4501,-4.4252,-4.3979,-4.3806,-4.3336,-4.2364,-4.2047,-4.1387,-4.012,-3.99,-3.9606,-3.8964,-3.8836,-3.8781,-3.8707,-3.8615,-3.8487,-3.8542,-3.8542,-3.8285,-3.7588,-3.7331,-3.7055,-3.6434,-3.6463,-3.6445,-3.6159,-3.5695,-3.528,-3.4932,-3.455,-3.4349,-3.4409,-3.4592,-3.4764,-3.4843,-3.4939,-3.5205,-3.5891,-3.6115,-3.6511,-3.7646,-3.7607,-3.7579,-3.7732,-3.7896,-3.7836,-3.75,-3.7491,-3.7402,-3.6673,-3.6326,-3.5983,-3.5105,-3.4779,-3.4694,-3.4395,-3.426,-3.396,-3.399,-3.4247,-3.4449,-3.4137,-3.3844,-3.3925,-3.4036,-3.454,-3.466,-3.422,-3.4137,-3.4164,-3.4072,-3.3825,-3.3807,-3.3807,-3.3807,-3.3807,-3.3807,-3.3807,-3.3807,-3.3807,-3.3807,-3.3807,-4.5586,-4.5586,-4.5586,-4.5586,-4.5586,-4.5586,-4.5586,-4.5586,-4.5586,-4.5476,-4.5283,-4.5243,-4.514,-4.5011,-4.5159,-4.5159,-4.4943,-4.5159,-4.5322,-4.54,-4.5419,-4.5342,-4.5222,-4.5033,-4.4682,-4.4261,-4.4175,-4.4046,-4.3931,-4.4076,-4.4076,-4.3899,-4.3855,-4.3809,-4.366,-4.3627,-4.3177,-4.243,-4.2304,-4.1772,-4.0836,-4.0726,-4.0598,-4.0414,-4.0359,-4.012,-3.9551,-3.9001,-3.8726,-3.8707,-3.8707,-3.8579,-3.8285,-3.7771,-3.7415,-3.7121,-3.6648,-3.639,-3.6323,-3.613,-3.5745,-3.5174,-3.485,-3.4774,-3.4739,-3.4862,-3.5039,-3.5282,-3.5741,-3.6274,-3.6691,-3.7255,-3.749,-3.7382,-3.7382,-3.7515,-3.7584,-3.7489,-3.7335,-3.7274,-3.7334,-3.6955,-3.6348,-3.6217,-3.5926,-3.5047,-3.4792,-3.4756,-3.4929,-3.4902,-3.5155,-3.544,-3.5459,-3.5257,-3.511,-3.4917,-3.4862,-3.4926,-3.522,-3.5247,-3.477,-3.4706,-3.4687,-3.4283,-3.4036,-3.3844,-3.3844,-3.3807,-3.3807,-3.3807,-3.3807,-3.3807,-3.3807,-3.3807,-3.3807,-4.5586,-4.5586,-4.5586,-4.5513,-4.5419,-4.5419,-4.5342,-4.5223,-4.5223,-4.5099,-4.4943,-4.4919,-4.4781,-4.4676,-4.4825,-4.48,-4.4631,-4.4806,-4.5011,-4.5161,-4.5055,-4.5014,-4.4973,-4.4811,-4.4401,-4.3912,-4.3804,-4.3693,-4.3513,-4.3693,-4.3693,-4.3548,-4.3479,-4.3513,-4.3479,-4.3479,-4.3204,-4.28,-4.2745,-4.2359,-4.1717,-4.1552,-4.1423,-4.113,-4.0818,-4.0414,-3.9863,-3.9129,-3.8707,-3.8707,-3.8707,-3.8707,-3.8652,-3.8212,-3.7936,-3.7845,-3.7514,-3.7221,-3.7154,-3.6955,-3.6529,-3.5999,-3.5662,-3.5506,-3.5477,-3.5495,-3.5588,-3.5843,-3.621,-3.6734,-3.72,-3.7654,-3.7859,-3.7764,-3.7991,-3.8007,-3.8035,-3.8056,-3.8083,-3.8143,-3.8128,-3.7593,-3.7049,-3.6767,-3.6402,-3.5678,-3.5438,-3.5434,-3.5762,-3.5762,-3.6062,-3.6087,-3.5659,-3.5705,-3.6119,-3.6036,-3.5897,-3.5962,-3.6083,-3.5852,-3.5439,-3.5864,-3.6012,-3.4981,-3.4457,-3.4109,-3.4054,-3.3862,-3.3807,-3.3807,-3.3807,-3.3807,-3.3807,-3.3807,-3.3807,-4.5586,-4.5586,-4.5586,-4.5419,-4.5159,-4.5137,-4.4966,-4.4657,-4.4631,-4.4631,-4.458,-4.4553,-4.4527,-4.4527,-4.4527,-4.4501,-4.4527,-4.4508,-4.4527,-4.4447,-4.4233,-4.4146,-4.4261,-4.4186,-4.3955,-4.366,-4.3582,-4.3513,-4.3497,-4.3548,-4.3479,-4.3479,-4.3479,-4.3479,-4.3479,-4.3479,-4.3461,-4.3387,-4.3406,-4.302,-4.2396,-4.2359,-4.2011,-4.1295,-4.0653,-4.0194,-3.9827,-3.9148,-3.8707,-3.8707,-3.8707,-3.8707,-3.8707,-3.8707,-3.8634,-3.8597,-3.867,-3.8542,-3.8456,-3.7918,-3.7461,-3.7239,-3.667,-3.6358,-3.6358,-3.634,-3.6387,-3.6415,-3.6599,-3.6857,-3.7393,-3.7708,-3.7995,-3.8584,-3.8847,-3.9169,-3.946,-3.9365,-3.9158,-3.925,-3.9435,-3.9152,-3.808,-3.7948,-3.7472,-3.6788,-3.6408,-3.6339,-3.6459,-3.6457,-3.6425,-3.6352,-3.638,-3.6556,-3.7129,-3.7026,-3.6905,-3.7063,-3.7037,-3.6604,-3.6153,-3.6479,-3.6673,-3.5662,-3.5018,-3.4641,-3.4301,-3.4209,-3.3962,-3.3807,-3.3807,-3.3807,-3.3807,-3.3807,-3.3807,-4.5586,-4.5586,-4.5586,-4.54,-4.5118,-4.5115,-4.4896,-4.4606,-4.458,-4.4392,-4.4204,-4.4146,-4.4016,-4.3836,-4.4046,-4.4035,-4.3931,-4.4046,-4.4004,-4.3791,-4.3693,-4.3974,-4.428,-4.4117,-4.3955,-4.3836,-4.3597,-4.3479,-4.3479,-4.3479,-4.3479,-4.3479,-4.3479,-4.3479,-4.3479,-4.3479,-4.3479,-4.3479,-4.3479,-4.3406,-4.3204,-4.313,-4.2782,-4.2066,-4.1735,-4.102,-3.9992,-3.9129,-3.8707,-3.8707,-3.8707,-3.8707,-3.8707,-3.8707,-3.8707,-3.8707,-3.8707,-3.8707,-3.867,-3.8493,-3.8108,-3.7569,-3.736,-3.7213,-3.7184,-3.7165,-3.7165,-3.7276,-3.7661,-3.7863,-3.7728,-3.8021,-3.8462,-3.8634,-3.8903,-3.8995,-3.897,-3.8944,-3.8931,-3.8931,-3.897,-3.8563,-3.809,-3.7719,-3.7441,-3.6727,-3.6541,-3.6655,-3.6893,-3.7209,-3.7223,-3.7814,-3.7979,-3.7979,-3.8065,-3.7961,-3.7998,-3.8145,-3.7973,-3.7496,-3.6905,-3.6527,-3.6467,-3.5987,-3.5956,-3.5653,-3.5128,-3.4778,-3.4393,-3.3999,-3.3825,-3.3825,-3.3807,-3.3807,-3.3807,-4.5586,-4.5586,-4.5586,-4.5419,-4.5096,-4.4943,-4.4682,-4.4346,-4.4194,-4.4004,-4.3836,-4.3772,-4.3679,-4.3548,-4.3712,-4.3693,-4.3548,-4.3693,-4.3679,-4.3529,-4.3513,-4.3726,-4.4004,-4.3986,-4.3924,-4.3772,-4.3597,-4.3513,-4.3479,-4.3479,-4.3479,-4.3479,-4.3479,-4.3479,-4.3479,-4.3479,-4.3479,-4.3479,-4.3479,-4.3479,-4.3479,-4.3479,-4.3277,-4.2782,-4.2506,-4.1552,-4.0047,-3.9111,-3.8707,-3.8707,-3.8707,-3.8707,-3.8707,-3.8707,-3.8707,-3.8707,-3.8707,-3.8707,-3.8707,-3.8707,-3.8505,-3.812,-3.8021,-3.7991,-3.7991,-3.7991,-3.7991,-3.8065,-3.8487,-3.8414,-3.8212,-3.845,-3.867,-3.8707,-3.8707,-3.8707,-3.8707,-3.8707,-3.8707,-3.8707,-3.867,-3.8579,-3.801,-3.7734,-3.7331,-3.6953,-3.6919,-3.7099,-3.7357,-3.7705,-3.801,-3.8383,-3.8261,-3.7882,-3.7894,-3.7894,-3.7906,-3.8163,-3.831,-3.7924,-3.7723,-3.7028,-3.6997,-3.6961,-3.6883,-3.6619,-3.5956,-3.5331,-3.4797,-3.4439,-3.4091,-3.3862,-3.3862,-3.3707,-3.3753,-4.5586,-4.5531,-4.5531,-4.5323,-4.4943,-4.4657,-4.4308,-4.3924,-4.366,-4.3548,-4.3513,-4.3513,-4.3513,-4.3479,-4.3548,-4.3513,-4.3479,-4.3529,-4.3513,-4.3479,-4.3479,-4.3563,-4.3631,-4.3836,-4.374,-4.3563,-4.3513,-4.3479,-4.3479,-4.3479,-4.3479,-4.3479,-4.3479,-4.3479,-4.3479,-4.3479,-4.3479,-4.3479,-4.3479,-4.3479,-4.3479,-4.3479,-4.3332,-4.2983,-4.2121,-4.113,-3.99,-3.9074,-3.8707,-3.8707,-3.8707,-3.8707,-3.8707,-3.8707,-3.8707,-3.8707,-3.8707,-3.8707,-3.8707,-3.8707,-3.8707,-3.8597,-3.8615,-3.8707,-3.8597,-3.856,-3.856,-3.8542,-3.8689,-3.8652,-3.8634,-3.8707,-3.8707,-3.8707,-3.8707,-3.8707,-3.8707,-3.8707,-3.8707,-3.8707,-3.8707,-3.8707,-3.8524,-3.8138,-3.7606,-3.7268,-3.7191,-3.7149,-3.7241,-3.7296,-3.7717,-3.8242,-3.79,-3.7296,-3.7454,-3.7668,-3.7711,-3.7851,-3.8077,-3.8059,-3.8414,-3.8077,-3.8022,-3.7924,-3.7728,-3.7246,-3.6625,-3.6007,-3.545,-3.4972,-3.4734,-3.433,-3.3954,-3.3661,-3.355,-4.5438,-4.5182,-4.5182,-4.483,-4.4271,-4.4146,-4.3943,-4.3646,-4.3548,-4.3479,-4.3479,-4.3479,-4.3479,-4.3479,-4.3479,-4.3479,-4.3479,-4.3479,-4.3479,-4.3479,-4.3479,-4.3479,-4.3513,-4.3612,-4.3563,-4.3479,-4.3479,-4.3479,-4.3479,-4.3479,-4.3479,-4.3479,-4.3479,-4.3479,-4.3479,-4.3479,-4.3479,-4.3479,-4.3479,-4.3479,-4.3479,-4.3461,-4.3204,-4.2598,-4.1295,-4.0065,-3.9203,-3.8781,-3.8707,-3.8707,-3.8707,-3.8707,-3.8707,-3.8707,-3.8707,-3.8707,-3.8707,-3.8707,-3.8707,-3.8707,-3.8707,-3.8707,-3.8707,-3.8707,-3.8707,-3.8707,-3.8707,-3.8707,-3.8707,-3.8707,-3.8707,-3.8707,-3.8707,-3.8707,-3.8707,-3.8707,-3.8707,-3.8707,-3.8707,-3.8707,-3.8707,-3.8707,-3.8689,-3.8505,-3.8095,-3.7665,-3.7342,-3.7173,-3.7051,-3.696,-3.7539,-3.8157,-3.7796,-3.7418,-3.7845,-3.7955,-3.7857,-3.7826,-3.7943,-3.8187,-3.8511,-3.8689,-3.8456,-3.8438,-3.8505,-3.7918,-3.7186,-3.6934,-3.6431,-3.5912,-3.521,-3.4541,-3.3963,-3.3686,-3.3322,-4.5011,-4.4896,-4.5011,-4.4877,-4.4516,-4.4346,-4.4194,-4.3962,-4.3631,-4.3479,-4.3479,-4.3479,-4.3479,-4.3479,-4.3479,-4.3479,-4.3479,-4.3479,-4.3479,-4.3479,-4.3479,-4.3479,-4.3479,-4.3479,-4.3479,-4.3479,-4.3479,-4.3479,-4.3479,-4.3479,-4.3479,-4.3479,-4.3479,-4.3479,-4.3479,-4.3479,-4.3479,-4.3479,-4.3479,-4.3479,-4.3479,-4.3461,-4.3112,-4.2304,-4.1111,-4.0084,-3.9386,-3.8891,-3.8744,-3.8707,-3.8707,-3.8707,-3.8707,-3.8707,-3.8707,-3.8707,-3.8707,-3.8707,-3.8707,-3.8707,-3.8707,-3.8707,-3.8707,-3.8707,-3.8707,-3.8707,-3.8707,-3.8707,-3.8707,-3.8707,-3.8707,-3.8707,-3.8707,-3.8707,-3.8707,-3.8707,-3.8707,-3.8707,-3.8707,-3.8707,-3.8707,-3.8707,-3.867,-3.8432,-3.7747,-3.6966,-3.6805,-3.6656,-3.6877,-3.6914,-3.7566,-3.7959,-3.7729,-3.7705,-3.8255,-3.8377,-3.8126,-3.8058,-3.8003,-3.8248,-3.856,-3.8652,-3.8689,-3.867,-3.8634,-3.8334,-3.7729,-3.7535,-3.6793,-3.5627,-3.4772,-3.4334,-3.3829,-3.3166,-3.2891,-4.4553,-4.4527,-4.4806,-4.4919,-4.4806,-4.4508,-4.4337,-4.428,-4.3809,-4.3479,-4.3479,-4.3479,-4.3479,-4.3479,-4.3479,-4.3479,-4.3479,-4.3479,-4.3479,-4.3479,-4.3479,-4.3479,-4.3479,-4.3479,-4.3479,-4.3479,-4.3479,-4.3479,-4.3479,-4.3479,-4.3479,-4.3479,-4.3479,-4.3479,-4.3479,-4.3479,-4.3479,-4.3479,-4.3479,-4.3479,-4.3479,-4.3442,-4.3039,-4.2011,-4.1423,-4.0469,-3.9606,-3.9019,-3.8707,-3.8707,-3.8707,-3.8707,-3.8707,-3.8707,-3.8707,-3.8707,-3.8707,-3.8707,-3.8707,-3.8707,-3.8707,-3.8707,-3.8707,-3.8707,-3.8707,-3.8707,-3.8707,-3.8707,-3.8707,-3.8707,-3.8707,-3.8707,-3.8707,-3.8707,-3.8707,-3.8707,-3.8707,-3.8707,-3.8707,-3.8707,-3.867,-3.8652,-3.8303,-3.7973,-3.7119,-3.6383,-3.6241,-3.6223,-3.6417,-3.6684,-3.7187,-3.779,-3.7629,-3.7888,-3.8395,-3.8597,-3.8395,-3.8315,-3.8198,-3.8352,-3.8597,-3.8652,-3.8689,-3.8652,-3.853,-3.8211,-3.7762,-3.7147,-3.6239,-3.5049,-3.4372,-3.3956,-3.3347,-3.2616,-3.2474,-4.4419,-4.4087,-4.4146,-4.4016,-4.3791,-4.3712,-4.3744,-4.3697,-4.3582,-4.3479,-4.3479,-4.3479,-4.3479,-4.3479,-4.3479,-4.3479,-4.3479,-4.3479,-4.3479,-4.3479,-4.3479,-4.3479,-4.3479,-4.3479,-4.3479,-4.3479,-4.3479,-4.3479,-4.3479,-4.3479,-4.3479,-4.3479,-4.3479,-4.3479,-4.3479,-4.3479,-4.3479,-4.3479,-4.3479,-4.3479,-4.3479,-4.3406,-4.2782,-4.1644,-4.1203,-4.0377,-3.9276,-3.8817,-3.8707,-3.8707,-3.8707,-3.8707,-3.8707,-3.8707,-3.8707,-3.8707,-3.8707,-3.8707,-3.8707,-3.8707,-3.8707,-3.8707,-3.8707,-3.8707,-3.8707,-3.8707,-3.8707,-3.8707,-3.8707,-3.8707,-3.8707,-3.8707,-3.8707,-3.8707,-3.8707,-3.8707,-3.8707,-3.8707,-3.8707,-3.8707,-3.8634,-3.845,-3.8046,-3.7551,-3.682,-3.6083,-3.5622,-3.5689,-3.59,-3.6056,-3.6298,-3.6953,-3.7524,-3.7989,-3.8548,-3.8615,-3.8597,-3.8579,-3.8517,-3.8517,-3.867,-3.8689,-3.867,-3.8493,-3.8285,-3.799,-3.7442,-3.6726,-3.5962,-3.5004,-3.4302,-3.3597,-3.293,-3.2266,-3.1985,-4.3931,-4.3772,-4.3924,-4.3893,-4.3772,-4.374,-4.3758,-4.3744,-4.3563,-4.3479,-4.3479,-4.3479,-4.3479,-4.3479,-4.3479,-4.3479,-4.3479,-4.3479,-4.3479,-4.3479,-4.3479,-4.3479,-4.3479,-4.3479,-4.3479,-4.3479,-4.3479,-4.3479,-4.3479,-4.3479,-4.3479,-4.3479,-4.3479,-4.3479,-4.3479,-4.3479,-4.3479,-4.3479,-4.3479,-4.3479,-4.3479,-4.3479,-4.2635,-4.157,-4.1038,-4.0249,-3.9056,-3.8707,-3.8707,-3.8707,-3.8707,-3.8707,-3.8707,-3.8707,-3.8707,-3.8707,-3.8707,-3.8707,-3.8707,-3.8707,-3.8707,-3.8707,-3.8707,-3.8707,-3.8707,-3.8707,-3.8707,-3.8707,-3.8707,-3.8707,-3.8707,-3.8707,-3.8707,-3.8707,-3.8707,-3.8707,-3.8707,-3.8707,-3.8707,-3.8707,-3.867,-3.8377,-3.7734,-3.7202,-3.6538,-3.5868,-3.5151,-3.5257,-3.5541,-3.5889,-3.6224,-3.7156,-3.7963,-3.8173,-3.8591,-3.8664,-3.8707,-3.8707,-3.8585,-3.8585,-3.8438,-3.8279,-3.8242,-3.8151,-3.7898,-3.7497,-3.6929,-3.616,-3.5535,-3.4782,-3.3719,-3.2795,-3.2355,-3.1963,-3.1688,-4.3479,-4.3513,-4.3786,-4.3912,-4.3912,-4.3893,-4.3881,-4.3849,-4.3631,-4.3479,-4.3479,-4.3479,-4.3479,-4.3479,-4.3479,-4.3479,-4.3479,-4.3479,-4.3479,-4.3479,-4.3479,-4.3479,-4.3479,-4.3479,-4.3479,-4.3479,-4.3479,-4.3479,-4.3479,-4.3479,-4.3479,-4.3479,-4.3479,-4.3479,-4.3479,-4.3479,-4.3479,-4.3479,-4.3479,-4.3479,-4.3479,-4.3406,-4.2745,-4.1368,-4.1258,-4.0634,-3.9239,-3.9038,-3.9038,-3.8964,-3.8836,-3.8707,-3.8707,-3.8707,-3.8707,-3.8707,-3.8707,-3.8707,-3.8707,-3.8707,-3.8707,-3.8707,-3.8707,-3.8707,-3.8707,-3.8707,-3.8707,-3.8707,-3.8707,-3.8707,-3.8707,-3.8707,-3.8707,-3.8707,-3.8707,-3.8707,-3.8707,-3.8707,-3.8707,-3.8707,-3.8707,-3.834,-3.7734,-3.7294,-3.6732,-3.5936,-3.5265,-3.5671,-3.5965,-3.6439,-3.6955,-3.7937,-3.8554,-3.8554,-3.867,-3.8652,-3.8707,-3.8707,-3.8475,-3.8315,-3.8028,-3.7723,-3.7666,-3.7519,-3.7099,-3.6613,-3.6099,-3.5326,-3.4343,-3.3419,-3.2587,-3.2055,-3.1764,-3.1615,-3.1431,-4.3479,-4.3497,-4.3548,-4.3582,-4.3563,-4.3563,-4.3563,-4.3563,-4.3513,-4.3479,-4.3479,-4.3479,-4.3479,-4.3479,-4.3479,-4.3479,-4.3479,-4.3479,-4.3479,-4.3479,-4.3479,-4.3479,-4.3479,-4.3479,-4.3442,-4.3406,-4.3424,-4.3479,-4.3479,-4.3479,-4.3479,-4.3479,-4.3479,-4.3479,-4.3479,-4.3479,-4.3479,-4.3479,-4.3479,-4.3479,-4.3479,-4.3479,-4.2598,-4.1717,-4.1515,-4.1185,-3.9717,-3.9423,-3.9496,-3.9496,-3.9001,-3.8726,-3.8707,-3.8707,-3.8707,-3.8707,-3.8707,-3.8707,-3.8707,-3.8707,-3.8707,-3.8707,-3.8707,-3.8707,-3.8707,-3.8707,-3.8707,-3.8707,-3.8707,-3.8707,-3.8707,-3.8707,-3.8707,-3.8707,-3.8707,-3.8707,-3.8707,-3.8707,-3.8707,-3.8707,-3.8707,-3.8285,-3.7771,-3.7386,-3.6945,-3.6121,-3.5588,-3.6002,-3.6482,-3.6989,-3.7418,-3.8297,-3.8501,-3.8469,-3.8441,-3.8506,-3.8433,-3.8515,-3.837,-3.8039,-3.7675,-3.7295,-3.6862,-3.6647,-3.6162,-3.5565,-3.4977,-3.4091,-3.2997,-3.2412,-3.2055,-3.1693,-3.1314,-3.119,-3.119,-4.3479,-4.3479,-4.3479,-4.3479,-4.3479,-4.3479,-4.3479,-4.3479,-4.3479,-4.3479,-4.3479,-4.3479,-4.3479,-4.3479,-4.3479,-4.3479,-4.3479,-4.3479,-4.3479,-4.3479,-4.3479,-4.3479,-4.3351,-4.3094,-4.2965,-4.3222,-4.3112,-4.3112,-4.3277,-4.3442,-4.3479,-4.3479,-4.3479,-4.3479,-4.3479,-4.3479,-4.3479,-4.3479,-4.3479,-4.3479,-4.3479,-4.3369,-4.2727,-4.1203,-4.1479,-4.0726,-3.9698,-3.9221,-3.9221,-3.9166,-3.8817,-3.8707,-3.8707,-3.8707,-3.8707,-3.8707,-3.8707,-3.8707,-3.8707,-3.8707,-3.8707,-3.8707,-3.8707,-3.8707,-3.8707,-3.8707,-3.8707,-3.8707,-3.8707,-3.8707,-3.8707,-3.8707,-3.8707,-3.8707,-3.8707,-3.8707,-3.8707,-3.8707,-3.8707,-3.8707,-3.867,-3.834,-3.8028,-3.7698,-3.7287,-3.6515,-3.6186,-3.651,-3.71,-3.7728,-3.8126,-3.853,-3.8437,-3.8156,-3.816,-3.8146,-3.7879,-3.791,-3.8081,-3.7744,-3.7309,-3.6893,-3.6426,-3.5474,-3.4605,-3.4055,-3.3719,-3.3216,-3.2429,-3.2049,-3.1715,-3.1455,-3.119,-3.119,-3.119,-4.3479,-4.3479,-4.3479,-4.3479,-4.3479,-4.3479,-4.3479,-4.3479,-4.3479,-4.3479,-4.3479,-4.3479,-4.3479,-4.3479,-4.3479,-4.3479,-4.3479,-4.3479,-4.3479,-4.3479,-4.3461,-4.3351,-4.3057,-4.2616,-4.2525,-4.291,-4.2249,-4.2268,-4.2671,-4.3039,-4.3204,-4.3461,-4.3479,-4.3479,-4.3479,-4.3479,-4.3479,-4.3479,-4.3479,-4.3369,-4.3185,-4.313,-4.2194,-4.1332,-4.0836,-4.0451,-3.9258,-3.9074,-3.9093,-3.9093,-3.8836,-3.8707,-3.8707,-3.8707,-3.8707,-3.8707,-3.8707,-3.8707,-3.8707,-3.8707,-3.8707,-3.8707,-3.8707,-3.8707,-3.8707,-3.8707,-3.8707,-3.8707,-3.8707,-3.8707,-3.8707,-3.8707,-3.8707,-3.8707,-3.8707,-3.8707,-3.8707,-3.8707,-3.8707,-3.8707,-3.8707,-3.8707,-3.8377,-3.8083,-3.7581,-3.6883,-3.683,-3.71,-3.7555,-3.8138,-3.8123,-3.8259,-3.7998,-3.7739,-3.7745,-3.7671,-3.7441,-3.7326,-3.7514,-3.7388,-3.6895,-3.6359,-3.5848,-3.4701,-3.3573,-3.3371,-3.3516,-3.2758,-3.1998,-3.1698,-3.1472,-3.1331,-3.119,-3.119,-3.119,-4.3479,-4.3479,-4.3479,-4.3479,-4.3479,-4.3479,-4.3479,-4.3479,-4.3479,-4.3479,-4.3479,-4.3479,-4.3479,-4.3479,-4.3479,-4.3479,-4.3479,-4.3479,-4.3479,-4.3479,-4.3424,-4.302,-4.2598,-4.2213,-4.1882,-4.1534,-4.1258,-4.1258,-4.1515,-4.2213,-4.2763,-4.3351,-4.3222,-4.3387,-4.3332,-4.313,-4.3112,-4.3112,-4.3112,-4.2855,-4.2543,-4.2249,-4.1607,-4.0598,-4.0616,-4.0689,-3.9845,-3.9606,-3.9515,-3.946,-3.9001,-3.8726,-3.8707,-3.8707,-3.8707,-3.8707,-3.8707,-3.8707,-3.8707,-3.8707,-3.8707,-3.8707,-3.8707,-3.8707,-3.8707,-3.8707,-3.8707,-3.8707,-3.8707,-3.8707,-3.8707,-3.8707,-3.8707,-3.8707,-3.8707,-3.8707,-3.8707,-3.8707,-3.8707,-3.8707,-3.8707,-3.8707,-3.8689,-3.8377,-3.8175,-3.7562,-3.7606,-3.7897,-3.7626,-3.799,-3.7711,-3.7593,-3.7399,-3.7249,-3.724,-3.7143,-3.7001,-3.6879,-3.6895,-3.6734,-3.6432,-3.5904,-3.5279,-3.48,-3.3921,-3.3571,-3.3071,-3.2298,-3.1664,-3.1382,-3.1207,-3.119,-3.119,-3.119,-3.119,-4.3479,-4.3479,-4.3479,-4.3479,-4.3479,-4.3479,-4.3479,-4.3479,-4.3479,-4.3479,-4.3479,-4.3479,-4.3479,-4.3479,-4.3479,-4.3479,-4.3479,-4.3479,-4.3461,-4.3277,-4.3002,-4.2598,-4.2084,-4.1442,-4.0873,-4.0873,-4.0671,-4.0708,-4.1185,-4.1423,-4.1607,-4.2066,-4.247,-4.2708,-4.2671,-4.2378,-4.2176,-4.2103,-4.2084,-4.1827,-4.1717,-4.1534,-4.1038,-4.0102,-4.0084,-3.9937,-3.9276,-3.9166,-3.9148,-3.9093,-3.8854,-3.8762,-3.8707,-3.8707,-3.8707,-3.8707,-3.8707,-3.8707,-3.8707,-3.8707,-3.8707,-3.8707,-3.8707,-3.8707,-3.8707,-3.8707,-3.8707,-3.8707,-3.8707,-3.8707,-3.8707,-3.8707,-3.8707,-3.8707,-3.8707,-3.8707,-3.8707,-3.8707,-3.8707,-3.8707,-3.8707,-3.8707,-3.8707,-3.867,-3.8505,-3.8303,-3.8487,-3.8486,-3.8005,-3.7684,-3.7372,-3.7026,-3.6808,-3.6713,-3.6696,-3.668,-3.658,-3.6486,-3.6334,-3.622,-3.6006,-3.5266,-3.4706,-3.4391,-3.3981,-3.3175,-3.2474,-3.1783,-3.1382,-3.1241,-3.119,-3.119,-3.119,-3.119,-3.119,-4.3351,-4.3167,-4.3387,-4.3479,-4.3479,-4.3479,-4.3479,-4.3479,-4.3479,-4.3479,-4.3479,-4.3479,-4.3479,-4.3479,-4.3479,-4.3479,-4.3479,-4.3461,-4.3296,-4.3112,-4.2837,-4.2231,-4.1497,-4.0891,-4.0487,-4.0396,-3.9974,-3.9863,-4.0194,-4.0598,-4.0781,-4.0983,-4.1277,-4.157,-4.1827,-4.146,-4.1079,-4.1097,-4.113,-4.0928,-4.0822,-4.0726,-4.0359,-3.9606,-3.9515,-3.935,-3.8927,-3.8817,-3.8799,-3.8781,-3.8726,-3.8707,-3.8707,-3.8707,-3.8707,-3.8707,-3.8707,-3.8707,-3.8707,-3.8707,-3.8707,-3.8707,-3.8707,-3.8707,-3.8707,-3.8707,-3.8707,-3.8707,-3.8707,-3.8707,-3.8707,-3.8707,-3.8707,-3.8707,-3.8707,-3.8707,-3.8707,-3.8707,-3.8707,-3.8707,-3.8707,-3.8658,-3.8546,-3.8528,-3.8245,-3.8131,-3.8206,-3.7966,-3.7366,-3.7093,-3.693,-3.6603,-3.6294,-3.6224,-3.6185,-3.6139,-3.6139,-3.6062,-3.5967,-3.5925,-3.5608,-3.488,-3.4486,-3.4363,-3.3758,-3.2652,-3.2036,-3.1676,-3.1399,-3.1207,-3.119,-3.119,-3.119,-3.119,-3.119,-4.3002,-4.2451,-4.3149,-4.3442,-4.3406,-4.3479,-4.3479,-4.3479,-4.3479,-4.3479,-4.3479,-4.3479,-4.3479,-4.3479,-4.3479,-4.3479,-4.3479,-4.3461,-4.3167,-4.2671,-4.2616,-4.1846,-4.0965,-4.0304,-3.9918,-3.9001,-3.8891,-3.9001,-3.8982,-3.9625,-3.9882,-3.9918,-4.012,-4.0396,-4.1056,-4.1093,-4.1042,-4.1042,-4.0914,-4.0455,-4.007,-3.9918,-3.9478,-3.9111,-3.8927,-3.8836,-3.8762,-3.8707,-3.8707,-3.8707,-3.8707,-3.8707,-3.8707,-3.8707,-3.8707,-3.8707,-3.8707,-3.8707,-3.8707,-3.8707,-3.8707,-3.8707,-3.8707,-3.8707,-3.8707,-3.8707,-3.8707,-3.8707,-3.8707,-3.8707,-3.8707,-3.8707,-3.8707,-3.8707,-3.8707,-3.8707,-3.8707,-3.8689,-3.8689,-3.8496,-3.8578,-3.8627,-3.8465,-3.8263,-3.7962,-3.7831,-3.7911,-3.7499,-3.6834,-3.6604,-3.6583,-3.6276,-3.5936,-3.5909,-3.5881,-3.5751,-3.5711,-3.5605,-3.5633,-3.5688,-3.5362,-3.4768,-3.4438,-3.4397,-3.3402,-3.2195,-3.189,-3.1715,-3.1455,-3.119,-3.119,-3.119,-3.119,-3.119,-3.119,-4.2066,-4.2323,-4.2598,-4.269,-4.2782,-4.3277,-4.3479,-4.3479,-4.3479,-4.3479,-4.3479,-4.3479,-4.3479,-4.3479,-4.3424,-4.3406,-4.3479,-4.3461,-4.3057,-4.2341,-4.2268,-4.1148,-4.0249,-3.9717,-3.935,-3.8872,-3.8707,-3.8707,-3.8762,-3.9111,-3.9111,-3.9111,-3.9221,-3.9258,-3.946,-3.9515,-3.9496,-3.9496,-3.946,-3.935,-3.9135,-3.9129,-3.9001,-3.8707,-3.8707,-3.8707,-3.8707,-3.8707,-3.8707,-3.8707,-3.8707,-3.8707,-3.8707,-3.8707,-3.8707,-3.8707,-3.8707,-3.8707,-3.8707,-3.8707,-3.8707,-3.8707,-3.8707,-3.8707,-3.8707,-3.8707,-3.8707,-3.8707,-3.8707,-3.8707,-3.8707,-3.8707,-3.8707,-3.8707,-3.8707,-3.8707,-3.8707,-3.8689,-3.8609,-3.8249,-3.8165,-3.7964,-3.7826,-3.7702,-3.7434,-3.7256,-3.7254,-3.7069,-3.6514,-3.6429,-3.6378,-3.6,-3.5718,-3.5656,-3.5639,-3.5639,-3.5639,-3.5622,-3.5622,-3.5605,-3.5211,-3.4628,-3.455,-3.4513,-3.31,-3.1765,-3.206,-3.2156,-3.1506,-3.119,-3.1224,-3.1207,-3.119,-3.119,-3.119,-4.1258,-4.1515,-4.2066,-4.2139,-4.2103,-4.3039,-4.3479,-4.3442,-4.324,-4.3204,-4.3387,-4.324,-4.3259,-4.3259,-4.2947,-4.3204,-4.3369,-4.3149,-4.2635,-4.2011,-4.2084,-4.0965,-3.9918,-3.9441,-3.9405,-3.8964,-3.8707,-3.8707,-3.8707,-3.8707,-3.8762,-3.8781,-3.8707,-3.8817,-3.8836,-3.8836,-3.8836,-3.8891,-3.8909,-3.8854,-3.8781,-3.8762,-3.8744,-3.8707,-3.8707,-3.8707,-3.8707,-3.8707,-3.8707,-3.8707,-3.8707,-3.8707,-3.8707,-3.8707,-3.8707,-3.8707,-3.8707,-3.8707,-3.8707,-3.8707,-3.8707,-3.8707,-3.8707,-3.8707,-3.8707,-3.8707,-3.8707,-3.8707,-3.8707,-3.8707,-3.8707,-3.8707,-3.8707,-3.8707,-3.8645,-3.8645,-3.8416,-3.8383,-3.8201,-3.7825,-3.756,-3.736,-3.7173,-3.6988,-3.6861,-3.6675,-3.6545,-3.6377,-3.6246,-3.6174,-3.6101,-3.5853,-3.5639,-3.5639,-3.5639,-3.5639,-3.5639,-3.5639,-3.5639,-3.5639,-3.5133,-3.4594,-3.4619,-3.4449,-3.3126,-3.2294,-3.2684,-3.2633,-3.2009,-3.1534,-3.1348,-3.1314,-3.1207,-3.119,-3.119,-4.0598,-4.0212,-4.1607,-4.1827,-4.1515,-4.28,-4.3406,-4.3424,-4.2727,-4.2837,-4.3442,-4.2763,-4.291,-4.313,-4.2011,-4.2268,-4.3204,-4.28,-4.2176,-4.1827,-4.2231,-4.0873,-4.0102,-3.99,-3.946,-3.8964,-3.8707,-3.8707,-3.8707,-3.8707,-3.8707,-3.8707,-3.8707,-3.8707,-3.8707,-3.8854,-3.8817,-3.8781,-3.8707,-3.8707,-3.8707,-3.8707,-3.8707,-3.8707,-3.8707,-3.8707,-3.8707,-3.8707,-3.8707,-3.8707,-3.8707,-3.8707,-3.8707,-3.8707,-3.8707,-3.8707,-3.8707,-3.8707,-3.8707,-3.8707,-3.8707,-3.8707,-3.8707,-3.8707,-3.8707,-3.8707,-3.8707,-3.8707,-3.8707,-3.8707,-3.8707,-3.8707,-3.8707,-3.8645,-3.8619,-3.8383,-3.8044,-3.7864,-3.7631,-3.736,-3.7079,-3.6904,-3.6786,-3.6574,-3.6377,-3.6243,-3.6125,-3.5985,-3.5864,-3.5847,-3.5819,-3.5802,-3.5639,-3.5639,-3.5639,-3.5639,-3.5639,-3.5639,-3.5639,-3.5543,-3.5037,-3.4684,-3.4636,-3.4218,-3.3192,-3.2754,-3.3073,-3.2923,-3.2502,-3.2156,-3.1992,-3.1484,-3.141,-3.1224,-3.119,-3.9918,-4.0799,-4.1258,-4.1644,-4.2011,-4.2451,-4.2947,-4.3387,-4.3204,-4.3314,-4.3479,-4.3259,-4.3185,-4.3406,-4.302,-4.3075,-4.3222,-4.3185,-4.269,-4.2415,-4.2139,-4.0891,-4.0065,-3.9606,-3.9184,-3.8891,-3.8707,-3.8707,-3.8707,-3.8707,-3.8707,-3.8707,-3.8707,-3.8707,-3.8891,-3.9239,-3.9056,-3.8946,-3.8872,-3.8872,-3.8817,-3.8799,-3.8781,-3.8726,-3.8707,-3.8707,-3.8707,-3.8707,-3.8707,-3.8707,-3.8707,-3.8707,-3.8707,-3.8707,-3.8707,-3.8707,-3.8707,-3.8707,-3.8707,-3.8707,-3.8707,-3.8689,-3.8658,-3.8707,-3.8707,-3.8658,-3.8627,-3.8578,-3.8515,-3.8433,-3.8423,-3.8436,-3.8431,-3.8394,-3.8259,-3.797,-3.7662,-3.7421,-3.717,-3.6746,-3.6522,-3.6357,-3.6232,-3.6165,-3.5959,-3.5822,-3.5752,-3.5677,-3.5639,-3.5639,-3.5639,-3.5639,-3.5639,-3.5639,-3.5639,-3.5639,-3.5639,-3.5639,-3.5639,-3.556,-3.5313,-3.4986,-3.4704,-3.4253,-3.3705,-3.3386,-3.3305,-3.3177,-3.3077,-3.3076,-3.2899,-3.2171,-3.1596,-3.1478,-3.1258,-3.9276,-4.0157,-4.0506,-4.1258,-4.2213,-4.2304,-4.2763,-4.3351,-4.3167,-4.3149,-4.3442,-4.313,-4.3185,-4.3332,-4.2818,-4.2745,-4.3406,-4.302,-4.2598,-4.2323,-4.2011,-4.1093,-4.023,-3.9643,-3.9386,-3.9019,-3.8707,-3.8707,-3.8707,-3.8707,-3.8707,-3.8707,-3.8707,-3.8707,-3.8817,-3.9056,-3.9294,-3.9368,-3.9441,-3.9405,-3.9294,-3.9129,-3.9019,-3.8781,-3.8744,-3.8707,-3.8707,-3.8707,-3.8707,-3.8707,-3.8707,-3.8707,-3.8707,-3.8707,-3.8707,-3.8707,-3.8707,-3.8707,-3.8707,-3.8707,-3.8707,-3.8627,-3.8496,-3.8382,-3.835,-3.8318,-3.83,-3.83,-3.815,-3.8065,-3.8089,-3.8095,-3.8081,-3.8065,-3.7814,-3.7523,-3.7261,-3.7048,-3.6615,-3.6182,-3.5941,-3.5783,-3.5667,-3.5639,-3.5622,-3.5661,-3.5688,-3.5633,-3.5639,-3.5639,-3.5639,-3.5639,-3.5639,-3.5639,-3.5639,-3.5639,-3.5639,-3.5639,-3.5639,-3.5543,-3.5459,-3.5127,-3.4709,-3.4607,-3.4597,-3.4353,-3.4134,-3.3917,-3.3812,-3.3826,-3.3601,-3.2857,-3.2232,-3.1877,-3.1607,-3.8762,-3.8964,-3.9662,-4.0965,-4.2194,-4.2304,-4.2745,-4.3369,-4.2818,-4.2818,-4.3277,-4.2763,-4.2928,-4.3222,-4.2543,-4.2616,-4.3075,-4.2983,-4.2818,-4.2359,-4.2396,-4.1644,-4.0744,-4.0414,-3.9496,-3.8946,-3.8707,-3.8707,-3.8707,-3.8707,-3.8707,-3.8707,-3.8707,-3.8707,-3.8744,-3.9276,-3.9606,-3.979,-4.0506,-4.0946,-4.0175,-3.9845,-3.957,-3.8982,-3.8799,-3.8707,-3.8707,-3.8707,-3.8707,-3.8707,-3.8707,-3.8707,-3.8707,-3.8707,-3.8707,-3.8707,-3.8707,-3.8578,-3.8551,-3.8492,-3.8455,-3.8354,-3.815,-3.7929,-3.7843,-3.7895,-3.7877,-3.7843,-3.7703,-3.7632,-3.7631,-3.7608,-3.76,-3.7499,-3.7327,-3.7066,-3.6828,-3.6558,-3.6224,-3.5854,-3.5739,-3.5639,-3.5639,-3.5639,-3.5639,-3.5639,-3.5639,-3.5639,-3.5639,-3.5639,-3.5639,-3.5639,-3.5639,-3.5639,-3.5639,-3.5639,-3.5639,-3.5639,-3.5639,-3.5622,-3.5526,-3.515,-3.4662,-3.4829,-3.502,-3.5172,-3.5043,-3.4774,-3.4561,-3.4505,-3.4155,-3.3431,-3.2951,-3.2596,-3.1911,-3.9056,-3.968,-4.0487,-4.1405,-4.2249,-4.2304,-4.2763,-4.3461,-4.3296,-4.3296,-4.3406,-4.3296,-4.3259,-4.3277,-4.302,-4.3112,-4.3222,-4.3222,-4.3204,-4.2653,-4.2433,-4.1735,-4.0616,-3.9937,-3.9239,-3.8891,-3.8707,-3.8707,-3.8707,-3.8707,-3.8707,-3.8707,-3.8707,-3.8707,-3.8781,-3.946,-4.0084,-4.0175,-4.1222,-4.1662,-4.0965,-4.0212,-3.9717,-3.9368,-3.9166,-3.8744,-3.8707,-3.8707,-3.8707,-3.8707,-3.8707,-3.8707,-3.8707,-3.8707,-3.8676,-3.8707,-3.8572,-3.8373,-3.8174,-3.8077,-3.7972,-3.7721,-3.7487,-3.7396,-3.736,-3.736,-3.736,-3.7285,-3.7248,-3.7135,-3.7099,-3.7092,-3.7094,-3.6925,-3.6802,-3.6582,-3.6389,-3.6072,-3.5766,-3.5677,-3.5622,-3.5639,-3.5639,-3.5639,-3.5639,-3.5639,-3.5639,-3.5639,-3.5639,-3.5639,-3.5639,-3.5639,-3.5639,-3.5639,-3.5639,-3.5639,-3.5639,-3.5639,-3.5639,-3.5639,-3.5639,-3.5363,-3.5116,-3.5279,-3.5442,-3.5476,-3.5476,-3.5459,-3.5279,-3.5161,-3.4931,-3.4317,-3.3987,-3.3684,-3.2671,-3.8964,-3.9496,-4.0634,-4.135,-4.1846,-4.2525,-4.3094,-4.3424,-4.3479,-4.3479,-4.3479,-4.3479,-4.3479,-4.3479,-4.3479,-4.3479,-4.3479,-4.3479,-4.3112,-4.2616,-4.2103,-4.1313,-4.0432,-3.9606,-3.9184,-3.8836,-3.8726,-3.8707,-3.8707,-3.8707,-3.8707,-3.8707,-3.8707,-3.8744,-3.8836,-3.9662,-4.0304,-4.0506,-4.1629,-4.1647,-4.1244,-4.0804,-3.9918,-3.9551,-3.9019,-3.8707,-3.8707,-3.8707,-3.8707,-3.8707,-3.8707,-3.8465,-3.8382,-3.8281,-3.8201,-3.8041,-3.7929,-3.7885,-3.7685,-3.7544,-3.7448,-3.721,-3.6865,-3.6825,-3.6746,-3.6764,-3.6643,-3.6603,-3.6399,-3.6274,-3.6291,-3.6301,-3.6284,-3.6187,-3.6155,-3.6034,-3.5949,-3.583,-3.5694,-3.565,-3.5639,-3.5639,-3.5639,-3.5639,-3.5639,-3.5639,-3.5639,-3.5639,-3.5639,-3.5639,-3.5639,-3.5639,-3.5639,-3.5639,-3.5639,-3.5639,-3.5639,-3.5639,-3.5639,-3.5639,-3.5639,-3.5639,-3.5622,-3.556,-3.5543,-3.556,-3.5622,-3.5639,-3.5639,-3.5442,-3.5346,-3.5194,-3.4914,-3.4577,-3.365,-3.8707,-3.8927,-4.0194,-4.0946,-4.1277,-4.2525,-4.3259,-4.3461,-4.3479,-4.3479,-4.3479,-4.3479,-4.3479,-4.3479,-4.3479,-4.3479,-4.3479,-4.3479,-4.3057,-4.2506,-4.2139,-4.1148,-4.0322,-3.9662,-3.9148,-3.8836,-3.8726,-3.8707,-3.8707,-3.8707,-3.8707,-3.8707,-3.8707,-3.8707,-3.8726,-3.9001,-3.9502,-4.0087,-4.0711,-4.0836,-4.1016,-4.1302,-4.0162,-3.9313,-3.8762,-3.8726,-3.8707,-3.8707,-3.8707,-3.8515,-3.8401,-3.8117,-3.7964,-3.7808,-3.7649,-3.7471,-3.7446,-3.7326,-3.7117,-3.7089,-3.6991,-3.6847,-3.6485,-3.6291,-3.6224,-3.6139,-3.6071,-3.5985,-3.5783,-3.5694,-3.5694,-3.5694,-3.5694,-3.5694,-3.5684,-3.5656,-3.5639,-3.5639,-3.5639,-3.5639,-3.5639,-3.5639,-3.5639,-3.5639,-3.5639,-3.5639,-3.5639,-3.5639,-3.5639,-3.5639,-3.5639,-3.5639,-3.5639,-3.5639,-3.5639,-3.5639,-3.5639,-3.5639,-3.5639,-3.5639,-3.5639,-3.5639,-3.5639,-3.5622,-3.5622,-3.5639,-3.5639,-3.5639,-3.5639,-3.5639,-3.5543,-3.5459,-3.5228,-3.4846,-3.4488,-3.8707,-3.8726,-3.9056,-3.99,-4.1038,-4.1497,-4.2268,-4.3369,-4.3479,-4.3479,-4.3479,-4.3479,-4.3479,-4.3479,-4.3479,-4.3479,-4.3479,-4.3461,-4.2983,-4.2396,-4.1754,-4.0818,-3.9974,-3.9313,-3.8909,-3.8713,-3.8627,-3.8676,-3.8546,-3.8627,-3.8658,-3.8658,-3.8658,-3.8695,-3.8786,-3.9035,-3.9349,-3.9672,-3.9768,-3.9932,-3.9409,-3.9641,-4.007,-3.9496,-3.9038,-3.8836,-3.8707,-3.8707,-3.8415,-3.8117,-3.7756,-3.756,-3.7396,-3.7323,-3.7173,-3.6985,-3.6948,-3.6811,-3.6655,-3.6594,-3.6492,-3.6191,-3.5898,-3.5854,-3.5827,-3.5827,-3.58,-3.58,-3.5667,-3.5667,-3.5622,-3.5622,-3.5622,-3.5622,-3.5639,-3.5639,-3.5639,-3.5639,-3.5639,-3.5639,-3.5639,-3.5639,-3.5639,-3.5639,-3.5639,-3.5639,-3.5639,-3.5639,-3.5639,-3.5639,-3.5639,-3.5639,-3.5639,-3.5639,-3.5639,-3.5639,-3.5639,-3.5639,-3.5639,-3.5639,-3.5639,-3.5639,-3.5639,-3.5639,-3.5639,-3.5639,-3.5639,-3.5639,-3.5639,-3.5639,-3.5639,-3.5526,-3.5374,-3.5194,-3.4897]}]]